[[{"header":{"parameterUnit":"m.s-1","parameterCategory":1,"la1":31.0,"la2":29.5877,"lo1":-88.7671,"lo2":-86.6584,"dy":0.0162,"dx":0.0185,"nx":115,"ny":88,"refTime":"2023-08-16T00:00:00:Z","depth":0,"parameterNumber":2,"parameterNumberName":"U-component_of_WINDS"},"data":[0.0,0.0,0.0,0.0,0.0,0.0,0.0,0.0,0.0,0.0,0.0,0.0,0.0,0.0,0.0,0.0,0.0,0.0,0.0,0.0,0.0,0.0,0.0,0.0,0.0,0.0,0.0,0.0,0.0,0.0,0.0,0.0,0.0,0.0,0.0,0.0,0.0,0.0,0.0,0.0,0.0,0.0,0.0,0.0,0.0,0.0,0.0,0.0,0.0,0.0,0.0,0.0,0.0,0.0,0.0,0.0,0.0,0.0,0.0,0.0,0.0,0.0,0.0,0.0,0.0,0.0,0.0,0.0,0.0,0.0,0.0,0.0,0.0,0.0,0.0,0.0,0.0,0.0,0.0,0.0,0.0,0.0,0.0,0.0,0.0,0.0,0.0,0.0,0.0,0.0,0.0,0.0,0.0,0.0,0.0,0.0,0.0,0.0,0.0,0.0,0.0,0.0,0.0,0.0,0.0,0.0,0.0,0.0,0.0,0.0,0.0,0.0,0.0,0.0,0.0,0.0,0.0,0.0,0.0,0.0,0.0,0.0,0.0,0.0,0.0,0.0,0.0,0.0,0.0,0.0,0.0,0.0,0.0,0.0,0.0,0.0,0.0,0.0,0.0,0.0,0.0,0.0,0.0,0.0,0.0,0.0,0.0,0.0,0.0,0.0,0.0,0.0,0.0,0.0,0.0,0.0,0.0,0.0,0.0,0.0,0.0,0.0,0.0,0.0,0.0,0.0,0.0,0.0,0.0,0.0,0.0,0.0,0.0,0.0,0.0,0.0,0.0,0.0,0.0,0.0,0.0,0.0,0.0,0.0,0.0,0.0,0.0,0.0,0.0,0.0,0.0,0.0,0.0,0.0,0.0,0.0,0.0,0.0,0.0,0.0,0.0,0.0,0.0,0.0,0.0,0.0,0.0,0.0,0.0,0.0,0.0,0.0,0.0,0.0,0.0,0.0,0.0,0.0,0.0,0.0,0.0,0.0,0.0,0.0,0.0,0.0,0.0,0.0,0.0,0.0,0.0,0.0,0.0,0.0,0.0,0.0,0.0,0.0,0.0,0.0,0.0,0.0,0.0,0.0,0.0,0.0,0.0,0.0,0.0,0.0,0.0,0.0,0.0,0.0,0.0,0.0,0.0,0.0,0.0,0.0,0.0,0.0,0.0,0.0,0.0,0.0,0.0,0.0,0.0,0.0,0.0,0.0,0.0,0.0,0.0,0.0,0.0,0.0,0.0,0.0,0.0,0.0,0.0,0.0,0.0,0.0,0.0,0.0,0.0,0.0,0.0,0.0,0.0,0.0,0.0,0.0,0.0,0.0,0.0,0.0,0.0,0.0,0.0,0.0,0.0,0.0,0.0,0.0,0.0,0.0,0.0,0.0,0.0,0.0,0.0,0.0,0.0,0.0,0.0,0.0,0.0,0.0,0.0,0.0,0.0,0.0,0.0,0.0,0.0,0.0,0.0,0.0,0.0,0.0,0.0,0.0,0.0,0.0,0.0,0.0,0.0,0.0,0.0,0.0,0.0,0.0,0.0,0.0,0.0,0.0,0.0,0.0,0.0,0.0,0.0,0.0,0.0,0.0,0.0,0.0,0.0,0.0,0.0,0.0,0.0,0.0,0.0,0.0,0.0,0.0,0.0,0.0,0.0,0.0,0.0,0.0,0.0,0.0,0.0,0.0,0.0,0.0,0.0,0.0,0.0,0.0,0.0,0.0,0.0,0.0,0.0,0.0,0.0,0.0,0.0,0.0,0.0,0.0,0.0,0.0,0.0,0.0,0.0,0.0,0.0,0.0,0.0,0.0,0.0,0.0,0.0,0.0,0.0,0.0,0.0,0.0,0.0,0.0,0.0,0.0,0.0,0.0,0.0,0.0,0.0,0.0,0.0,0.0,0.0,0.0,0.0,0.0,0.0,0.0,0.0,0.0,0.0,0.0,0.0,0.0,0.0,0.0,0.0,0.0,0.0,0.0,0.0,0.0,0.0,0.0,0.0,0.0,0.0,0.0,0.0,0.0,0.0,0.0,0.0,0.0,0.0,0.0,0.0,0.0,0.0,0.0,0.0,0.0,0.0,0.0,0.0,0.0,0.0,0.0,0.0,0.0,0.0,0.0,0.0,0.0,0.0,0.0,0.0,0.0,0.0,0.0,0.0,0.0,0.0,0.0,0.0,0.0,0.0,0.0,0.0,0.0,0.0,0.0,0.0,0.0,0.0,0.0,0.0,0.0,0.0,0.0,0.0,0.0,0.0,0.0,0.0,0.0,0.0,0.0,0.0,0.0,0.0,0.0,0.0,0.0,0.0,0.0,0.0,0.0,0.0,0.0,0.0,0.0,0.0,0.0,0.0,0.0,0.0,0.0,0.0,0.0,0.0,0.0,0.0,0.0,0.0,0.0,0.0,0.0,0.0,0.0,0.0,0.0,0.0,0.0,0.0,0.0,0.0,0.0,0.0,0.0,0.0,0.0,0.0,0.0,0.0,0.0,0.0,0.0,0.0,0.0,0.0,0.0,0.0,0.0,0.0,0.0,0.0,0.0,0.0,0.0,0.0,0.0,0.0,0.0,0.0,0.0,0.0,0.0,0.0,0.0,0.0,0.0,0.0,0.0,0.0,0.0,0.0,0.0,0.0,0.0,0.0,0.0,0.0,0.0,0.0,0.0,0.0,0.0,0.0,0.0,0.0,0.0,0.0,0.0,0.0,0.0,0.0,0.0,0.0,0.0,0.0,0.0,0.0,0.0,0.0,0.0,0.0,0.0,0.0,0.0,0.0,0.0,0.0,0.0,0.0,0.0,0.0,0.0,0.0,0.0,0.0,0.0,0.0,0.0,0.0,0.0,0.0,0.0,0.0,0.0,0.0,0.0,0.0,0.0,0.0,0.0,0.0,0.0,0.0,0.0,0.0,0.0,0.0,0.0,0.0,0.0,0.0,0.0,0.0,0.0,0.0,0.0,0.0,0.0,0.0,0.0,0.0,0.0,0.0,0.0,0.0,0.0,0.0,0.0,0.0,0.0,0.0,0.0,0.0,0.0,0.0,0.0,0.0,0.0,0.0,0.0,0.0,0.0,0.0,0.0,0.0,0.0,0.0,0.0,0.0,0.0,0.0,0.0,0.0,0.0,0.0,0.0,0.0,0.0,0.0,0.0,0.0,0.0,0.0,0.0,0.0,0.0,0.0,0.0,0.0,0.0,0.0,0.0,0.0,0.0,0.0,0.0,0.0,0.0,0.0,0.0,0.0,0.0,0.0,0.0,0.0,0.0,0.0,0.0,0.0,0.0,0.0,0.0,0.0,0.0,0.0,0.0,0.0,0.0,0.0,0.0,0.0,0.0,0.0,0.0,0.0,0.0,0.0,0.0,0.0,0.0,0.0,0.0,0.0,0.0,0.0,0.0,0.0,0.0,0.0,0.0,0.0,0.0,0.0,0.0,0.0,0.0,0.0,0.0,0.0,0.0,0.0,0.0,0.0,0.0,0.0,0.0,0.0,0.0,0.0,0.0,0.0,0.0,0.0,0.0,0.0,0.0,0.0,0.0,0.0,0.0,0.0,0.0,0.0,0.0,0.0,0.0,0.0,0.0,0.0,0.0,0.0,0.0,0.0,0.0,0.0,0.0,0.0,0.0,0.0,0.0,0.0,0.0,0.0,0.0,0.0,0.0,0.0,0.0,0.0,0.0,0.0,0.0,0.0,0.0,0.0,0.0,0.0,0.0,0.0,0.0,0.0,0.0,0.0,0.0,0.0,0.0,0.0,0.0,0.0,0.0,0.0,0.0,0.0,0.0,0.0,0.0,0.0,0.0,0.0,0.0,0.0,0.0,0.0,0.0,0.0,0.0,0.0,0.0,0.0,0.0,0.0,0.0,0.0,0.0,0.0,0.0,0.0,0.0,0.0,0.0,0.0,0.0,0.0,0.0,0.0,0.0,0.0,0.0,0.0,0.0,0.0,0.0,0.0,0.0,0.0,0.0,0.0,0.0,0.0,0.0,0.0,0.0,0.0,0.0,0.0,0.0,0.0,0.0,0.0,0.0,0.0,0.0,0.0,0.0,0.0,0.0,0.0,0.0,0.0,0.0,0.0,0.0,0.0,0.0,0.0,0.0,0.0,0.0,0.0,0.0,0.0,0.0,0.0,0.0,0.0,0.0,0.0,0.0,0.0,0.0,0.0,0.0,0.0,0.0,0.0,0.0,0.0,0.0,0.0,0.0,0.0,0.0,0.0,0.0,0.0,0.0,0.0,0.0,0.0,0.0,0.0,0.0,0.0,0.0,-2.3351,0.0,0.0,0.0,0.0,0.0,0.0,0.0,0.0,0.0,0.0,0.0,0.0,0.0,0.0,0.0,0.0,0.0,0.0,0.0,0.0,0.0,0.0,0.0,0.0,0.0,0.0,0.0,0.0,0.0,0.0,0.0,0.0,0.0,0.0,0.0,0.0,0.0,0.0,0.0,0.0,0.0,0.0,0.0,0.0,0.0,0.0,0.0,0.0,0.0,0.0,0.0,0.0,0.0,0.0,0.0,0.0,0.0,0.0,0.0,0.0,0.0,0.0,0.0,0.0,0.0,0.0,0.0,0.0,0.0,0.0,0.0,0.0,0.0,0.0,0.0,0.0,0.0,0.0,0.0,0.0,0.0,0.0,0.0,0.0,0.0,0.0,0.0,0.0,0.0,0.0,0.0,0.0,0.0,0.0,0.0,0.0,0.0,0.0,0.0,0.0,0.0,0.0,0.0,0.0,0.0,0.0,0.0,0.0,0.0,0.0,-2.5778,-2.6441,-2.7114,-2.7071,-2.6193,0.0,0.0,0.0,0.0,0.0,0.0,0.0,0.0,0.0,0.0,0.0,0.0,0.0,0.0,0.0,0.0,0.0,0.0,0.0,0.0,0.0,0.0,0.0,0.0,0.0,0.0,0.0,0.0,0.0,0.0,0.0,0.0,0.0,0.0,0.0,0.0,0.0,0.0,0.0,0.0,0.0,0.0,0.0,0.0,0.0,0.0,0.0,0.0,0.0,0.0,0.0,0.0,0.0,0.0,0.0,0.0,0.0,0.0,0.0,0.0,0.0,0.0,0.0,0.0,0.0,0.0,0.0,0.0,0.0,0.0,0.0,0.0,0.0,0.0,0.0,0.0,0.0,0.0,0.0,0.0,0.0,0.0,0.0,0.0,0.0,0.0,0.0,0.0,0.0,0.0,0.0,0.0,0.0,0.0,0.0,0.0,0.0,0.0,0.0,0.0,0.0,0.0,0.0,0.0,0.0,0.0,0.0,0.0,0.0,0.0,0.0,0.0,-3.1237,-3.0513,-2.8936,0.0,0.0,0.0,0.0,0.0,0.0,0.0,0.0,0.0,0.0,0.0,0.0,0.0,0.0,0.0,0.0,0.0,0.0,0.0,0.0,0.0,0.0,0.0,0.0,0.0,0.0,0.0,0.0,0.0,0.0,0.0,0.0,0.0,0.0,0.0,0.0,0.0,0.0,0.0,0.0,0.0,0.0,0.0,0.0,0.0,0.0,0.0,0.0,0.0,0.0,0.0,0.0,0.0,0.0,0.0,0.0,0.0,0.0,0.0,0.0,0.0,0.0,0.0,0.0,0.0,0.0,0.0,0.0,0.0,0.0,0.0,0.0,0.0,0.0,0.0,0.0,0.0,0.0,0.0,0.0,0.0,0.0,0.0,0.0,0.0,0.0,0.0,0.0,0.0,0.0,0.0,0.0,0.0,0.0,0.0,0.0,0.0,0.0,0.0,0.0,0.0,0.0,0.0,0.0,0.0,0.0,0.0,0.0,0.0,0.0,-3.2582,-3.7535,-3.6278,0.0,-3.1557,0.0,0.0,0.0,0.0,0.0,0.0,0.0,0.0,0.0,0.0,0.0,0.0,0.0,0.0,0.0,0.0,0.0,0.0,0.0,0.0,0.0,0.0,0.0,0.0,0.0,0.0,0.0,0.0,0.0,0.0,0.0,0.0,0.0,0.0,0.0,0.0,0.0,0.0,0.0,0.0,0.0,0.0,0.0,0.0,0.0,0.0,0.0,0.0,0.0,0.0,0.0,0.0,0.0,0.0,0.0,0.0,0.0,0.0,0.0,0.0,0.0,0.0,0.0,0.0,0.0,0.0,0.0,0.0,0.0,0.0,0.0,0.0,0.0,0.0,0.0,0.0,0.0,0.0,0.0,0.0,0.0,0.0,0.0,0.0,0.0,0.0,0.0,0.0,0.0,0.0,0.0,0.0,0.0,0.0,0.0,0.0,0.0,0.0,0.0,0.0,0.0,0.0,0.0,0.0,0.0,0.0,0.0,0.0,0.0,0.0,-3.5266,-3.8929,-3.7815,-3.5896,0.0,0.0,0.0,0.0,0.0,0.0,0.0,0.0,0.0,0.0,0.0,0.0,0.0,0.0,0.0,0.0,0.0,0.0,0.0,0.0,0.0,0.0,0.0,0.0,0.0,0.0,0.0,0.0,0.0,0.0,0.0,0.0,0.0,0.0,0.0,0.0,0.0,0.0,0.0,0.0,0.0,0.0,0.0,0.0,0.0,0.0,0.0,0.0,0.0,0.0,0.0,0.0,0.0,0.0,0.0,0.0,0.0,0.0,0.0,0.0,0.0,0.0,0.0,0.0,0.0,0.0,0.0,0.0,0.0,0.0,0.0,0.0,0.0,0.0,0.0,0.0,0.0,0.0,0.0,0.0,0.0,0.0,0.0,0.0,0.0,0.0,0.0,0.0,0.0,0.0,0.0,0.0,0.0,0.0,0.0,0.0,0.0,0.0,0.0,0.0,0.0,0.0,0.0,0.0,0.0,0.0,0.0,0.0,0.0,0.0,-3.6076,-3.7977,-4.0479,-3.9018,-3.6938,-3.4486,0.0,0.0,0.0,0.0,0.0,0.0,0.0,0.0,0.0,0.0,0.0,0.0,0.0,0.0,0.0,0.0,0.0,0.0,0.0,0.0,0.0,0.0,0.0,0.0,0.0,0.0,0.0,0.0,0.0,0.0,0.0,0.0,0.0,0.0,0.0,0.0,0.0,0.0,0.0,0.0,0.0,0.0,0.0,0.0,0.0,0.0,0.0,0.0,0.0,0.0,0.0,0.0,0.0,0.0,0.0,0.0,0.0,0.0,0.0,0.0,0.0,0.0,0.0,0.0,0.0,0.0,0.0,0.0,0.0,0.0,0.0,0.0,0.0,0.0,0.0,0.0,0.0,0.0,0.0,0.0,0.0,0.0,0.0,0.0,0.0,0.0,0.0,0.0,0.0,0.0,0.0,0.0,0.0,0.0,0.0,0.0,0.0,0.0,0.0,0.0,0.0,0.0,0.0,0.0,0.0,0.0,0.0,0.0,-4.3364,-4.0818,-4.0861,-4.4052,-4.0606,-3.7606,0.0,0.0,0.0,0.0,0.0,0.0,0.0,0.0,0.0,0.0,0.0,0.0,0.0,0.0,0.0,0.0,0.0,0.0,0.0,0.0,0.0,0.0,0.0,0.0,0.0,0.0,0.0,0.0,0.0,0.0,0.0,0.0,0.0,0.0,0.0,0.0,0.0,0.0,0.0,0.0,0.0,0.0,0.0,0.0,0.0,0.0,0.0,0.0,0.0,0.0,0.0,0.0,0.0,0.0,0.0,0.0,0.0,0.0,0.0,0.0,0.0,0.0,0.0,0.0,0.0,0.0,0.0,0.0,0.0,0.0,0.0,0.0,0.0,0.0,0.0,0.0,0.0,0.0,0.0,0.0,0.0,0.0,0.0,0.0,0.0,0.0,0.0,0.0,0.0,0.0,0.0,0.0,0.0,0.0,0.0,0.0,0.0,0.0,0.0,0.0,0.0,0.0,0.0,0.0,0.0,0.0,0.0,0.0,0.0,-3.7226,-3.9682,-4.2096,-4.4271,-4.1644,-3.9534,0.0,0.0,0.0,0.0,0.0,0.0,0.0,0.0,0.0,0.0,0.0,0.0,0.0,0.0,0.0,0.0,0.0,0.0,0.0,0.0,0.0,0.0,0.0,0.0,0.0,0.0,0.0,0.0,0.0,0.0,0.0,0.0,0.0,0.0,0.0,0.0,0.0,0.0,0.0,0.0,0.0,0.0,0.0,0.0,0.0,0.0,0.0,0.0,0.0,0.0,0.0,0.0,0.0,0.0,0.0,0.0,0.0,0.0,0.0,0.0,0.0,0.0,0.0,0.0,0.0,0.0,0.0,0.0,0.0,0.0,0.0,0.0,0.0,0.0,0.0,0.0,0.0,0.0,0.0,0.0,0.0,0.0,0.0,0.0,0.0,0.0,0.0,0.0,0.0,0.0,0.0,0.0,0.0,0.0,0.0,0.0,0.0,0.0,0.0,0.0,0.0,0.0,0.0,0.0,0.0,0.0,0.0,0.0,0.0,-3.7327,0.0,-4.4919,-4.482,-4.2616,-4.0235,0.0,0.0,0.0,0.0,0.0,0.0,0.0,0.0,0.0,0.0,0.0,0.0,0.0,0.0,0.0,0.0,0.0,0.0,0.0,0.0,0.0,0.0,0.0,0.0,0.0,0.0,0.0,0.0,0.0,0.0,0.0,0.0,0.0,0.0,0.0,0.0,0.0,0.0,0.0,0.0,0.0,0.0,0.0,0.0,0.0,0.0,0.0,0.0,0.0,0.0,0.0,0.0,0.0,0.0,0.0,0.0,0.0,0.0,0.0,0.0,0.0,0.0,0.0,0.0,0.0,0.0,0.0,0.0,0.0,0.0,0.0,0.0,0.0,0.0,0.0,0.0,0.0,0.0,0.0,0.0,0.0,0.0,0.0,0.0,0.0,0.0,0.0,0.0,0.0,0.0,0.0,0.0,0.0,0.0,0.0,0.0,0.0,0.0,0.0,0.0,0.0,0.0,0.0,0.0,0.0,0.0,0.0,0.0,-3.7311,-4.5297,-4.8876,-4.903,-4.6101,-4.3434,-3.9518,0.0,0.0,0.0,0.0,0.0,0.0,0.0,0.0,0.0,0.0,0.0,0.0,0.0,0.0,0.0,0.0,0.0,0.0,0.0,0.0,0.0,0.0,0.0,0.0,0.0,0.0,0.0,0.0,0.0,0.0,0.0,0.0,0.0,0.0,0.0,0.0,0.0,0.0,0.0,0.0,0.0,0.0,0.0,0.0,0.0,0.0,0.0,0.0,0.0,0.0,0.0,0.0,0.0,0.0,0.0,0.0,0.0,0.0,0.0,0.0,0.0,0.0,0.0,0.0,0.0,0.0,0.0,0.0,0.0,0.0,0.0,0.0,0.0,0.0,0.0,0.0,0.0,0.0,0.0,0.0,0.0,0.0,0.0,0.0,0.0,0.0,0.0,0.0,0.0,0.0,0.0,0.0,0.0,0.0,0.0,0.0,0.0,0.0,0.0,0.0,0.0,0.0,0.0,0.0,0.0,0.0,0.0,0.0,0.0,-3.9953,-4.4892,-4.7516,-4.7384,-4.3507,-4.1054,0.0,0.0,0.0,0.0,0.0,0.0,0.0,0.0,0.0,0.0,0.0,0.0,0.0,0.0,0.0,0.0,0.0,0.0,0.0,0.0,0.0,0.0,0.0,0.0,0.0,0.0,0.0,0.0,0.0,0.0,0.0,0.0,0.0,0.0,0.0,0.0,0.0,0.0,0.0,0.0,0.0,0.0,0.0,0.0,0.0,0.0,0.0,0.0,0.0,0.0,0.0,0.0,0.0,0.0,0.0,0.0,0.0,0.0,0.0,0.0,0.0,0.0,0.0,0.0,0.0,0.0,0.0,0.0,0.0,0.0,0.0,0.0,0.0,0.0,0.0,0.0,0.0,0.0,0.0,0.0,0.0,0.0,0.0,0.0,0.0,0.0,0.0,0.0,0.0,0.0,0.0,0.0,0.0,0.0,0.0,0.0,0.0,0.0,0.0,0.0,0.0,0.0,0.0,0.0,0.0,0.0,0.0,0.0,0.0,-4.1261,-4.6399,-4.9073,-4.8731,-4.5236,-4.2621,-4.1085,0.0,0.0,0.0,0.0,0.0,0.0,0.0,0.0,0.0,0.0,0.0,0.0,0.0,0.0,0.0,0.0,0.0,0.0,0.0,0.0,0.0,0.0,0.0,0.0,0.0,0.0,0.0,0.0,0.0,0.0,0.0,0.0,0.0,0.0,0.0,0.0,0.0,0.0,0.0,0.0,0.0,0.0,0.0,0.0,0.0,0.0,0.0,0.0,0.0,0.0,0.0,0.0,0.0,0.0,0.0,0.0,0.0,0.0,0.0,0.0,0.0,0.0,0.0,0.0,0.0,0.0,0.0,0.0,0.0,0.0,0.0,0.0,0.0,0.0,0.0,0.0,0.0,0.0,0.0,0.0,0.0,0.0,0.0,0.0,0.0,0.0,0.0,0.0,0.0,0.0,0.0,0.0,0.0,0.0,0.0,0.0,0.0,0.0,0.0,0.0,0.0,0.0,0.0,0.0,0.0,0.0,0.0,0.0,-4.7554,-5.2388,-5.3307,-5.0022,-4.8174,-4.4258,0.0,0.0,0.0,0.0,0.0,0.0,0.0,0.0,0.0,0.0,0.0,0.0,0.0,0.0,0.0,0.0,0.0,0.0,0.0,0.0,0.0,0.0,0.0,0.0,0.0,0.0,0.0,0.0,0.0,0.0,0.0,0.0,0.0,0.0,0.0,0.0,0.0,0.0,0.0,0.0,0.0,0.0,0.0,0.0,0.0,0.0,0.0,0.0,0.0,0.0,0.0,0.0,0.0,0.0,0.0,0.0,0.0,0.0,0.0,0.0,0.0,0.0,0.0,0.0,0.0,0.0,0.0,0.0,0.0,0.0,0.0,0.0,0.0,0.0,0.0,0.0,0.0,0.0,0.0,0.0,0.0,0.0,0.0,0.0,0.0,0.0,0.0,0.0,0.0,0.0,0.0,0.0,0.0,0.0,0.0,0.0,0.0,0.0,0.0,0.0,0.0,0.0,0.0,0.0,0.0,0.0,0.0,0.0,0.0,-4.9975,-5.3721,-5.4882,-5.3261,-4.9421,-4.5585,0.0,0.0,0.0,0.0,0.0,0.0,0.0,0.0,0.0,0.0,0.0,0.0,0.0,0.0,0.0,0.0,0.0,0.0,0.0,0.0,0.0,0.0,0.0,0.0,0.0,0.0,0.0,0.0,0.0,0.0,0.0,0.0,0.0,0.0,0.0,0.0,0.0,0.0,0.0,0.0,0.0,0.0,0.0,0.0,0.0,0.0,0.0,0.0,0.0,0.0,0.0,0.0,0.0,0.0,0.0,0.0,0.0,0.0,0.0,0.0,0.0,0.0,0.0,0.0,0.0,0.0,0.0,0.0,0.0,0.0,0.0,0.0,0.0,0.0,0.0,0.0,0.0,0.0,0.0,0.0,0.0,0.0,0.0,0.0,0.0,0.0,0.0,0.0,0.0,0.0,0.0,0.0,0.0,0.0,0.0,0.0,0.0,0.0,0.0,0.0,0.0,0.0,0.0,0.0,0.0,0.0,0.0,0.0,-4.732,-5.1936,-5.5221,-5.6652,-5.6125,-5.239,-4.8151,0.0,0.0,0.0,0.0,0.0,0.0,0.0,0.0,0.0,0.0,0.0,0.0,0.0,0.0,0.0,0.0,0.0,0.0,0.0,0.0,0.0,0.0,0.0,0.0,0.0,0.0,0.0,0.0,0.0,0.0,0.0,0.0,0.0,0.0,0.0,0.0,0.0,0.0,0.0,0.0,0.0,0.0,0.0,0.0,0.0,0.0,0.0,0.0,0.0,0.0,0.0,0.0,0.0,0.0,0.0,0.0,0.0,0.0,0.0,0.0,0.0,0.0,0.0,0.0,0.0,0.0,0.0,0.0,0.0,0.0,0.0,0.0,0.0,0.0,0.0,0.0,0.0,0.0,0.0,0.0,0.0,0.0,0.0,0.0,0.0,0.0,0.0,0.0,0.0,0.0,0.0,0.0,0.0,0.0,0.0,0.0,0.0,0.0,0.0,0.0,0.0,0.0,0.0,0.0,0.0,0.0,0.0,0.0,-4.9149,-5.3204,-5.6519,-5.8207,-5.8117,-5.5756,-5.0996,0.0,0.0,0.0,0.0,0.0,0.0,0.0,0.0,0.0,0.0,0.0,0.0,0.0,0.0,0.0,0.0,0.0,0.0,0.0,0.0,0.0,0.0,0.0,0.0,0.0,0.0,0.0,0.0,0.0,0.0,0.0,0.0,0.0,0.0,0.0,0.0,0.0,0.0,0.0,0.0,0.0,0.0,0.0,0.0,0.0,0.0,0.0,0.0,0.0,0.0,0.0,0.0,0.0,0.0,0.0,0.0,0.0,0.0,0.0,0.0,0.0,0.0,0.0,0.0,0.0,0.0,0.0,0.0,0.0,0.0,0.0,0.0,0.0,0.0,0.0,0.0,0.0,0.0,0.0,0.0,0.0,0.0,0.0,0.0,0.0,0.0,0.0,0.0,0.0,0.0,0.0,0.0,0.0,0.0,0.0,0.0,0.0,0.0,0.0,0.0,0.0,0.0,0.0,0.0,0.0,0.0,0.0,0.0,-4.8783,-5.2314,-5.5877,-5.7891,-5.8106,-5.5221,-5.0714,0.0,0.0,0.0,0.0,0.0,0.0,0.0,0.0,0.0,0.0,0.0,0.0,0.0,0.0,0.0,0.0,0.0,0.0,0.0,0.0,0.0,0.0,0.0,0.0,0.0,0.0,0.0,0.0,0.0,0.0,0.0,0.0,0.0,0.0,0.0,0.0,0.0,0.0,0.0,0.0,0.0,0.0,0.0,0.0,0.0,0.0,0.0,0.0,-4.5238,0.0,0.0,0.0,0.0,0.0,0.0,0.0,0.0,0.0,0.0,0.0,0.0,0.0,0.0,0.0,0.0,0.0,0.0,0.0,0.0,0.0,0.0,0.0,0.0,0.0,0.0,0.0,0.0,0.0,0.0,0.0,0.0,0.0,0.0,0.0,0.0,0.0,0.0,0.0,0.0,0.0,0.0,0.0,0.0,0.0,0.0,0.0,0.0,0.0,0.0,0.0,0.0,0.0,0.0,0.0,0.0,0.0,0.0,0.0,-4.9656,-5.2566,-5.5509,-5.7365,-5.7974,-5.5544,-5.1491,0.0,0.0,0.0,0.0,0.0,0.0,0.0,0.0,0.0,0.0,0.0,0.0,0.0,0.0,0.0,0.0,0.0,0.0,0.0,0.0,0.0,0.0,0.0,0.0,0.0,0.0,0.0,0.0,0.0,0.0,0.0,0.0,0.0,0.0,0.0,0.0,0.0,0.0,0.0,0.0,0.0,0.0,0.0,0.0,0.0,0.0,0.0,0.0,0.0,0.0,0.0,0.0,0.0,0.0,0.0,0.0,0.0,0.0,0.0,0.0,0.0,0.0,0.0,0.0,0.0,0.0,0.0,0.0,0.0,0.0,0.0,0.0,0.0,0.0,0.0,0.0,0.0,0.0,0.0,0.0,0.0,0.0,0.0,0.0,0.0,0.0,0.0,0.0,0.0,0.0,0.0,0.0,0.0,0.0,0.0,0.0,0.0,0.0,0.0,0.0,0.0,0.0,0.0,0.0,0.0,0.0,0.0,-4.6834,-5.0407,-5.2871,-5.5002,-5.6573,-5.7535,-5.5697,-5.2151,-4.6856,0.0,0.0,0.0,0.0,0.0,0.0,0.0,0.0,0.0,0.0,0.0,0.0,0.0,0.0,0.0,0.0,0.0,0.0,0.0,0.0,0.0,0.0,0.0,0.0,0.0,0.0,0.0,0.0,0.0,0.0,0.0,0.0,0.0,0.0,0.0,0.0,0.0,0.0,-3.8651,-4.4517,0.0,0.0,0.0,0.0,0.0,0.0,0.0,0.0,-4.6134,0.0,0.0,0.0,0.0,0.0,0.0,0.0,0.0,0.0,0.0,0.0,0.0,0.0,0.0,0.0,0.0,0.0,0.0,0.0,0.0,0.0,0.0,0.0,0.0,0.0,0.0,0.0,0.0,0.0,0.0,0.0,0.0,0.0,0.0,0.0,0.0,0.0,0.0,0.0,0.0,0.0,0.0,0.0,0.0,0.0,0.0,0.0,0.0,0.0,0.0,0.0,0.0,0.0,0.0,0.0,0.0,-4.3866,-4.6177,-4.874,-5.1534,-5.3661,-5.4976,-5.5455,-5.3689,-5.0507,-4.6061,0.0,0.0,0.0,0.0,0.0,0.0,0.0,0.0,0.0,0.0,0.0,0.0,0.0,0.0,0.0,0.0,0.0,0.0,0.0,0.0,0.0,0.0,0.0,0.0,0.0,0.0,0.0,0.0,0.0,0.0,0.0,0.0,0.0,0.0,0.0,0.0,0.0,0.0,0.0,-5.2159,-5.5243,0.0,0.0,0.0,0.0,0.0,0.0,0.0,0.0,-4.5423,0.0,0.0,0.0,0.0,0.0,0.0,0.0,0.0,0.0,0.0,0.0,0.0,0.0,0.0,0.0,0.0,0.0,0.0,0.0,0.0,0.0,0.0,0.0,0.0,0.0,0.0,0.0,0.0,0.0,0.0,0.0,0.0,0.0,0.0,0.0,0.0,0.0,0.0,0.0,0.0,0.0,0.0,0.0,0.0,0.0,0.0,0.0,0.0,0.0,0.0,0.0,0.0,0.0,0.0,0.0,-4.2915,-4.5803,-4.8398,-5.0621,-5.2076,-5.3134,-5.3665,-5.1188,-4.8289,0.0,0.0,0.0,0.0,0.0,0.0,0.0,0.0,0.0,0.0,0.0,0.0,0.0,0.0,0.0,0.0,0.0,0.0,0.0,0.0,0.0,0.0,0.0,0.0,0.0,0.0,0.0,0.0,0.0,0.0,0.0,0.0,0.0,0.0,0.0,0.0,0.0,0.0,0.0,0.0,-5.457,-5.7928,-5.6663,0.0,0.0,0.0,0.0,0.0,0.0,-4.6694,-4.5294,0.0,0.0,0.0,0.0,0.0,0.0,0.0,0.0,0.0,0.0,0.0,0.0,0.0,0.0,0.0,0.0,0.0,0.0,0.0,0.0,0.0,0.0,0.0,0.0,0.0,0.0,0.0,0.0,0.0,0.0,0.0,0.0,0.0,0.0,0.0,0.0,0.0,0.0,0.0,0.0,0.0,0.0,0.0,0.0,0.0,0.0,0.0,0.0,0.0,0.0,0.0,0.0,0.0,0.0,0.0,-4.1819,-4.526,-4.8,-4.9892,-5.056,-5.1245,-5.1899,-4.8835,-4.6036,0.0,0.0,0.0,0.0,0.0,0.0,0.0,0.0,0.0,0.0,0.0,0.0,0.0,0.0,0.0,0.0,0.0,0.0,0.0,0.0,0.0,0.0,0.0,0.0,0.0,0.0,0.0,0.0,0.0,0.0,0.0,0.0,0.0,0.0,0.0,0.0,0.0,0.0,0.0,0.0,0.0,-5.9632,-5.8358,-5.8199,0.0,0.0,0.0,0.0,-4.8587,-4.7648,0.0,0.0,0.0,0.0,0.0,0.0,0.0,0.0,0.0,0.0,0.0,0.0,0.0,0.0,0.0,0.0,0.0,0.0,0.0,0.0,0.0,0.0,0.0,0.0,0.0,0.0,0.0,0.0,0.0,0.0,0.0,0.0,0.0,0.0,0.0,0.0,0.0,0.0,0.0,0.0,0.0,0.0,0.0,0.0,0.0,0.0,0.0,0.0,0.0,0.0,0.0,0.0,0.0,0.0,0.0,0.0,-4.1745,-4.4113,-4.6662,-4.9296,-4.9295,-4.9449,-4.9892,-4.7101,-4.4244,0.0,0.0,0.0,0.0,0.0,0.0,0.0,0.0,0.0,0.0,0.0,0.0,0.0,0.0,0.0,0.0,0.0,0.0,0.0,0.0,0.0,0.0,0.0,0.0,0.0,0.0,0.0,0.0,0.0,0.0,0.0,0.0,0.0,0.0,0.0,0.0,0.0,0.0,0.0,0.0,0.0,-6.177,-5.6695,-5.925,-5.9651,0.0,0.0,-5.4412,-5.1934,-5.2079,0.0,0.0,0.0,0.0,0.0,0.0,0.0,0.0,0.0,0.0,0.0,0.0,0.0,0.0,0.0,0.0,0.0,0.0,0.0,0.0,0.0,0.0,0.0,0.0,0.0,0.0,0.0,0.0,0.0,0.0,0.0,0.0,0.0,0.0,0.0,0.0,0.0,0.0,0.0,0.0,0.0,0.0,0.0,0.0,0.0,0.0,0.0,0.0,0.0,0.0,0.0,0.0,0.0,0.0,0.0,-3.8109,-4.0516,-4.2648,-4.4805,-4.6948,-4.7111,-4.7151,-4.7037,-4.4653,-4.221,0.0,0.0,0.0,0.0,0.0,0.0,0.0,0.0,0.0,0.0,0.0,0.0,0.0,0.0,0.0,0.0,0.0,0.0,0.0,0.0,0.0,0.0,0.0,0.0,0.0,0.0,0.0,0.0,0.0,0.0,0.0,0.0,0.0,0.0,0.0,0.0,0.0,0.0,0.0,0.0,0.0,0.0,-6.0342,-6.1547,0.0,0.0,0.0,-5.3408,-5.1776,0.0,0.0,0.0,0.0,0.0,0.0,0.0,0.0,0.0,0.0,0.0,0.0,0.0,0.0,0.0,0.0,0.0,0.0,0.0,0.0,0.0,0.0,0.0,0.0,0.0,0.0,0.0,0.0,0.0,0.0,0.0,0.0,0.0,0.0,0.0,0.0,0.0,0.0,0.0,0.0,0.0,0.0,0.0,0.0,0.0,0.0,0.0,0.0,0.0,0.0,0.0,0.0,0.0,0.0,0.0,0.0,0.0,-3.9557,-4.1717,-4.3576,-4.5121,-4.5311,-4.5219,-4.4755,-4.2757,0.0,0.0,0.0,0.0,0.0,0.0,0.0,0.0,0.0,0.0,0.0,0.0,0.0,0.0,0.0,0.0,0.0,0.0,0.0,0.0,0.0,0.0,0.0,0.0,0.0,0.0,0.0,-2.746,0.0,0.0,0.0,0.0,0.0,0.0,0.0,0.0,0.0,0.0,0.0,0.0,0.0,0.0,-5.9497,-6.1792,-6.2207,-6.1006,0.0,0.0,-5.2745,-5.1855,-5.177,-5.0439,0.0,0.0,0.0,0.0,0.0,0.0,0.0,0.0,0.0,0.0,0.0,0.0,0.0,0.0,0.0,0.0,0.0,0.0,0.0,0.0,0.0,0.0,0.0,0.0,0.0,0.0,0.0,0.0,0.0,0.0,0.0,0.0,0.0,0.0,0.0,0.0,0.0,0.0,0.0,0.0,0.0,0.0,0.0,0.0,0.0,0.0,0.0,0.0,0.0,0.0,0.0,0.0,0.0,0.0,-3.7635,-3.9576,-4.1717,-4.3546,-4.5103,-4.4437,-4.4035,-4.3938,-4.2044,-3.9624,0.0,0.0,0.0,0.0,0.0,0.0,0.0,0.0,0.0,0.0,0.0,0.0,0.0,0.0,0.0,0.0,0.0,0.0,0.0,0.0,0.0,0.0,0.0,0.0,0.0,0.0,0.0,0.0,0.0,0.0,0.0,0.0,0.0,0.0,0.0,0.0,0.0,0.0,0.0,0.0,0.0,-5.6288,-5.7409,-5.9725,-6.028,0.0,-5.6027,-5.4918,-5.3549,-5.4972,-5.4177,-4.7767,0.0,0.0,0.0,0.0,0.0,0.0,0.0,0.0,0.0,0.0,0.0,0.0,0.0,0.0,0.0,0.0,0.0,0.0,0.0,0.0,0.0,0.0,0.0,0.0,0.0,0.0,0.0,0.0,0.0,0.0,0.0,0.0,0.0,0.0,0.0,0.0,0.0,0.0,0.0,0.0,0.0,0.0,0.0,0.0,0.0,0.0,0.0,0.0,0.0,0.0,0.0,0.0,0.0,-3.7285,-3.9036,-4.0836,-4.2368,-4.3578,-4.33,-4.279,-4.2062,-4.1335,-3.9364,0.0,0.0,0.0,0.0,0.0,0.0,0.0,0.0,0.0,0.0,0.0,0.0,0.0,0.0,0.0,0.0,0.0,0.0,0.0,0.0,0.0,0.0,0.0,0.0,0.0,0.0,0.0,0.0,-3.3615,-3.4455,-3.379,0.0,0.0,0.0,0.0,0.0,0.0,0.0,0.0,0.0,0.0,-5.364,-5.6399,-5.7406,0.0,0.0,-5.5128,-5.4277,-5.4211,-5.3315,-5.1488,-4.8037,-4.6815,0.0,0.0,0.0,0.0,0.0,0.0,0.0,0.0,0.0,0.0,0.0,0.0,0.0,0.0,0.0,0.0,0.0,0.0,0.0,0.0,0.0,0.0,0.0,0.0,0.0,0.0,0.0,0.0,0.0,0.0,0.0,0.0,0.0,0.0,0.0,0.0,0.0,0.0,0.0,0.0,0.0,0.0,0.0,0.0,0.0,0.0,0.0,0.0,0.0,0.0,0.0,0.0,-3.7092,-3.8689,-4.0286,-4.1608,-4.2657,-4.2519,-4.1937,-4.0949,-4.0733,-3.9179,0.0,0.0,0.0,0.0,0.0,0.0,0.0,0.0,0.0,0.0,0.0,0.0,0.0,0.0,0.0,0.0,0.0,0.0,0.0,0.0,0.0,0.0,0.0,0.0,0.0,0.0,0.0,0.0,-3.5287,-3.5801,-3.5198,0.0,0.0,0.0,0.0,0.0,0.0,0.0,0.0,0.0,0.0,-5.031,-5.4957,-5.5279,-5.4954,-5.4775,-5.3505,-5.2738,-5.3162,-5.1657,-4.9632,-4.7261,0.0,0.0,0.0,0.0,0.0,0.0,0.0,0.0,0.0,0.0,0.0,0.0,0.0,0.0,0.0,0.0,0.0,0.0,0.0,0.0,0.0,0.0,0.0,0.0,0.0,0.0,0.0,0.0,0.0,0.0,-3.5723,0.0,0.0,0.0,0.0,0.0,0.0,0.0,0.0,0.0,0.0,0.0,0.0,0.0,0.0,0.0,0.0,0.0,0.0,0.0,0.0,0.0,0.0,-3.7063,-3.8707,-4.0272,-4.1573,-4.26,-4.2121,-4.1534,-4.0903,-4.0417,-3.9088,-3.6806,0.0,0.0,0.0,0.0,0.0,0.0,0.0,0.0,0.0,0.0,0.0,0.0,0.0,0.0,0.0,0.0,0.0,0.0,0.0,0.0,0.0,0.0,0.0,0.0,0.0,0.0,-3.6088,-3.5618,-3.5366,0.0,0.0,0.0,0.0,0.0,0.0,0.0,0.0,0.0,0.0,-4.6291,-4.6146,-5.2666,-5.3549,-5.3232,-5.2482,-5.1359,-5.0504,-5.0367,-5.0744,-4.9661,0.0,0.0,0.0,0.0,0.0,0.0,0.0,0.0,0.0,0.0,0.0,0.0,0.0,0.0,0.0,0.0,0.0,0.0,0.0,0.0,0.0,0.0,0.0,0.0,0.0,0.0,0.0,-4.2151,-4.0777,0.0,0.0,0.0,0.0,0.0,0.0,0.0,0.0,0.0,0.0,0.0,-4.0158,-4.0893,0.0,0.0,0.0,0.0,0.0,0.0,0.0,0.0,0.0,0.0,0.0,0.0,-3.6492,-3.8805,-3.9625,-4.0517,-4.1481,-4.1313,-4.092,-4.0368,-4.0221,-3.9039,-3.684,0.0,0.0,0.0,0.0,0.0,0.0,0.0,0.0,0.0,0.0,0.0,0.0,0.0,0.0,0.0,0.0,0.0,0.0,0.0,0.0,0.0,0.0,0.0,0.0,0.0,-3.6388,0.0,0.0,0.0,0.0,0.0,0.0,0.0,0.0,0.0,0.0,0.0,-4.6284,-4.882,-4.9612,-5.0446,-5.1804,-5.1129,-5.0733,0.0,0.0,0.0,0.0,0.0,0.0,0.0,0.0,0.0,0.0,0.0,0.0,0.0,0.0,-4.1712,-4.0742,-3.9437,-3.8446,-3.8178,0.0,0.0,0.0,0.0,0.0,0.0,0.0,0.0,0.0,0.0,0.0,0.0,0.0,0.0,-4.3342,0.0,-4.0896,0.0,0.0,0.0,0.0,0.0,0.0,0.0,0.0,-4.1411,-4.1593,-4.0398,-4.1354,-4.1109,0.0,-3.9795,-3.8988,0.0,0.0,0.0,0.0,0.0,0.0,0.0,0.0,-3.6381,-3.8669,-3.926,-3.9944,-4.0863,-4.0643,-4.0397,-4.0121,-3.9834,-3.8903,-3.7212,-3.5291,-3.3419,0.0,0.0,0.0,0.0,0.0,0.0,0.0,0.0,0.0,0.0,0.0,0.0,0.0,0.0,0.0,0.0,0.0,0.0,0.0,0.0,0.0,0.0,0.0,-3.7937,0.0,0.0,0.0,0.0,0.0,0.0,0.0,0.0,0.0,-4.4928,-4.6073,-4.7559,-4.9543,-5.0944,-5.1435,-5.057,0.0,0.0,0.0,0.0,0.0,0.0,0.0,-4.7301,-4.6438,-4.4747,-4.3458,-4.3464,-4.0953,-3.9714,-4.2257,0.0,0.0,-4.1632,-4.0634,-3.9849,-3.9849,-3.949,-3.9169,-3.9062,-3.8901,-3.8736,0.0,0.0,0.0,0.0,0.0,0.0,0.0,0.0,-4.4227,-4.3904,0.0,-4.1869,0.0,0.0,0.0,0.0,0.0,-4.0358,0.0,0.0,-4.2116,-4.2135,-4.0273,-4.0899,-4.0849,-4.0189,-4.0832,-4.0409,-3.8937,-3.6823,0.0,0.0,0.0,0.0,0.0,0.0,-3.6653,-3.8227,-3.9022,-3.9884,-4.0735,-4.013,-3.9886,-4.007,-3.9411,-3.87,-3.7956,-3.6471,-3.4481,-3.1871,-3.1589,0.0,0.0,0.0,0.0,0.0,0.0,0.0,0.0,0.0,0.0,0.0,0.0,0.0,0.0,0.0,0.0,0.0,0.0,0.0,0.0,-3.8421,0.0,0.0,0.0,0.0,0.0,0.0,0.0,0.0,0.0,0.0,-4.7234,-4.6861,-4.7689,-5.1205,0.0,0.0,0.0,0.0,-4.8761,-4.8088,-4.8558,-4.8796,-4.8115,-4.8528,-4.7868,-4.4747,0.0,0.0,-4.5737,-4.5232,-4.4319,-4.1986,-4.1498,-4.2179,-4.4571,-4.3352,-4.2179,-4.2209,-4.1175,-4.0427,-4.0367,-3.9873,-3.9439,-4.7632,0.0,0.0,0.0,0.0,-4.6218,-4.6785,-4.7264,-4.7351,-4.5835,-4.3333,-4.2915,0.0,0.0,0.0,0.0,0.0,0.0,-3.985,-4.0014,-4.1256,-4.1478,-4.0916,-4.1639,-4.1589,-4.0916,-4.1101,-4.0713,-3.9749,-3.8599,-3.7094,-3.5318,0.0,0.0,0.0,0.0,-3.6345,-3.7694,-3.8146,-3.8768,-3.9535,-3.933,-3.9506,-4.007,-3.9884,-3.9428,-3.87,-3.6798,-3.5195,-3.3825,-3.1492,0.0,0.0,0.0,0.0,0.0,0.0,0.0,0.0,0.0,0.0,0.0,0.0,0.0,0.0,0.0,0.0,0.0,0.0,0.0,-3.7453,-3.9177,-3.9901,0.0,0.0,0.0,0.0,0.0,0.0,0.0,0.0,0.0,-4.7621,-4.8031,-4.8608,0.0,0.0,-4.8753,-4.8046,-4.8568,-4.8927,-4.8714,-4.8843,0.0,0.0,-4.8443,-4.7755,-4.6534,-4.6182,-4.5568,-4.4142,-4.4633,-4.4795,-4.3089,-4.2025,-4.1644,-4.2219,-4.1683,-4.116,-4.1459,-4.098,-4.0576,-4.095,-4.0576,-3.9948,-5.0168,-4.7819,-4.6984,-4.6844,-4.7275,-4.782,-4.817,-4.8275,-4.8275,-4.6952,-4.4688,-4.3809,-4.2016,-3.9597,-3.8717,0.0,0.0,0.0,-3.9665,-4.0172,-4.0849,-4.1052,-4.0832,-4.1488,-4.1507,-4.0781,-4.0746,-4.051,-4.007,-3.9343,-3.8311,-3.6992,0.0,0.0,-3.5462,-3.5851,-3.6446,-3.7185,-3.7381,-3.7821,-3.8548,-3.8853,-3.9208,-3.9631,-3.9935,-3.9868,-3.9428,-3.7345,-3.5716,-3.4759,-3.1942,-2.9872,0.0,0.0,0.0,0.0,0.0,0.0,0.0,0.0,0.0,0.0,0.0,-2.492,-2.4822,0.0,0.0,0.0,-3.2719,-3.6919,-3.9832,-4.0341,0.0,0.0,0.0,0.0,0.0,0.0,0.0,-4.2252,-4.4041,-4.5612,-4.6515,-4.7988,-4.9246,-4.9763,-4.9368,-4.8585,-4.7393,0.0,-4.8054,-4.7817,-4.7774,-4.7926,-4.8335,-4.7558,-4.6891,-4.6827,-4.4725,-4.2877,-4.1977,-4.2443,-4.2649,-4.185,-4.0591,-3.9728,-4.0099,-3.9664,-3.9619,-4.0726,-4.0681,-4.0487,-4.0606,-4.0068,-3.9469,-5.1775,-5.1007,-4.9569,-4.8852,-4.8758,-4.9382,-4.8931,-4.7811,-4.7727,-4.7283,-4.6363,-4.4333,-4.2929,-4.1999,-3.9986,0.0,-3.9106,-3.9766,-4.007,-4.0087,-4.0798,-4.0747,-4.0172,-4.0798,-4.0764,-4.0087,-4.0087,-4.0054,-3.9952,-3.9326,-3.8937,-3.8802,-3.821,-3.7212,-3.591,-3.6451,-3.6789,-3.6789,-3.6789,-3.711,-3.7804,-3.8582,-3.8988,-3.9005,-3.9631,-3.9986,-3.9952,-3.7869,-3.6118,-3.49,-3.2746,-3.0394,-2.801,0.0,0.0,0.0,0.0,0.0,0.0,0.0,0.0,0.0,0.0,0.0,0.0,0.0,0.0,0.0,-3.5152,0.0,-4.1988,-4.1597,0.0,0.0,0.0,-4.1847,-4.0527,-4.2047,-4.2976,-4.2371,0.0,0.0,-4.4519,-4.7033,-4.9274,-5.0478,-4.9494,-4.8167,-4.6969,-4.6835,-4.6566,-4.636,-4.6068,-4.6338,-4.698,-4.6068,-4.5358,-4.5763,-4.3349,-4.086,-3.9801,-3.9417,-3.9358,-3.9106,-3.7809,-3.7157,-3.8142,-3.7898,-3.7973,-3.9694,-4.0053,-3.9918,-3.9379,-3.8781,-3.8347,-5.1031,-5.0413,-5.1092,-5.1031,-5.0485,-4.9938,-4.9621,-4.9333,-4.8259,-4.6441,-4.4181,-4.3639,-4.2371,-4.0578,-4.0054,-3.9817,-3.9834,-4.0053,-4.0087,-4.0087,-4.0257,-4.024,-4.0087,-4.0273,-4.0257,-4.0087,-4.0087,-3.98,-3.9259,-3.9073,-3.8413,-3.7381,-3.7702,-3.7719,-3.7364,-3.6975,-3.6789,-3.6789,-3.6789,-3.6874,-3.7077,-3.8328,-3.8988,-3.8988,-3.9174,-3.9259,-3.9225,-3.7136,-3.5794,-3.5447,-3.2918,-3.1221,-3.061,-2.8056,0.0,0.0,0.0,0.0,0.0,0.0,0.0,0.0,0.0,-3.0093,-2.8443,0.0,-3.1496,0.0,-3.5805,-4.0256,-4.0578,-4.0968,0.0,0.0,-4.2608,-4.3014,-4.2675,-4.3579,-4.3769,-4.2439,-4.301,-4.3495,-4.369,-4.5823,-4.7033,-4.6283,-4.5882,-4.5925,-4.6599,-4.6439,-4.6464,-4.685,-4.6259,-4.5686,-4.5166,-4.3911,-4.3267,-4.4446,-4.1588,-3.9227,-3.9403,-3.8877,-3.7978,-3.6807,-3.6714,-3.6852,-3.7139,-3.7306,-3.7345,-3.7464,-3.7793,-3.8078,-3.7913,-3.7749,-3.7509,-5.0574,-4.9735,-5.0771,-5.0608,-4.9662,-5.0145,-4.9984,-4.9369,-4.7945,-4.602,-4.3876,-4.2861,-4.1559,-4.0104,-4.0087,-4.0087,-4.0087,-4.0087,-4.0087,-4.0087,-4.0087,-4.0087,-4.0087,-4.0087,-3.9901,-3.9597,-3.9597,-3.9225,-3.8514,-3.8176,-3.7753,-3.728,-3.7026,-3.7229,-3.7855,-3.7161,-3.6789,-3.6789,-3.6451,-3.6434,-3.6789,-3.7584,-3.8176,-3.8481,-3.8514,-3.8345,-3.8007,-3.6494,-3.5396,-3.4756,-3.382,-3.2419,-3.0474,-2.9167,-2.809,0.0,0.0,0.0,0.0,0.0,0.0,0.0,0.0,0.0,0.0,0.0,-3.2429,-3.1474,-3.6039,-3.9334,-4.0043,-4.0481,-4.1006,-4.1726,-4.2489,-4.2777,-4.2455,-4.3328,-4.3481,-4.2458,-4.2402,-4.2551,-4.2912,-4.399,-4.4439,-4.341,-4.2875,-4.3193,-4.4761,-4.4987,-4.5179,-4.5988,-4.506,-4.3749,-4.2676,-4.1687,-4.104,-4.0949,-3.9367,-3.7928,-3.7724,-3.7563,-3.6971,-3.5843,-3.5918,-3.6239,-3.6239,-3.6395,-3.6417,-3.6222,-3.6312,-3.6537,-3.6552,-3.6567,-3.6432,-5.0079,-4.8911,-4.9464,-4.8924,-4.775,-4.9572,-4.9591,-4.8264,-4.6812,-4.54,-4.4012,-4.1965,-4.0696,-4.0087,-4.0087,-4.0087,-4.0087,-4.0087,-4.0087,-4.0087,-4.0087,-4.0087,-4.0087,-4.0087,-3.9698,-3.9022,-3.8988,-3.8565,-3.7753,-3.7094,-3.7077,-3.7533,-3.6282,-3.6332,-3.7669,-3.7009,-3.6637,-3.662,-3.6045,-3.6096,-3.6772,-3.6874,-3.7246,-3.7855,-3.7719,-3.7313,-3.6654,-3.5893,-3.4918,-3.3808,-3.4693,-3.3411,-2.9524,-2.9387,-2.9335,0.0,-2.8719,0.0,0.0,0.0,0.0,0.0,0.0,0.0,0.0,-3.227,-3.2916,-3.3697,-3.6059,-3.8101,-3.9565,-3.9818,-4.0211,-4.0872,-4.1547,-4.1732,-4.1177,-4.2179,-4.2743,-4.2112,-4.1634,-4.1586,-4.1948,-4.1999,-4.1844,-4.1504,-4.0838,-4.109,-4.2479,-4.3267,-4.3749,-4.4252,-4.2986,-4.1603,-4.0342,-3.9794,-3.9155,-3.7852,-3.7196,-3.6716,-3.5819,-3.5867,-3.5932,-3.5606,-3.5344,-3.525,-3.525,-3.525,-3.5235,-3.5205,-3.522,-3.5325,-3.5519,-3.5504,-3.5385,-4.8853,-4.8132,-4.8196,-4.7659,-4.6793,-4.6688,-4.646,-4.6098,-4.4026,-4.2666,-4.1779,-4.0747,-4.0206,-4.0087,-4.0087,-4.0087,-4.0087,-4.0087,-4.0087,-4.0087,-4.0087,-4.0087,-4.0087,-4.0087,-3.9698,-3.9022,-3.8988,-3.8294,-3.6992,-3.6903,-3.6535,-3.6045,-3.5757,-3.6096,-3.6907,0.0,0.0,0.0,-3.6332,-3.6637,-3.6789,-3.7381,-3.7753,-3.7872,-3.6705,0.0,-3.5825,-3.5115,-3.4604,-3.4348,-3.3698,0.0,0.0,0.0,0.0,0.0,0.0,0.0,0.0,0.0,0.0,0.0,-3.3436,-3.2972,-3.3106,-3.3253,-3.3829,-3.5019,-3.5599,-3.6372,-3.7492,-3.8509,-3.9198,-3.9331,-3.9972,-4.0404,-4.0307,-4.1543,-4.1988,-4.0685,-4.0429,-4.0394,-4.0492,-4.0544,-4.0493,-4.0408,-4.0223,-4.0527,-4.1371,-4.239,-4.2988,-4.2737,-4.1425,-4.0184,-3.9265,-3.8553,-3.8054,-3.7577,-3.6113,-3.525,-3.5249,-3.4614,-3.4568,-3.5142,-3.4613,-3.3903,-3.3888,-3.3873,-3.3963,-3.3888,-3.3903,-3.4203,-3.5235,-3.5055,-3.4681,-4.7425,0.0,-4.6749,-4.6079,0.0,-4.4266,-4.3734,-4.3391,-4.2598,-4.188,-4.1153,-4.0409,-4.0087,-4.0087,-4.0087,-4.0087,-4.0087,-4.0087,-4.0087,-4.0087,-4.0087,-4.0087,-4.0087,-4.0087,-3.9647,-3.8831,-3.858,-3.7686,-3.6265,-3.6214,-3.5994,-3.5639,-3.5639,-3.5825,-3.618,-3.5825,-3.5639,-3.5639,-3.6011,-3.6197,-3.6231,-3.6569,-3.6772,-3.6755,0.0,0.0,0.0,0.0,0.0,0.0,0.0,0.0,0.0,0.0,0.0,-2.9732,-2.9894,-3.0436,-3.1377,-3.1467,-3.2108,-3.341,-3.3799,-3.3978,-3.3963,-3.4286,-3.4801,-3.5437,-3.5468,-3.5675,-3.6238,-3.7163,-3.7903,-3.8291,-3.8713,-3.8905,-3.9028,-3.9806,-4.0024,-3.9162,-3.877,-3.8728,-3.8941,-3.9692,-3.9882,-3.9575,-3.9833,-4.0054,-4.0172,-4.0968,-4.1391,-4.0687,-3.9542,-3.8338,-3.7447,-3.6731,-3.642,-3.6321,-3.5155,-3.3976,-3.3558,-3.3689,-3.3862,-3.3692,-3.327,-3.3047,-3.264,-3.3032,-3.3499,-3.3499,-3.3499,-3.3664,-3.4397,-3.4233,-3.3978,-4.6343,-4.5686,-4.5415,-4.4587,-4.3352,-4.2489,-4.1677,-4.1052,0.0,0.0,0.0,-4.0358,-4.0087,-4.0087,-4.0087,-4.0087,-4.0087,-4.0087,-4.0087,-4.0087,-4.0087,-4.0087,-4.0087,-3.9935,-3.9393,-3.8489,-3.797,-3.6992,-3.5673,-3.5639,-3.5639,-3.5622,-3.5504,-3.5368,-3.5233,-3.5233,-3.5301,-3.5436,-3.569,-3.5825,-3.5842,-3.5825,-3.5825,-3.5842,-3.5436,-3.4928,-3.432,-3.4303,-3.4001,-3.3359,-3.3159,-3.2608,-3.1652,-3.1428,-3.1056,-3.0554,-3.0818,-3.1108,-3.1495,-3.1467,-3.1869,-3.2632,-3.3679,-3.4352,-3.4457,-3.51,-3.5489,-3.5489,-3.5489,-3.5443,-3.5308,-3.5845,-3.6443,-3.699,-3.7049,-3.7033,-3.7081,-3.7669,-3.7871,-3.7361,-3.7052,-3.7054,-3.7455,-3.8428,-3.9093,-3.8649,-3.902,-3.9479,-3.8939,-3.936,-3.9682,-3.8935,-3.7895,-3.6685,-3.5875,-3.5225,-3.4824,-3.4927,-3.3924,-3.2779,-3.2073,-3.2599,-3.281,-3.197,-3.2119,-3.2226,-3.1718,-3.2346,-3.3125,-3.3155,-3.3036,-3.3021,-3.311,-3.3051,-3.3006,-4.6289,-4.5585,-4.4299,-4.3606,-4.3318,-4.1948,-4.0933,-4.0257,-4.0358,-4.0324,-4.024,-4.0121,-4.0087,-4.0087,-4.0087,-4.0087,-4.0087,-4.0087,-4.0087,0.0,-4.0087,-4.0087,-4.0037,-3.9445,-3.8734,-3.7973,-3.7263,-3.6485,-3.5707,-3.5605,-3.5639,-3.5537,-3.4979,-3.4353,-3.3761,-3.3711,-3.4032,-3.4641,-3.5943,-3.662,-3.662,-3.662,-3.662,-3.6535,-3.4726,-3.3677,-3.3558,-3.3575,-3.3212,-3.2562,-3.364,-3.3401,-3.1581,-3.0956,-3.0635,-3.0464,-2.9569,-2.9759,-3.1332,-3.1467,-3.2063,-3.3215,-3.3544,-3.3873,-3.4442,-3.51,-3.5489,-3.5489,-3.5444,-3.519,-3.4535,-3.4691,-3.4695,-3.4227,-3.4122,-3.4122,-3.4258,-3.5248,-3.5784,-3.5319,-3.5627,-3.5902,-3.6079,-3.6281,-3.6459,-3.6443,-3.7423,-3.8003,-3.7631,-3.8193,-3.8529,-3.7999,-3.6887,-3.6043,-3.5435,-3.508,-3.4186,-3.3305,-3.2437,-3.1797,-3.1436,-3.1279,-3.1275,-3.1442,-3.1604,-3.1529,-3.144,-3.1588,-3.175,-3.1779,-3.145,-3.1225,-3.1689,-3.145,-3.139,-4.4494,-4.3792,-4.3098,-4.2574,-4.2134,-4.1052,-4.0392,-4.0121,-4.04,-4.0385,-4.0121,-4.0087,-4.0087,-4.0121,-4.0417,-4.0385,-4.0121,-4.0417,-4.0368,-4.0121,-4.0087,-3.9868,-3.9478,-3.914,-3.8159,-3.6721,-3.6332,-3.5408,-3.4182,-3.4276,-3.4421,-3.4404,-3.4066,-3.3728,-3.3423,-3.3389,-3.3575,-3.3914,-3.459,-3.5131,-3.552,-3.5148,-3.4945,-3.4945,-3.3897,-3.3389,-3.3389,-3.3389,-3.3254,-3.2899,-3.3192,-3.2934,-3.2006,-3.1334,-3.0813,-3.051,-2.9971,-2.9849,-3.0402,-3.0477,-3.0731,-3.133,-3.1689,-3.2003,-3.2302,-3.4302,-3.5501,-3.5485,-3.4871,-3.4277,-3.3841,-3.3918,-3.3814,-3.3529,-3.3499,-3.3499,-3.3529,-3.3739,-3.4014,-3.3985,-3.3622,-3.3739,-3.4454,-3.457,-3.4786,-3.5197,-3.6113,-3.639,-3.576,-3.6384,-3.6901,-3.6602,-3.5573,-3.4558,-3.4026,-3.3054,-3.2425,-3.205,-3.1482,-3.1006,-3.0851,-3.0678,-3.1024,-3.1291,-3.0956,-3.0488,-3.0466,-3.0477,-3.0477,-3.0447,-3.0268,-3.0193,-3.0372,-3.0432,-3.0731,-4.3107,-4.2286,-4.21,-4.1627,-4.0916,-4.0324,-4.0154,-4.0269,-4.0577,-4.0625,-4.0514,-4.0466,-4.0466,-4.0497,-4.0747,-4.0585,-4.0288,-4.0319,-4.0139,-3.9793,-3.9662,-3.9292,-3.8768,-3.8582,-3.7483,-3.5757,-3.5453,-3.4496,-3.3043,-3.3229,-3.3322,-3.3169,-3.3152,-3.3085,-3.2916,-3.2899,-3.2983,-3.3136,-3.2983,-3.3339,-3.4184,-3.3694,-3.3389,-3.3389,-3.322,-3.3152,-3.3152,-3.3136,-3.3068,-3.2949,-3.2717,-3.247,-3.2155,-3.1651,-3.1118,-3.0545,-3.037,-3.0068,-2.963,-2.9462,-2.943,-2.9579,-3.0013,-3.0298,-3.0533,-3.2533,-3.4226,-3.4379,-3.3623,-3.287,-3.2482,-3.2646,-3.2766,-3.2647,-3.2751,-3.2706,-3.2781,-3.2631,-3.2541,-3.2676,-3.1916,-3.1723,-3.2391,-3.2703,-3.294,-3.3552,-3.4217,-3.4249,-3.3893,-3.4463,-3.4922,-3.4438,-3.3746,-3.3019,-3.2179,-3.1159,-3.0773,-3.118,-3.0597,-3.0242,-3.0242,-3.0618,-3.0985,-3.1089,-3.0318,-2.9485,-2.9213,-2.948,-2.9639,-2.9714,-2.9535,-2.937,-2.9415,-3.0043,-3.0357,-4.346,-4.2289,-4.1559,-4.0865,-4.0223,-4.0121,-4.0368,-4.0703,-4.0368,-4.0767,-4.1552,-4.1639,-4.1603,-4.1533,-4.0916,-4.0591,-4.0375,-3.9347,-3.8805,-3.8705,-3.8295,-3.8058,-3.7922,-3.733,-3.6518,-3.5537,-3.4895,-3.4134,-3.3195,-3.3288,-3.3051,-3.2459,-3.2391,-3.211,-3.1512,-3.1444,-3.1732,-3.2398,-3.1732,-3.207,-3.3406,-3.344,-3.3389,-3.3389,-3.273,-3.2374,-3.2341,-3.2391,-3.207,-3.1579,-3.2546,-3.2664,-3.151,-3.1357,-3.1075,-3.0401,-2.9812,-2.9501,-2.9435,-2.9031,-2.8906,-2.952,-2.9535,-2.9609,-2.9609,-2.9575,-3.0216,-3.1405,-3.1734,-3.1053,-2.966,-3.0297,-3.0717,-3.0372,-3.0642,-3.0776,-3.0926,-3.1258,-3.1392,-3.0821,-3.072,-3.0507,-3.0353,-3.0313,-3.0487,-3.1316,-3.1596,-3.1763,-3.2079,-3.2821,-3.2756,-3.1719,-3.1379,-3.1467,-3.0867,-3.019,-2.9978,-3.0357,-2.9624,-2.946,-2.9764,-2.9193,-2.8606,-3.0281,-2.9982,-2.8764,-2.8434,-2.8665,-2.9475,-2.925,-2.8981,-2.8682,-2.8816,-2.9549,-3.0058,-4.1938,-4.0967,-4.0663,-4.0375,-4.0155,-4.0087,-4.0204,-4.0466,-4.0938,-4.1375,-4.1782,-4.1998,-4.1568,-4.0613,-4.0574,-4.0204,-3.945,-3.9221,-3.8936,-3.8563,-3.8138,-3.7432,-3.6603,-3.6755,-3.5723,-3.3812,-3.3778,-3.3237,-3.2273,-3.2104,-3.1935,-3.1664,-3.163,-3.1495,-3.1207,-3.119,-3.1343,-3.1613,-3.1343,-3.1495,-3.2019,-3.2104,-3.2104,-3.207,-3.1782,-3.141,-3.1038,-3.1004,-3.0649,-2.9989,-3.048,-3.0514,-2.9939,-2.9642,-2.9371,-2.9053,-2.8513,-2.7922,-2.7248,-2.7319,-2.753,-2.7814,-2.7799,-2.7964,-2.8338,-2.8241,-2.848,-2.9062,-2.965,-2.9603,-2.9064,-2.955,-2.9834,-2.9654,-2.9819,-2.9953,-2.9968,-3.0208,-3.0238,-2.9998,-2.9953,-2.9879,-2.9654,-2.9594,-2.9925,-3.0423,-3.0596,-3.0635,-3.0998,-3.1688,-3.1278,-2.9879,-2.9342,-2.9509,-2.975,-2.9456,-2.9409,-2.9669,-2.9564,-2.949,-2.9092,-2.8547,-2.808,-2.9169,-2.8644,-2.8136,-2.775,-2.7891,-2.8434,-2.8382,-2.8323,-2.7993,-2.7979,-2.8727,-2.9011,-4.1067,-4.0172,-4.0087,-4.0087,-4.0087,-4.0087,-4.0303,-4.0559,-4.1059,-4.1407,-4.1693,-4.1447,-4.0521,-3.9434,-4.0063,-3.9846,-3.9053,-3.9022,-3.8775,-3.8164,-3.7511,-3.6548,-3.5419,-3.5622,-3.4607,-3.2696,-3.2831,-3.2459,-3.1309,-3.119,-3.119,-3.119,-3.119,-3.119,-3.119,-3.119,-3.119,-3.1173,-3.1021,-3.0886,-3.0903,-3.0886,-3.0886,-3.0903,-3.0903,-3.0548,-2.9854,-2.9989,-2.9753,-2.9079,-2.9011,-2.9011,-2.8975,-2.8628,-2.8345,-2.805,-2.7343,-2.6688,-2.6062,-2.6389,-2.6684,-2.6766,-2.6669,-2.6856,-2.7445,-2.741,-2.7445,-2.7745,-2.8189,-2.8583,-2.8598,-2.8868,-2.9026,-2.9041,-2.916,-2.9295,-2.9325,-2.931,-2.934,-2.931,-2.9101,-2.9026,-2.9011,-2.9019,-2.9169,-2.9536,-2.9704,-2.9766,-2.9797,-3.0103,-2.9874,-2.8531,-2.7914,-2.8077,-2.8846,-2.8689,-2.8652,-2.8996,-2.9116,-2.8771,-2.8562,-2.806,-2.7636,-2.8291,-2.7794,-2.7587,-2.7586,-2.7649,-2.7634,-2.759,-2.759,-2.7604,-2.7649,-2.8188,-2.8248,-4.1847,-4.0205,-4.0087,-4.0087,-4.007,-4.0121,-4.0672,-4.1341,-4.0446,-4.0468,-4.1148,-3.9723,-3.8434,-3.7952,-3.93,-3.9859,-3.9597,-3.852,-3.7757,-3.7185,-3.6028,-3.5118,-3.4549,-3.388,-3.3119,-3.2256,-3.2357,-3.2002,-3.1224,-3.119,-3.119,-3.119,-3.119,-3.119,-3.119,-3.119,-3.119,-3.1055,-3.0548,-3.0176,-3.0142,-3.0142,-3.0108,-3.0074,-3.0176,-2.9837,-2.9194,-2.9719,-2.9702,-2.9011,-2.8909,-2.8943,-2.8941,-2.887,-2.8619,-2.8014,-2.6626,-2.6183,-2.6871,-2.6704,-2.6753,-2.7148,-2.6831,-2.6871,-2.744,-2.7126,-2.7051,-2.758,-2.7694,-2.7754,-2.7754,-2.7874,-2.7895,-2.7844,-2.8293,-2.8592,-2.8652,-2.8637,-2.8637,-2.8562,-2.8173,-2.7934,-2.782,-2.7715,-2.785,-2.7951,-2.7825,-2.7921,-2.8062,-2.7966,-2.79,-2.787,-2.7649,-2.7619,-2.773,-2.788,-2.8068,-2.8382,-2.8427,-2.7993,-2.8113,-2.8128,-2.7829,-2.759,-2.7584,-2.7584,-2.759,-2.7575,-2.759,-2.7524,-2.7458,-2.7458,-2.756,-2.8143,-2.8188,-4.0754,-4.0087,-4.0087,-4.0087,-4.0121,-4.0449,-4.0397,-4.0089,-4.0581,-4.0544,-4.0167,-3.9623,-3.9284,-3.9048,-3.8574,-3.8296,-3.8097,-3.7446,-3.6896,-3.6323,-3.5109,-3.4043,-3.3143,-3.3254,-3.273,-3.1782,-3.2093,-3.1901,-3.1258,-3.119,-3.119,-3.119,-3.119,-3.119,-3.119,-3.119,-3.0987,-3.0514,-3.0226,-2.9871,-2.9364,-2.8907,-2.8653,-2.8668,-2.9617,-2.9533,-2.8264,-2.8518,-2.8298,-2.7554,-2.752,-2.752,-2.752,-2.752,-2.7153,-2.6389,-2.6097,-2.5994,-2.5957,-2.5952,-2.618,-2.6688,-2.6682,-2.6905,-2.743,-2.7415,-2.737,-2.7565,-2.756,-2.756,-2.756,-2.756,-2.756,-2.7604,-2.7784,-2.7979,-2.7949,-2.7985,-2.8,-2.7904,-2.7694,-2.7575,-2.756,-2.756,-2.756,-2.756,-2.756,-2.756,-2.756,-2.756,-2.756,-2.756,-2.756,-2.756,-2.7575,-2.759,-2.7709,-2.8,-2.8075,-2.8045,-2.8105,-2.8359,-2.821,-2.7658,-2.7569,-2.7509,-2.7458,-2.6982,-2.7086,-2.7306,-2.724,-2.7255,-2.7509,-2.7713,-2.7786,-4.0087,-4.0087,-4.0087,-4.0087,-4.0087,-4.024,-3.9989,-3.9566,-4.0134,-4.0012,-3.9439,-3.9293,-3.9185,-3.8867,-3.7781,-3.716,-3.7024,-3.6739,-3.6327,-3.574,-3.4547,-3.345,-3.2696,-3.2625,-3.2171,-3.1393,-3.1681,-3.1664,-3.1241,-3.119,-3.1055,-3.0852,-3.0835,-3.0717,-3.0531,-3.048,-3.0209,-2.9786,-2.9516,-2.9093,-2.8586,-2.8112,-2.7689,-2.7672,-2.8704,-2.8789,-2.752,-2.7689,-2.7486,-2.681,-2.6708,-2.6624,-2.6505,-2.647,-2.6087,-2.5346,-2.5449,-2.5513,-2.5234,-2.5247,-2.5515,-2.5995,-2.6197,-2.6557,-2.7156,-2.731,-2.74,-2.7535,-2.756,-2.7515,-2.7305,-2.741,-2.756,-2.756,-2.756,-2.756,-2.756,-2.7575,-2.759,-2.7604,-2.759,-2.756,-2.756,-2.756,-2.756,-2.756,-2.756,-2.756,-2.756,-2.756,-2.7455,-2.737,-2.744,-2.7395,-2.735,-2.732,-2.755,-2.779,-2.791,-2.794,-2.8015,-2.8366,-2.8323,-2.7786,-2.7512,-2.7437,-2.7137,-2.6602,-2.6602,-2.6864,-2.6878,-2.6774,-2.693,-2.7034,-2.6836,-4.0087,-4.0087,-4.0087,-4.0037,-3.9952,-3.9506,-3.9681,-3.9979,-3.9067,-3.8865,-3.8905,-3.8359,-3.7967,-3.7345,-3.6973,-3.6684,-3.6552,-3.6213,-3.5824,-3.5277,-3.4159,-3.3336,-3.2731,-3.1905,-3.1455,-3.1252,-3.1247,-3.1247,-3.1106,-3.1055,-3.0768,-3.0209,-3.0108,-2.9803,-2.9059,-2.9194,-2.9113,-2.8873,-2.8366,-2.7908,-2.7789,-2.7705,-2.7418,-2.6928,-2.752,-2.7571,-2.6776,-2.7385,-2.7402,-2.681,-2.6708,-2.6487,-2.6191,-2.612,-2.5799,-2.5373,-2.4823,-2.4768,-2.5162,-2.4875,-2.4942,-2.5444,-2.5591,-2.5974,-2.6561,-2.6602,-2.6876,-2.745,-2.743,-2.7186,-2.6613,-2.6927,-2.735,-2.753,-2.744,-2.761,-2.75,-2.753,-2.758,-2.749,-2.7395,-2.758,-2.7595,-2.761,-2.756,-2.756,-2.756,-2.756,-2.7515,-2.7425,-2.72,-2.6916,-2.6856,-2.6792,-2.6946,-2.7066,-2.737,-2.758,-2.7655,-2.77,-2.773,-2.794,-2.7995,-2.7558,-2.7033,-2.6907,-2.6481,-2.5946,-2.5673,-2.5877,-2.6014,-2.6034,-2.5973,-2.5897,-2.555,-4.0087,-4.0087,-4.0087,-3.9783,-3.9474,-3.9887,-3.9565,-3.8618,-3.9049,-3.9005,-3.8393,-3.8409,-3.8041,-3.7339,-3.6723,-3.6097,-3.5495,-3.4879,-3.4454,-3.4145,-3.3293,-3.2512,-3.1891,-3.1685,-3.1585,-3.1603,-3.1585,-3.1196,-3.0607,-3.0446,-3.0057,-2.9465,-2.933,-2.9228,-2.8941,-2.8994,-2.8772,-2.8213,-2.796,-2.7588,-2.7114,-2.7063,-2.6928,-2.6759,-2.6928,-2.6928,-2.6742,-2.6928,-2.6928,-2.6691,-2.6708,-2.6624,-2.6521,-2.647,-2.6401,-2.6175,-2.5395,-2.5182,-2.5546,-2.5051,-2.4806,-2.528,-2.5516,-2.5843,-2.6251,-2.6081,-2.6402,-2.7263,-2.6814,-2.6078,-2.5926,-2.6001,-2.6258,-2.6228,-2.7006,-2.737,-2.6961,-2.6901,-2.6677,-2.6363,-2.6602,-2.6841,-2.6991,-2.72,-2.7565,-2.756,-2.756,-2.756,-2.747,-2.6812,-2.65,-2.6523,-2.6325,-2.6072,-2.612,-2.6351,-2.6699,-2.7139,-2.7429,-2.725,-2.7325,-2.758,-2.7571,-2.6745,-2.6313,-2.5994,-2.5548,-2.5191,-2.4762,-2.4679,-2.4751,-2.4791,-2.4789,-2.4581,-2.4332,-3.9725,-3.9308,-3.9452,-3.9293,-3.8892,-3.9536,-3.9123,-3.8153,-3.8506,-3.8336,-3.7863,-3.776,-3.7551,-3.6945,-3.6193,-3.555,-3.4935,-3.4174,-3.3556,-3.3144,-3.2973,-3.2276,-3.1498,-3.1203,-3.1359,-3.1464,-3.1133,-3.0747,-3.0338,-2.9881,-2.9296,-2.867,-2.8552,-2.8383,-2.8163,-2.8129,-2.7841,-2.7452,-2.7385,-2.7182,-2.681,-2.6708,-2.6708,-2.6708,-2.6708,-2.6708,-2.6674,-2.6454,-2.642,-2.6623,-2.6708,-2.659,-2.6369,-2.6368,-2.6298,-2.5881,-2.5384,-2.5067,-2.5269,-2.4625,-2.4371,-2.4724,-2.5017,-2.5332,-2.5634,-2.5526,-2.6072,-2.6517,-2.6118,-2.5403,-2.5012,-2.5388,-2.5375,-2.4896,-2.6019,-2.6572,-2.6273,-2.6213,-2.6093,-2.5854,-2.6004,-2.6288,-2.6632,-2.6856,-2.737,-2.752,-2.756,-2.7365,-2.7076,-2.6253,-2.605,-2.583,-2.5548,-2.5386,-2.5284,-2.5571,-2.598,-2.6572,-2.7167,-2.6901,-2.6759,-2.7274,-2.7425,-2.501,-2.3902,-2.4041,-2.3756,-2.3451,-2.3102,-2.327,-2.3548,-2.3417,-2.3393,-2.3486,-2.3243,-3.9066,-3.8095,-3.8391,-3.8614,-3.8556,-3.8427,-3.8475,-3.8582,-3.7444,-3.7148,-3.7296,-3.6835,-3.6358,-3.6064,-3.5459,-3.5009,-3.477,-3.4009,-3.3223,-3.2705,-3.2636,-3.2439,-3.1685,-3.084,-3.0769,-3.1055,-3.0307,-3.0055,-3.0265,-2.9451,-2.8554,-2.7911,-2.7775,-2.7452,-2.7046,-2.6742,-2.686,-2.6826,-2.6776,-2.6742,-2.6708,-2.6708,-2.664,-2.659,-2.6556,-2.6556,-2.6454,-2.6015,-2.5981,-2.6522,-2.6623,-2.6471,-2.5988,-2.5931,-2.579,-2.5013,-2.4555,-2.4536,-2.4389,-2.4024,-2.3728,-2.3803,-2.4252,-2.4537,-2.4642,-2.5001,-2.5255,-2.5468,-2.533,-2.4924,-2.4192,-2.4609,-2.4716,-2.4044,-2.4926,-2.5555,-2.5585,-2.557,-2.5435,-2.542,-2.551,-2.5734,-2.6258,-2.6486,-2.689,-2.7285,-2.7465,-2.721,-2.6292,-2.5631,-2.5216,-2.501,-2.4863,-2.4671,-2.4597,-2.4702,-2.5077,-2.5303,-2.5938,-2.5858,-2.5664,-2.6105,-2.6144,-2.3699,-2.2154,-2.2202,-2.2247,-2.215,-2.202,-2.2176,-2.2185,-2.2047,-2.2029,-2.2154,-2.2049,-3.9124,-3.8946,-3.8334,-3.8215,-3.8316,-3.793,-3.7874,-3.8059,-3.7138,-3.6926,-3.7198,-3.6652,-3.5881,-3.5367,-3.5082,-3.4706,-3.4045,-3.3293,-3.323,-3.314,-3.2208,-3.1638,-3.1181,-3.0805,-3.0693,-3.0825,-3.0457,-3.0112,-2.9435,-2.888,-2.8182,-2.7442,-2.7231,-2.6962,-2.6708,-2.6758,-2.6708,-2.6708,-2.6691,-2.6691,-2.6708,-2.6708,-2.642,-2.593,-2.5913,-2.5896,-2.5896,-2.5727,-2.5659,-2.5896,-2.6437,-2.6641,-2.6421,-2.6352,-2.5857,-2.5005,-2.4856,-2.4792,-2.4389,-2.3906,-2.3638,-2.3595,-2.3804,-2.3864,-2.3864,-2.4029,-2.4133,-2.4118,-2.4118,-2.4029,-2.3732,-2.3955,-2.3909,-2.3804,-2.4388,-2.4926,-2.5032,-2.4987,-2.4717,-2.4283,-2.4612,-2.4956,-2.5285,-2.5858,-2.6341,-2.6597,-2.6952,-2.6892,-2.5545,-2.4796,-2.4323,-2.4447,-2.4358,-2.4059,-2.3924,-2.3999,-2.4059,-2.4073,-2.4253,-2.4282,-2.4069,-2.402,-2.3616,-2.2295,-2.1495,-2.1313,-2.1538,-2.1668,-2.1481,-2.1242,-2.1188,-2.1148,-2.0929,-2.0923,-2.0745,-3.8818,-3.8404,-3.772,-3.7694,-3.8003,-3.7323,-3.7255,-3.7424,-3.6508,-3.6176,-3.6237,-3.5605,-3.4981,-3.4504,-3.4156,-3.377,-3.3238,-3.2467,-3.2173,-3.1953,-3.0901,-3.0472,-3.0402,-3.0285,-3.0212,-3.0458,-3.0017,-2.9601,-2.918,-2.8551,-2.7949,-2.7622,-2.7334,-2.721,-2.7241,-2.721,-2.7083,-2.7004,-2.6939,-2.6906,-2.6725,-2.6708,-2.6302,-2.5778,-2.5592,-2.5406,-2.4864,-2.5253,-2.549,-2.5321,-2.5558,-2.603,-2.6554,-2.5816,-2.5344,-2.4987,-2.4922,-2.4617,-2.4424,-2.4116,-2.3837,-2.3638,-2.3595,-2.3595,-2.361,-2.3595,-2.3595,-2.364,-2.3595,-2.3595,-2.3595,-2.3595,-2.3595,-2.364,-2.3969,-2.4238,-2.4417,-2.4238,-2.4044,-2.3834,-2.3939,-2.4343,-2.4507,-2.5273,-2.5403,-2.5518,-2.6051,-2.5352,-2.425,-2.3785,-2.3568,-2.3763,-2.3881,-2.3688,-2.354,-2.3584,-2.3363,-2.3275,-2.3008,-2.2975,-2.3094,-2.2749,-2.2264,-2.1752,-2.0962,-2.0528,-2.0811,-2.0916,-2.0677,-2.0476,-2.0376,-2.0326,-2.02,-2.0188,-1.9924,-3.8348,-3.7306,-3.6807,-3.7102,-3.7615,-3.6674,-3.6559,-3.6953,-3.5663,-3.5052,-3.4954,-3.4211,-3.3917,-3.3642,-3.3146,-3.2614,-3.243,-3.1641,-3.087,-3.0356,-2.9714,-2.9648,-2.9899,-2.9454,-2.9533,-2.982,-2.8923,-2.9003,-2.9061,-2.8433,-2.8035,-2.7908,-2.788,-2.7869,-2.7736,-2.7765,-2.7589,-2.7303,-2.7115,-2.6971,-2.6758,-2.6674,-2.6319,-2.571,-2.5389,-2.4644,-2.4069,-2.4441,-2.4966,-2.4286,-2.4523,-2.5399,-2.6194,-2.4629,-2.4545,-2.5144,-2.4745,-2.442,-2.4346,-2.4266,-2.4074,-2.3666,-2.3595,-2.3595,-2.3595,-2.3595,-2.3595,-2.3595,-2.3595,-2.3595,-2.3595,-2.3595,-2.3595,-2.361,-2.364,-2.361,-2.3595,-2.3595,-2.3595,-2.3595,-2.361,-2.3924,-2.4328,-2.4627,-2.4563,-2.4043,-2.4341,-2.3511,-2.2994,-2.284,-2.2824,-2.3111,-2.3216,-2.3319,-2.3275,-2.329,-2.2846,-2.2532,-2.2108,-2.2039,-2.2637,-2.2365,-2.1835,-2.1209,-2.0604,-2.0175,-2.0047,-2.0024,-1.9962,-1.9974,-2.0062,-1.9962,-1.9836,-1.9924,-1.9798,-3.842,-3.8245,-3.6719,-3.6658,-3.7221,-3.5813,-3.562,-3.6402,-3.5054,-3.4634,-3.4742,-3.4137,-3.344,-3.2826,-3.2533,-3.2284,-3.1579,-3.0791,-3.0026,-2.942,-2.9843,-2.9567,-2.9379,-2.903,-2.9104,-2.9214,-2.9038,-2.8973,-2.8956,-2.8652,-2.829,-2.829,-2.812,-2.7926,-2.7926,-2.7736,-2.7426,-2.7272,-2.7002,-2.6788,-2.6605,-2.6522,-2.6201,-2.5507,-2.4966,-2.3968,-2.3021,-2.3393,-2.3494,-2.3507,-2.4751,-2.5533,-2.4881,-2.5338,-2.5347,-2.4818,-2.4911,-2.4782,-2.4424,-2.4074,-2.3752,-2.3638,-2.3595,-2.3595,-2.3595,-2.3595,-2.3595,-2.3595,-2.3595,-2.3595,-2.3595,-2.3595,-2.3595,-2.3595,-2.3595,-2.3595,-2.3595,-2.3595,-2.3595,-2.3595,-2.361,-2.367,-2.379,-2.3911,-2.3624,-2.2904,-2.2198,-2.1539,-2.16,-2.181,-2.2094,-2.2417,-2.2329,-2.2376,-2.2331,-2.2271,-2.1985,-2.1648,-2.1246,-2.1097,-2.1636,-2.1828,-2.1171,-2.0749,-2.0296,-2.0003,-1.9798,-1.9811,-1.9874,-1.9823,-1.9798,-1.9798,-1.9798,-1.9798,-1.9798,-3.7443,-3.7418,-3.6059,-3.6046,-3.6582,-3.5077,-3.483,-3.5373,-3.4553,-3.397,-3.3789,-3.3403,-3.2719,-3.18,-3.1565,-3.1089,-3.0556,-2.9936,-2.9415,-2.9122,-2.9434,-2.936,-2.9104,-2.8975,-2.8975,-2.8975,-2.8975,-2.8975,-2.8929,-2.8815,-2.87,-2.8682,-2.8464,-2.8482,-2.843,-2.8103,-2.7733,-2.711,-2.6857,-2.6461,-2.5807,-2.5675,-2.5304,-2.4577,-2.3866,-2.3021,-2.2434,-2.3038,-2.2953,-2.3033,-2.4356,-2.5088,-2.4052,-2.4689,-2.4891,-2.474,-2.4756,-2.484,-2.4371,-2.4142,-2.3864,-2.3595,-2.3595,-2.3595,-2.3595,-2.3595,-2.3595,-2.3595,-2.3595,-2.3595,-2.3595,-2.3595,-2.3595,-2.3595,-2.3595,-2.3595,-2.3595,-2.3595,-2.3595,-2.3595,-2.3595,-2.3421,-2.3349,-2.333,-2.2826,-2.2178,-2.1219,-2.059,-2.0845,-2.1077,-2.1393,-2.1555,-2.1467,-2.1393,-2.1333,-2.1181,-2.0953,-2.061,-2.0311,-2.027,-2.0581,-2.0584,-2.0459,-2.0245,-2.0144,-1.9952,-1.9798,-1.9798,-1.9798,-1.9798,-1.9798,-1.9798,-1.9786,-1.9748,-1.9761,-3.6285,-3.6229,-3.5367,-3.5339,-3.5642,-3.4403,-3.4,-3.422,-3.3899,-3.3175,-3.254,-3.2412,-3.1816,-3.0839,-3.0378,-2.989,-2.9468,-2.9296,-2.9012,-2.903,-2.9049,-2.8962,-2.8778,-2.8705,-2.8705,-2.881,-2.8938,-2.8975,-2.8975,-2.8975,-2.8929,-2.8957,-2.8792,-2.8571,-2.8714,-2.8479,-2.7662,-2.6632,-2.636,-2.5854,-2.487,-2.4659,-2.432,-2.3613,-2.3139,-2.2649,-2.2479,-2.2801,-2.2919,-2.2412,-2.3488,-2.3697,-2.3485,-2.346,-2.3916,-2.451,-2.4634,-2.458,-2.4411,-2.4225,-2.3991,-2.3595,-2.3595,-2.3595,-2.3595,-2.346,-2.3458,-2.3576,-2.3591,-2.3591,-2.3578,-2.3576,-2.3563,-2.3608,-2.3565,-2.3593,-2.358,-2.3551,-2.3363,-2.3289,-2.3069,-2.2786,-2.2766,-2.2708,-2.2068,-2.138,-2.043,-1.9865,-2.0188,-2.0342,-2.0601,-2.0583,-2.0388,-2.0134,-2.0034,-2.0027,-1.9806,-1.9751,-1.9429,-1.9664,-1.9774,-1.9812,-1.9925,-2.0206,-2.0144,-1.9927,-1.9773,-1.9798,-1.9798,-1.9798,-1.9773,-1.9736,-1.971,-1.9698,-1.9597,-3.6285,-3.6229,-3.5339,-3.4724,-3.4211,-3.388,-3.3091,-3.221,-3.2632,-3.2339,-3.1659,-3.1568,-3.0932,-3.0033,-2.9755,-2.9303,-2.8742,-2.8658,-2.8805,-2.8769,-2.8755,-2.8576,-2.8062,-2.7989,-2.7989,-2.8191,-2.8503,-2.8773,-2.8902,-2.8975,-2.87,-2.8778,-2.8301,-2.8007,-2.772,-2.71,-2.6513,-2.5825,-2.5542,-2.5011,-2.4458,-2.4252,-2.3968,-2.3342,-2.3038,-2.2784,-2.2412,-2.2429,-2.2429,-2.2344,-2.2542,-2.2598,-2.2591,-2.2589,-2.2984,-2.3588,-2.401,-2.4078,-2.4048,-2.393,-2.3721,-2.3595,-2.3595,-2.3565,-2.346,-2.3161,-2.314,-2.3311,-2.3413,-2.3443,-2.3588,-2.3564,-2.3541,-2.3573,-2.334,-2.3351,-2.3329,-2.2996,-2.264,-2.2433,-2.2204,-2.2086,-2.2072,-2.2088,-2.1648,-2.1053,-2.0304,-1.9835,-1.9926,-1.9863,-1.981,-1.9581,-1.9304,-1.8961,-1.8656,-1.8686,-1.8627,-1.8819,-1.8801,-1.9171,-1.9249,-1.9218,-1.9407,-1.9584,-1.9787,-1.9686,-1.9673,-1.9673,-1.961,-1.9459,-1.9535,-1.9623,-1.9371,-1.912,-1.8932,-3.3752,-3.3715,-3.3311,-3.2926,-3.2577,-3.254,-3.2137,-3.1531,-3.1806,-3.1531,-3.0962,-3.0723,-3.0111,-2.9238,-2.8979,-2.8468,-2.7859,-2.7899,-2.7845,-2.7638,-2.7624,-2.7603,-2.72,-2.7181,-2.7163,-2.7255,-2.7585,-2.8026,-2.8282,-2.7897,-2.7879,-2.7677,-2.7328,-2.72,-2.7105,-2.6684,-2.5739,-2.5166,-2.4743,-2.4237,-2.3468,-2.3393,-2.3139,-2.297,-2.2852,-2.2632,-2.2446,-2.2327,-2.2327,-2.2327,-2.2327,-2.231,-2.2199,-2.2039,-2.2028,-2.2489,-2.2976,-2.3132,-2.3151,-2.2987,-2.3143,-2.3146,-2.3355,-2.3298,-2.3059,-2.2802,-2.2746,-2.2677,-2.1887,-2.1973,-2.2763,-2.3179,-2.323,-2.2629,-2.2216,-2.2017,-2.2047,-2.169,-2.1443,-2.1375,-2.1522,-2.1533,-2.1348,-2.1309,-2.1156,-2.0716,-2.0093,-1.9876,-1.9748,-1.956,-1.9321,-1.8781,-1.8442,-1.7931,-1.7693,-1.779,-1.7823,-1.7945,-1.8113,-1.8444,-1.8806,-1.8748,-1.8753,-1.8805,-1.9007,-1.9221,-1.9158,-1.9007,-1.9058,-1.9133,-1.9171,-1.9133,-1.8794,-1.853,-1.8355,-3.1292,-3.1146,-3.1311,-3.1292,-3.1164,-3.1164,-3.0944,-3.0723,-3.0595,-3.021,-2.9659,-2.9434,-2.8919,-2.8196,-2.7735,-2.7237,-2.6489,-2.6752,-2.6597,-2.6327,-2.6463,-2.6487,-2.6289,-2.6334,-2.6355,-2.6337,-2.6117,-2.6649,-2.7328,-2.709,-2.6722,-2.6704,-2.6576,-2.6374,-2.6298,-2.5965,-2.528,-2.4593,-2.4109,-2.3466,-2.2624,-2.2327,-2.2327,-2.2327,-2.2327,-2.2344,-2.2327,-2.2327,-2.2209,-2.2135,-2.2094,-2.2074,-2.2002,-2.1462,-2.1103,-2.1187,-2.1775,-2.1903,-2.1973,-2.2184,-2.2473,-2.2488,-2.2921,-2.273,-2.2476,-2.2289,-2.2275,-2.1654,-2.0823,-2.0146,-2.1178,-2.2206,-2.2285,-2.1711,-2.0726,-2.0103,-2.0706,-2.0678,-2.0313,-2.0409,-2.0813,-2.0836,-2.0627,-2.0636,-2.0526,-2.0475,-1.9901,-1.9446,-1.9282,-1.9246,-1.8945,-1.8204,-1.7652,-1.7035,-1.6873,-1.7137,-1.7174,-1.7282,-1.7377,-1.7581,-1.8015,-1.8312,-1.8232,-1.8041,-1.8304,-1.8455,-1.8392,-1.8455,-1.8593,-1.8706,-1.8756,-1.8593,-1.8216,-1.8003,-1.7865,-3.098,-3.0393,-3.1054,-3.0999,-3.032,-3.0246,-2.9475,-2.8374,-2.8356,-2.8029,-2.7889,-2.7346,-2.7191,-2.6841,-2.6028,-2.5555,-2.5425,-2.5597,-2.5636,-2.5401,-2.5703,-2.5606,-2.5248,-2.5429,-2.5509,-2.5456,-2.4924,-2.5419,-2.6245,-2.6447,-2.6484,-2.6319,-2.5786,-2.555,-2.5474,-2.5107,-2.4091,-2.3483,-2.3383,-2.3005,-2.2432,-2.2327,-2.2327,-2.2327,-2.2327,-2.2327,-2.2327,-2.2282,-2.2135,-2.1748,-2.1622,-2.154,-2.1359,-2.0457,-2.002,-2.0196,-2.0762,-2.1519,-2.1558,-2.171,-2.1799,-2.1829,-2.2009,-2.1889,-2.1754,-2.1588,-2.1258,-2.007,-1.9685,-1.9392,-1.9341,-1.9824,-2.0399,-2.0345,-1.9653,-1.9713,-2.0147,-1.9409,-1.9068,-1.9058,-1.9334,-1.9639,-1.9699,-1.9838,-1.9926,-1.9862,-1.9672,-1.9245,-1.8871,-1.882,-1.8442,-1.7664,-1.7262,-1.6685,-1.6535,-1.6735,-1.6773,-1.6829,-1.6854,-1.6879,-1.7213,-1.7536,-1.7314,-1.7262,-1.7539,-1.7802,-1.7865,-1.799,-1.8179,-1.8204,-1.8154,-1.7903,-1.7589,-1.7451,-1.7463,-2.8755,-2.8371,-2.8722,-2.8599,-2.8191,-2.8172,-2.7787,-2.7218,-2.7108,-2.7056,-2.6927,-2.6722,-2.6413,-2.5913,-2.5327,-2.4752,-2.4356,-2.4485,-2.4349,-2.4153,-2.4349,-2.44,-2.4288,-2.4384,-2.4506,-2.4647,-2.4428,-2.4502,-2.5181,-2.5291,-2.5236,-2.5254,-2.4942,-2.4722,-2.4795,-2.441,-2.385,-2.3335,-2.29,-2.2571,-2.2377,-2.2327,-2.2327,-2.2327,-2.2327,-2.2282,-2.2282,-2.2299,-2.2061,-2.1672,-2.1532,-2.1323,-2.0989,-2.0382,-2.0005,-1.9753,-2.0112,-2.0434,-2.0535,-2.0917,-2.1081,-2.1261,-2.1395,-2.1575,-2.1225,-2.0805,-2.0466,-1.9816,-1.9103,-1.8565,-1.8182,-1.8398,-1.8769,-1.885,-1.8438,-1.8535,-1.8702,-1.819,-1.7748,-1.7756,-1.7919,-1.8371,-1.8883,-1.9208,-1.9472,-1.9773,-1.9484,-1.8983,-1.862,-1.8481,-1.7877,-1.7024,-1.6785,-1.6541,-1.6516,-1.6609,-1.6591,-1.6647,-1.6635,-1.666,-1.6622,-1.6685,-1.6697,-1.6697,-1.6911,-1.7137,-1.7325,-1.7488,-1.7639,-1.7589,-1.7501,-1.7313,-1.7162,-1.7375,-1.7451,-2.6604,-2.6461,-2.6767,-2.6821,-2.6659,-2.6413,-2.6319,-2.6282,-2.6062,-2.597,-2.5947,-2.5692,-2.5242,-2.4847,-2.4413,-2.3813,-2.318,-2.3391,-2.3141,-2.2886,-2.294,-2.3277,-2.3499,-2.362,-2.3891,-2.4094,-2.4225,-2.43,-2.4263,-2.43,-2.4373,-2.419,-2.4373,-2.4263,-2.4207,-2.4072,-2.3692,-2.3087,-2.2598,-2.2349,-2.2327,-2.2327,-2.2327,-2.2327,-2.2282,-2.2237,-2.2135,-2.2106,-2.1853,-2.1321,-2.1245,-2.0974,-2.0438,-2.017,-1.9934,-1.9752,-1.9852,-1.9852,-1.9995,-2.0198,-2.0408,-2.0617,-2.0767,-2.0827,-2.0513,-1.9929,-1.9705,-1.969,-1.8774,-1.8167,-1.7747,-1.7569,-1.79,-1.7728,-1.7278,-1.7162,-1.7106,-1.7144,-1.709,-1.7122,-1.7239,-1.7421,-1.7917,-1.8497,-1.898,-1.9533,-1.9346,-1.8719,-1.8149,-1.7684,-1.7074,-1.6215,-1.5905,-1.582,-1.5932,-1.6032,-1.6163,-1.6504,-1.6504,-1.6534,-1.6547,-1.6547,-1.6584,-1.6559,-1.6504,-1.6647,-1.6936,-1.7011,-1.7074,-1.7049,-1.7011,-1.6898,-1.6873,-1.7149,-1.7606,-2.5313,-2.5222,-2.6403,-2.6805,-2.6692,-2.5869,-2.5456,-2.5401,-2.474,-2.4501,-2.4458,-2.3692,-2.3406,-2.3024,-2.2973,-2.2717,-2.2429,-2.2406,-2.24,-2.246,-2.2573,-2.2721,-2.293,-2.3259,-2.3613,-2.3798,-2.3978,-2.4113,-2.419,-2.419,-2.419,-2.419,-2.419,-2.419,-2.4094,-2.3876,-2.3437,-2.289,-2.2436,-2.231,-2.2327,-2.2327,-2.2327,-2.2327,-2.2282,-2.2106,-2.1705,-2.1718,-2.1352,-2.0649,-2.0744,-2.0509,-2.0061,-1.9904,-1.9782,-1.9726,-1.9705,-1.9705,-1.9779,-1.9794,-1.9779,-1.9794,-1.9899,-2.0064,-1.9944,-1.9824,-1.9705,-1.9611,-1.8711,-1.773,-1.7235,-1.6994,-1.7255,-1.717,-1.6928,-1.6903,-1.686,-1.6773,-1.6715,-1.6604,-1.6547,-1.6593,-1.6898,-1.7468,-1.8275,-1.8824,-1.8028,-1.7364,-1.6716,-1.6244,-1.5915,-1.5336,-1.4937,-1.4846,-1.4971,-1.5254,-1.5913,-1.6355,-1.651,-1.6516,-1.6534,-1.6534,-1.6534,-1.6498,-1.6523,-1.6529,-1.6504,-1.6666,-1.6742,-1.6635,-1.6584,-1.6722,-1.7011,-1.7388,-1.7947,-2.5192,-2.5043,-2.5454,-2.5546,-2.539,-2.4874,-2.4667,-2.463,-2.4318,-2.4056,-2.3876,-2.332,-2.2926,-2.2669,-2.2453,-2.2327,-2.2327,-2.2327,-2.2135,-2.194,-2.1977,-2.2141,-2.2371,-2.2643,-2.2975,-2.3472,-2.378,-2.4036,-2.419,-2.419,-2.419,-2.419,-2.419,-2.419,-2.4074,-2.3671,-2.3159,-2.2764,-2.2436,-2.2327,-2.2327,-2.2327,-2.2327,-2.2327,-2.2327,-2.2077,-2.1688,-2.1628,-2.107,-2.0599,-2.0506,-2.0181,-1.9797,-1.9741,-1.9705,-1.969,-1.969,-1.969,-1.9705,-1.9705,-1.9705,-1.9705,-1.9705,-1.969,-1.9669,-1.9715,-1.9694,-1.9403,-1.8634,-1.7517,-1.6808,-1.6715,-1.6812,-1.6766,-1.6773,-1.6748,-1.6673,-1.6578,-1.6421,-1.6349,-1.5876,-1.5558,-1.599,-1.645,-1.7298,-1.7991,-1.7015,-1.6053,-1.5384,-1.5026,-1.4793,-1.4581,-1.4193,-1.431,-1.4492,-1.5119,-1.5804,-1.6105,-1.6461,-1.6498,-1.6534,-1.6534,-1.6504,-1.6535,-1.6511,-1.6554,-1.656,-1.651,-1.6516,-1.6491,-1.6672,-1.6861,-1.72,-1.7601,-1.8174,-2.5233,-2.5084,-2.4883,-2.4685,-2.4478,-2.4284,-2.419,-2.419,-2.4208,-2.3937,-2.3544,-2.3282,-2.2965,-2.2616,-2.2398,-2.2327,-2.2327,-2.2254,-2.2003,-2.1777,-2.1702,-2.1668,-2.177,-2.1978,-2.2356,-2.3018,-2.3472,-2.3678,-2.4182,-2.4188,-2.4208,-2.419,-2.419,-2.417,-2.3878,-2.3414,-2.2915,-2.259,-2.2426,-2.2327,-2.2327,-2.2327,-2.2327,-2.2254,-2.2152,-2.1811,-2.143,-2.1165,-2.0781,-2.0345,-2.0166,-2.0091,-1.9863,-1.9705,-1.9705,-1.9654,-1.9566,-1.9515,-1.9654,-1.9705,-1.9617,-1.9457,-1.9654,-1.9603,-1.9553,-1.9567,-1.961,-1.9032,-1.8192,-1.7325,-1.6491,-1.657,-1.6595,-1.6635,-1.6635,-1.6609,-1.6609,-1.6492,-1.6324,-1.6163,-1.5628,-1.5229,-1.558,-1.6138,-1.7218,-1.7521,-1.6416,-1.5255,-1.4077,-1.3893,-1.4037,-1.3768,-1.3486,-1.3825,-1.4228,-1.4824,-1.54,-1.5788,-1.6132,-1.6473,-1.6534,-1.6584,-1.6554,-1.6535,-1.6567,-1.6598,-1.6579,-1.6498,-1.6504,-1.6534,-1.666,-1.6798,-1.7338,-1.7765,-1.8251,-2.5293,-2.5253,-2.4942,-2.4685,-2.4461,-2.4284,-2.419,-2.419,-2.417,-2.3816,-2.33,-2.3165,-2.2875,-2.2443,-2.231,-2.231,-2.2327,-2.2282,-2.2003,-2.1628,-2.146,-2.1368,-2.1243,-2.1348,-2.1637,-2.2167,-2.271,-2.3359,-2.4003,-2.4087,-2.4112,-2.4113,-2.4036,-2.3937,-2.3671,-2.3069,-2.2616,-2.2349,-2.231,-2.2282,-2.2225,-2.218,-2.218,-2.202,-2.1764,-2.143,-2.1039,-2.0699,-2.0348,-1.9945,-1.9869,-1.9777,-1.9603,-1.9551,-1.9551,-1.9515,-1.9118,-1.9169,-1.953,-1.9617,-1.9457,-1.9221,-1.9493,-1.9406,-1.9176,-1.9223,-1.9253,-1.8551,-1.7423,-1.6773,-1.6526,-1.6515,-1.6514,-1.6534,-1.6534,-1.6534,-1.6534,-1.6225,-1.5983,-1.5696,-1.5487,-1.5312,-1.5529,-1.6055,-1.7158,-1.7169,-1.5943,-1.4665,-1.3381,-1.3056,-1.3392,-1.3515,-1.3358,-1.369,-1.4143,-1.4549,-1.5005,-1.5431,-1.6013,-1.6523,-1.6835,-1.6974,-1.6867,-1.666,-1.6547,-1.6553,-1.6465,-1.6436,-1.6237,-1.6078,-1.6417,-1.6735,-1.7313,-1.78,-1.8154,-2.516,-2.4968,-2.4828,-2.4626,-2.4321,-2.4228,-2.419,-2.417,-2.3955,-2.3628,-2.323,-2.2996,-2.2678,-2.2388,-2.2327,-2.2327,-2.2327,-2.2282,-2.1974,-2.1275,-2.1213,-2.091,-2.0732,-2.0717,-2.0893,-2.1292,-2.1946,-2.2504,-2.2775,-2.3458,-2.3816,-2.3837,-2.3714,-2.35,-2.33,-2.2898,-2.259,-2.2349,-2.2282,-2.218,-2.1899,-2.1823,-2.1735,-2.1493,-2.1275,-2.0975,-2.0616,-2.0348,-2.0054,-1.9747,-1.9705,-1.9566,-1.9266,-1.914,-1.891,-1.875,-1.838,-1.8263,-1.8458,-1.8626,-1.9295,-1.9258,-1.9221,-1.9132,-1.8959,-1.8672,-1.845,-1.8004,-1.7092,-1.6625,-1.6519,-1.6502,-1.6534,-1.6534,-1.6534,-1.6534,-1.6423,-1.5915,-1.5516,-1.5149,-1.488,-1.4193,-1.4121,-1.4509,-1.5579,-1.5995,-1.4871,-1.438,-1.3343,-1.3037,-1.3123,-1.3433,-1.3508,-1.3794,-1.4125,-1.4786,-1.5464,-1.6059,-1.6585,-1.7105,-1.732,-1.742,-1.7338,-1.7192,-1.6773,-1.644,-1.6133,-1.5875,-1.5648,-1.559,-1.6053,-1.6553,-1.7117,-1.746,-1.7665,-2.5118,-2.4864,-2.4814,-2.4607,-2.4303,-2.4228,-2.419,-2.417,-2.3937,-2.3628,-2.3212,-2.2954,-2.2669,-2.2432,-2.2327,-2.2327,-2.2282,-2.2077,-2.1945,-2.1181,-2.0862,-2.0616,-2.0382,-2.0162,-2.0247,-2.0543,-2.116,-2.1759,-2.228,-2.3088,-2.353,-2.361,-2.3369,-2.3206,-2.2989,-2.2704,-2.249,-2.2265,-2.2135,-2.1899,-2.1658,-2.1507,-2.1275,-2.1055,-2.0862,-2.0616,-2.0348,-2.0158,-2.0,-1.9797,-1.9617,-1.9406,-1.8977,-1.8722,-1.8464,-1.8235,-1.8263,-1.7987,-1.7827,-1.8664,-1.9169,-1.8968,-1.893,-1.8803,-1.8655,-1.8354,-1.7908,-1.7439,-1.6842,-1.662,-1.6454,-1.6423,-1.6392,-1.6392,-1.6163,-1.6151,-1.5788,-1.5274,-1.4937,-1.4619,-1.4253,-1.3511,-1.2939,-1.3036,-1.3675,-1.3734,-1.3713,-1.356,-1.3521,-1.3303,-1.3262,-1.3652,-1.4205,-1.4682,-1.499,-1.5372,-1.5997,-1.6638,-1.7152,-1.7564,-1.7748,-1.779,-1.7752,-1.7576,-1.7001,-1.6385,-1.5618,-1.5266,-1.5289,-1.5457,-1.5776,-1.6338,-1.6965,-1.7217,-1.7347,-2.5173,-2.4986,-2.4855,-2.4685,-2.4478,-2.4284,-2.419,-2.419,-2.4151,-2.3756,-2.3171,-2.3117,-2.2747,-2.2377,-2.2327,-2.2327,-2.2209,-2.1853,-2.1598,-2.1259,-2.0748,-2.0449,-2.0158,-1.9914,-1.9882,-2.0014,-2.0511,-2.1313,-2.2018,-2.2803,-2.331,-2.3441,-2.3236,-2.2989,-2.2704,-2.249,-2.2349,-2.2237,-2.1928,-2.1688,-2.146,-2.1134,-2.0926,-2.0665,-2.0449,-2.0296,-2.0104,-1.9929,-1.9732,-1.9639,-1.9603,-1.9244,-1.9006,-1.8841,-1.8496,-1.8288,-1.8419,-1.7854,-1.7585,-1.8535,-1.8741,-1.838,-1.8535,-1.8419,-1.8187,-1.7882,-1.7413,-1.705,-1.6577,-1.6466,-1.6299,-1.6225,-1.6107,-1.5876,-1.5599,-1.5332,-1.4983,-1.4641,-1.4354,-1.4122,-1.3852,-1.3362,-1.3055,-1.2929,-1.3113,-1.324,-1.3686,-1.4264,-1.4131,-1.3846,-1.391,-1.4344,-1.4969,-1.578,-1.6058,-1.6162,-1.6822,-1.7562,-1.7594,-1.7928,-1.8066,-1.8037,-1.77,-1.7364,-1.6977,-1.6356,-1.5452,-1.5193,-1.5274,-1.5449,-1.5598,-1.593,-1.6554,-1.6911,-1.7062,-2.5173,-2.4979,-2.4855,-2.4685,-2.4495,-2.4303,-2.419,-2.4151,-2.3732,-2.3346,-2.3206,-2.2721,-2.2535,-2.231,-2.2327,-2.2327,-2.2106,-2.1823,-2.1446,-2.1039,-2.055,-2.0177,-1.9929,-1.9782,-1.9737,-1.9869,-2.0237,-2.075,-2.1425,-2.2283,-2.283,-2.2923,-2.288,-2.266,-2.2473,-2.2349,-2.231,-2.2152,-2.1794,-2.1507,-2.1165,-2.0765,-2.0499,-2.0174,-2.005,-1.9945,-1.9854,-1.9732,-1.9515,-1.9207,-1.9169,-1.8765,-1.7827,-1.7747,-1.7504,-1.7034,-1.7076,-1.6993,-1.6909,-1.7504,-1.7907,-1.7706,-1.7747,-1.7706,-1.7489,-1.7199,-1.6871,-1.6615,-1.6194,-1.5959,-1.576,-1.564,-1.5487,-1.5197,-1.496,-1.4744,-1.4433,-1.4107,-1.3873,-1.3732,-1.3515,-1.3286,-1.2978,-1.3334,-1.3467,-1.3382,-1.3689,-1.4485,-1.4793,-1.4499,-1.45,-1.4982,-1.5901,-1.6729,-1.6822,-1.694,-1.77,-1.8359,-1.8319,-1.8392,-1.8607,-1.84,-1.7664,-1.6962,-1.6356,-1.5816,-1.5175,-1.5045,-1.5029,-1.5247,-1.5414,-1.5722,-1.6115,-1.6534,-1.6709,-2.5192,-2.4998,-2.4917,-2.4741,-2.4495,-2.4284,-2.419,-2.4113,-2.3774,-2.35,-2.3183,-2.2832,-2.2535,-2.231,-2.2282,-2.218,-2.1928,-2.1538,-2.1213,-2.0959,-2.0364,-2.0124,-1.9909,-1.9797,-1.9726,-1.9818,-1.998,-2.0314,-2.0927,-2.1635,-2.2235,-2.2245,-2.2344,-2.2275,-2.213,-2.2163,-2.2163,-2.1974,-2.1705,-2.1385,-2.0991,-2.0501,-2.0124,-1.9782,-1.9741,-1.9705,-1.9654,-1.9566,-1.9207,-1.8855,-1.8803,-1.821,-1.734,-1.7146,-1.6951,-1.6637,-1.6866,-1.6795,-1.6752,-1.7325,-1.7312,-1.7146,-1.7146,-1.7188,-1.6828,-1.6459,-1.643,-1.6349,-1.5776,-1.5327,-1.5138,-1.4914,-1.4687,-1.4422,-1.4329,-1.4247,-1.3931,-1.3658,-1.3515,-1.3382,-1.3248,-1.3027,-1.3113,-1.3552,-1.401,-1.4247,-1.4611,-1.5165,-1.5418,-1.5193,-1.5272,-1.5588,-1.6704,-1.7763,-1.7665,-1.7578,-1.8226,-1.8696,-1.8745,-1.8833,-1.9096,-1.8631,-1.7745,-1.6692,-1.5594,-1.5259,-1.511,-1.4788,-1.4711,-1.5034,-1.5249,-1.5391,-1.5753,-1.6216,-1.6273,-2.5173,-2.4998,-2.4955,-2.4752,-2.4478,-2.4266,-2.419,-2.419,-2.4133,-2.3816,-2.3277,-2.3159,-2.2773,-2.2377,-2.2299,-2.2032,-2.1705,-2.1291,-2.1023,-2.0894,-2.0139,-1.9874,-1.9945,-1.9909,-1.9726,-1.9705,-1.9833,-2.0035,-2.0434,-2.1101,-2.1606,-2.1483,-2.1795,-2.1816,-2.1658,-2.184,-2.1811,-2.1568,-2.146,-2.1244,-2.0846,-2.0449,-2.0104,-1.9797,-1.9705,-1.969,-1.9566,-1.9281,-1.8893,-1.8688,-1.8288,-1.7787,-1.7229,-1.6837,-1.6595,-1.6595,-1.6837,-1.6752,-1.6752,-1.716,-1.7118,-1.6993,-1.6866,-1.6727,-1.6287,-1.5959,-1.6001,-1.5812,-1.525,-1.4665,-1.4381,-1.4391,-1.4261,-1.392,-1.3695,-1.3447,-1.3054,-1.288,-1.2929,-1.2949,-1.3065,-1.2939,-1.3065,-1.3467,-1.4035,-1.4771,-1.5475,-1.5909,-1.5882,-1.5742,-1.5916,-1.6125,-1.6918,-1.7834,-1.7982,-1.8018,-1.8573,-1.8971,-1.8971,-1.8792,-1.869,-1.8306,-1.7798,-1.6613,-1.5406,-1.5402,-1.5254,-1.501,-1.4902,-1.5135,-1.529,-1.5164,-1.5405,-1.5914,-1.5965,-2.5192,-2.4967,-2.4718,-2.4476,-2.4284,-2.4228,-2.419,-2.419,-2.419,-2.3816,-2.3236,-2.2923,-2.2669,-2.2366,-2.2282,-2.2032,-2.1598,-2.1181,-2.0813,-2.0499,-1.9909,-1.9762,-1.9854,-1.9797,-1.9705,-1.9705,-1.9762,-1.9874,-2.023,-2.0765,-2.1102,-2.1118,-2.1227,-2.107,-2.115,-2.137,-2.1244,-2.1102,-2.1102,-2.091,-2.0483,-2.0139,-1.9762,-1.9705,-1.9705,-1.969,-1.9479,-1.9169,-1.8688,-1.8288,-1.7787,-1.7229,-1.671,-1.6552,-1.6522,-1.6522,-1.668,-1.6637,-1.668,-1.6837,-1.6752,-1.6497,-1.6269,-1.6039,-1.5764,-1.5608,-1.5407,-1.5105,-1.4665,-1.4106,-1.3746,-1.382,-1.3815,-1.3409,-1.3084,-1.2638,-1.2187,-1.2286,-1.2393,-1.2608,-1.2881,-1.2978,-1.3113,-1.3525,-1.4093,-1.4891,-1.5804,-1.6287,-1.6142,-1.6089,-1.6329,-1.6573,-1.6909,-1.7538,-1.7855,-1.8167,-1.8609,-1.8736,-1.8702,-1.8519,-1.8263,-1.7804,-1.7279,-1.6279,-1.54,-1.541,-1.542,-1.5361,-1.5322,-1.5381,-1.5361,-1.5264,-1.5273,-1.5651,-1.5613,-2.5099,-2.4943,-2.4651,-2.4445,-2.4321,-2.4247,-2.419,-2.417,-2.4054,-2.3692,-2.3212,-2.2972,-2.2678,-2.2349,-2.2282,-2.2032,-2.1582,-2.1181,-2.0748,-2.033,-1.9965,-1.9762,-1.9705,-1.9705,-1.9705,-1.9705,-1.9726,-1.9839,-2.0054,-1.9919,-2.0043,-2.0314,-2.0299,-2.0302,-2.055,-2.0667,-2.0667,-2.0682,-2.0698,-2.0465,-2.0124,-1.9929,-1.9818,-1.9818,-1.969,-1.9603,-1.9207,-1.8803,-1.8288,-1.7747,-1.7242,-1.6909,-1.6595,-1.6522,-1.6522,-1.6534,-1.6522,-1.6534,-1.6534,-1.6479,-1.6324,-1.6095,-1.5876,-1.5688,-1.5141,-1.496,-1.4846,-1.4536,-1.3946,-1.3321,-1.3273,-1.3314,-1.3006,-1.2628,-1.2423,-1.212,-1.212,-1.2276,-1.2491,-1.2774,-1.2891,-1.2939,-1.32,-1.3884,-1.4384,-1.4606,-1.561,-1.6859,-1.6769,-1.6581,-1.6791,-1.686,-1.714,-1.7522,-1.8009,-1.8191,-1.8403,-1.847,-1.8382,-1.7984,-1.7556,-1.7166,-1.6633,-1.5894,-1.54,-1.541,-1.542,-1.542,-1.542,-1.54,-1.54,-1.5391,-1.542,-1.542,-1.5468,-2.4986,-2.4898,-2.4588,-2.4461,-2.4426,-2.4266,-2.419,-2.4133,-2.3837,-2.3522,-2.3212,-2.3117,-2.2798,-2.247,-2.2282,-2.1957,-2.1628,-2.1337,-2.0878,-2.0364,-1.9965,-1.9818,-1.9726,-1.9705,-1.9705,-1.9705,-1.9726,-1.969,-1.9782,-1.9485,-1.9325,-1.9427,-1.9346,-1.9266,-1.9854,-2.0165,-2.02,-2.0246,-2.0193,-2.005,-2.0,-2.0019,-1.9894,-1.9767,-1.9603,-1.9317,-1.8893,-1.8302,-1.7787,-1.7353,-1.6921,-1.6637,-1.6565,-1.6534,-1.6534,-1.6534,-1.6534,-1.6534,-1.6479,-1.6337,-1.6051,-1.5764,-1.5543,-1.5141,-1.456,-1.4316,-1.4193,-1.3873,-1.3268,-1.2958,-1.291,-1.2754,-1.2393,-1.1873,-1.1765,-1.1823,-1.203,-1.2129,-1.2295,-1.2578,-1.2774,-1.2774,-1.3296,-1.4014,-1.454,-1.4763,-1.5622,-1.6834,-1.7616,-1.7455,-1.7493,-1.7235,-1.7091,-1.7562,-1.7941,-1.7811,-1.7761,-1.7775,-1.7578,-1.719,-1.6828,-1.6498,-1.6144,-1.5778,-1.542,-1.542,-1.542,-1.542,-1.542,-1.542,-1.542,-1.542,-1.542,-1.542,-1.542,-2.4845,-2.4591,-2.4357,-2.4247,-2.4247,-2.4209,-2.419,-2.4151,-2.3837,-2.3522,-2.3189,-2.288,-2.2573,-2.2327,-2.2327,-2.2077,-2.1748,-2.1477,-2.0943,-2.0348,-2.0193,-1.9965,-1.9782,-1.9705,-1.9705,-1.9705,-1.969,-1.969,-1.9479,-1.9095,-1.893,-1.902,-1.893,-1.8939,-1.9089,-1.9383,-1.9615,-1.9681,-1.9752,-1.966,-1.9696,-1.9696,-1.9747,-1.9566,-1.9281,-1.908,-1.8688,-1.7947,-1.7544,-1.7188,-1.6837,-1.6607,-1.6534,-1.6534,-1.6534,-1.6436,-1.6479,-1.638,-1.6293,-1.5964,-1.5599,-1.532,-1.5005,-1.4387,-1.3894,-1.3573,-1.3471,-1.3326,-1.2929,-1.2803,-1.2706,-1.2657,-1.2353,-1.1525,-1.1116,-1.1619,-1.1963,-1.151,-1.1183,-1.1742,-1.2246,-1.2461,-1.2871,-1.3714,-1.4664,-1.5241,-1.6586,-1.7723,-1.8417,-1.8352,-1.8154,-1.7603,-1.7111,-1.7099,-1.7278,-1.6865,-1.6744,-1.6798,-1.681,-1.6503,-1.6171,-1.5758,-1.541,-1.542,-1.542,-1.542,-1.542,-1.542,-1.542,-1.542,-1.542,-1.542,-1.542,-1.542,-1.542]},{"header":{"parameterUnit":"m.s-1","parameterCategory":1,"la1":31.0,"la2":29.5877,"lo1":-88.7671,"lo2":-86.6584,"dy":0.0162,"dx":0.0185,"nx":115,"ny":88,"refTime":"2023-08-16T00:00:00:Z","depth":0,"parameterNumber":3,"parameterNumberName":"V-component_of_WINDS"},"data":[0.0,0.0,0.0,0.0,0.0,0.0,0.0,0.0,0.0,0.0,0.0,0.0,0.0,0.0,0.0,0.0,0.0,0.0,0.0,0.0,0.0,0.0,0.0,0.0,0.0,0.0,0.0,0.0,0.0,0.0,0.0,0.0,0.0,0.0,0.0,0.0,0.0,0.0,0.0,0.0,0.0,0.0,0.0,0.0,0.0,0.0,0.0,0.0,0.0,0.0,0.0,0.0,0.0,0.0,0.0,0.0,0.0,0.0,0.0,0.0,0.0,0.0,0.0,0.0,0.0,0.0,0.0,0.0,0.0,0.0,0.0,0.0,0.0,0.0,0.0,0.0,0.0,0.0,0.0,0.0,0.0,0.0,0.0,0.0,0.0,0.0,0.0,0.0,0.0,0.0,0.0,0.0,0.0,0.0,0.0,0.0,0.0,0.0,0.0,0.0,0.0,0.0,0.0,0.0,0.0,0.0,0.0,0.0,0.0,0.0,0.0,0.0,0.0,0.0,0.0,0.0,0.0,0.0,0.0,0.0,0.0,0.0,0.0,0.0,0.0,0.0,0.0,0.0,0.0,0.0,0.0,0.0,0.0,0.0,0.0,0.0,0.0,0.0,0.0,0.0,0.0,0.0,0.0,0.0,0.0,0.0,0.0,0.0,0.0,0.0,0.0,0.0,0.0,0.0,0.0,0.0,0.0,0.0,0.0,0.0,0.0,0.0,0.0,0.0,0.0,0.0,0.0,0.0,0.0,0.0,0.0,0.0,0.0,0.0,0.0,0.0,0.0,0.0,0.0,0.0,0.0,0.0,0.0,0.0,0.0,0.0,0.0,0.0,0.0,0.0,0.0,0.0,0.0,0.0,0.0,0.0,0.0,0.0,0.0,0.0,0.0,0.0,0.0,0.0,0.0,0.0,0.0,0.0,0.0,0.0,0.0,0.0,0.0,0.0,0.0,0.0,0.0,0.0,0.0,0.0,0.0,0.0,0.0,0.0,0.0,0.0,0.0,0.0,0.0,0.0,0.0,0.0,0.0,0.0,0.0,0.0,0.0,0.0,0.0,0.0,0.0,0.0,0.0,0.0,0.0,0.0,0.0,0.0,0.0,0.0,0.0,0.0,0.0,0.0,0.0,0.0,0.0,0.0,0.0,0.0,0.0,0.0,0.0,0.0,0.0,0.0,0.0,0.0,0.0,0.0,0.0,0.0,0.0,0.0,0.0,0.0,0.0,0.0,0.0,0.0,0.0,0.0,0.0,0.0,0.0,0.0,0.0,0.0,0.0,0.0,0.0,0.0,0.0,0.0,0.0,0.0,0.0,0.0,0.0,0.0,0.0,0.0,0.0,0.0,0.0,0.0,0.0,0.0,0.0,0.0,0.0,0.0,0.0,0.0,0.0,0.0,0.0,0.0,0.0,0.0,0.0,0.0,0.0,0.0,0.0,0.0,0.0,0.0,0.0,0.0,0.0,0.0,0.0,0.0,0.0,0.0,0.0,0.0,0.0,0.0,0.0,0.0,0.0,0.0,0.0,0.0,0.0,0.0,0.0,0.0,0.0,0.0,0.0,0.0,0.0,0.0,0.0,0.0,0.0,0.0,0.0,0.0,0.0,0.0,0.0,0.0,0.0,0.0,0.0,0.0,0.0,0.0,0.0,0.0,0.0,0.0,0.0,0.0,0.0,0.0,0.0,0.0,0.0,0.0,0.0,0.0,0.0,0.0,0.0,0.0,0.0,0.0,0.0,0.0,0.0,0.0,0.0,0.0,0.0,0.0,0.0,0.0,0.0,0.0,0.0,0.0,0.0,0.0,0.0,0.0,0.0,0.0,0.0,0.0,0.0,0.0,0.0,0.0,0.0,0.0,0.0,0.0,0.0,0.0,0.0,0.0,0.0,0.0,0.0,0.0,0.0,0.0,0.0,0.0,0.0,0.0,0.0,0.0,0.0,0.0,0.0,0.0,0.0,0.0,0.0,0.0,0.0,0.0,0.0,0.0,0.0,0.0,0.0,0.0,0.0,0.0,0.0,0.0,0.0,0.0,0.0,0.0,0.0,0.0,0.0,0.0,0.0,0.0,0.0,0.0,0.0,0.0,0.0,0.0,0.0,0.0,0.0,0.0,0.0,0.0,0.0,0.0,0.0,0.0,0.0,0.0,0.0,0.0,0.0,0.0,0.0,0.0,0.0,0.0,0.0,0.0,0.0,0.0,0.0,0.0,0.0,0.0,0.0,0.0,0.0,0.0,0.0,0.0,0.0,0.0,0.0,0.0,0.0,0.0,0.0,0.0,0.0,0.0,0.0,0.0,0.0,0.0,0.0,0.0,0.0,0.0,0.0,0.0,0.0,0.0,0.0,0.0,0.0,0.0,0.0,0.0,0.0,0.0,0.0,0.0,0.0,0.0,0.0,0.0,0.0,0.0,0.0,0.0,0.0,0.0,0.0,0.0,0.0,0.0,0.0,0.0,0.0,0.0,0.0,0.0,0.0,0.0,0.0,0.0,0.0,0.0,0.0,0.0,0.0,0.0,0.0,0.0,0.0,0.0,0.0,0.0,0.0,0.0,0.0,0.0,0.0,0.0,0.0,0.0,0.0,0.0,0.0,0.0,0.0,0.0,0.0,0.0,0.0,0.0,0.0,0.0,0.0,0.0,0.0,0.0,0.0,0.0,0.0,0.0,0.0,0.0,0.0,0.0,0.0,0.0,0.0,0.0,0.0,0.0,0.0,0.0,0.0,0.0,0.0,0.0,0.0,0.0,0.0,0.0,0.0,0.0,0.0,0.0,0.0,0.0,0.0,0.0,0.0,0.0,0.0,0.0,0.0,0.0,0.0,0.0,0.0,0.0,0.0,0.0,0.0,0.0,0.0,0.0,0.0,0.0,0.0,0.0,0.0,0.0,0.0,0.0,0.0,0.0,0.0,0.0,0.0,0.0,0.0,0.0,0.0,0.0,0.0,0.0,0.0,0.0,0.0,0.0,0.0,0.0,0.0,0.0,0.0,0.0,0.0,0.0,0.0,0.0,0.0,0.0,0.0,0.0,0.0,0.0,0.0,0.0,0.0,0.0,0.0,0.0,0.0,0.0,0.0,0.0,0.0,0.0,0.0,0.0,0.0,0.0,0.0,0.0,0.0,0.0,0.0,0.0,0.0,0.0,0.0,0.0,0.0,0.0,0.0,0.0,0.0,0.0,0.0,0.0,0.0,0.0,0.0,0.0,0.0,0.0,0.0,0.0,0.0,0.0,0.0,0.0,0.0,0.0,0.0,0.0,0.0,0.0,0.0,0.0,0.0,0.0,0.0,0.0,0.0,0.0,0.0,0.0,0.0,0.0,0.0,0.0,0.0,0.0,0.0,0.0,0.0,0.0,0.0,0.0,0.0,0.0,0.0,0.0,0.0,0.0,0.0,0.0,0.0,0.0,0.0,0.0,0.0,0.0,0.0,0.0,0.0,0.0,0.0,0.0,0.0,0.0,0.0,0.0,0.0,0.0,0.0,0.0,0.0,0.0,0.0,0.0,0.0,0.0,0.0,0.0,0.0,0.0,0.0,0.0,0.0,0.0,0.0,0.0,0.0,0.0,0.0,0.0,0.0,0.0,0.0,0.0,0.0,0.0,0.0,0.0,0.0,0.0,0.0,0.0,0.0,0.0,0.0,0.0,0.0,0.0,0.0,0.0,0.0,0.0,0.0,0.0,0.0,0.0,0.0,0.0,0.0,0.0,0.0,0.0,0.0,0.0,0.0,0.0,0.0,0.0,0.0,0.0,0.0,0.0,0.0,0.0,0.0,0.0,0.0,0.0,0.0,0.0,0.0,0.0,0.0,0.0,0.0,0.0,0.0,0.0,0.0,0.0,0.0,0.0,0.0,0.0,0.0,0.0,0.0,0.0,0.0,0.0,0.0,0.0,0.0,0.0,0.0,0.0,0.0,0.0,0.0,0.0,0.0,0.0,0.0,0.0,0.0,0.0,0.0,0.0,0.0,0.0,0.0,0.0,0.0,0.0,0.0,0.0,0.0,0.0,0.0,0.0,0.0,0.0,0.0,0.0,0.0,0.0,0.0,0.0,0.0,0.0,0.0,0.0,0.0,0.0,0.0,0.0,0.0,0.0,0.0,0.0,0.0,0.0,0.0,0.0,0.0,0.0,0.0,0.0,0.0,0.0,0.0,0.0,0.0,0.0,0.0,0.0,0.0,0.0,0.0,0.0,0.0,0.0,0.0,0.0,0.0,0.0,0.0,0.0,0.0,0.0,0.0,0.0,0.0,0.0,0.0,0.0,-1.8741,0.0,0.0,0.0,0.0,0.0,0.0,0.0,0.0,0.0,0.0,0.0,0.0,0.0,0.0,0.0,0.0,0.0,0.0,0.0,0.0,0.0,0.0,0.0,0.0,0.0,0.0,0.0,0.0,0.0,0.0,0.0,0.0,0.0,0.0,0.0,0.0,0.0,0.0,0.0,0.0,0.0,0.0,0.0,0.0,0.0,0.0,0.0,0.0,0.0,0.0,0.0,0.0,0.0,0.0,0.0,0.0,0.0,0.0,0.0,0.0,0.0,0.0,0.0,0.0,0.0,0.0,0.0,0.0,0.0,0.0,0.0,0.0,0.0,0.0,0.0,0.0,0.0,0.0,0.0,0.0,0.0,0.0,0.0,0.0,0.0,0.0,0.0,0.0,0.0,0.0,0.0,0.0,0.0,0.0,0.0,0.0,0.0,0.0,0.0,0.0,0.0,0.0,0.0,0.0,0.0,0.0,0.0,0.0,0.0,0.0,-1.5874,-1.4581,-1.5733,-1.6266,-1.613,0.0,0.0,0.0,0.0,0.0,0.0,0.0,0.0,0.0,0.0,0.0,0.0,0.0,0.0,0.0,0.0,0.0,0.0,0.0,0.0,0.0,0.0,0.0,0.0,0.0,0.0,0.0,0.0,0.0,0.0,0.0,0.0,0.0,0.0,0.0,0.0,0.0,0.0,0.0,0.0,0.0,0.0,0.0,0.0,0.0,0.0,0.0,0.0,0.0,0.0,0.0,0.0,0.0,0.0,0.0,0.0,0.0,0.0,0.0,0.0,0.0,0.0,0.0,0.0,0.0,0.0,0.0,0.0,0.0,0.0,0.0,0.0,0.0,0.0,0.0,0.0,0.0,0.0,0.0,0.0,0.0,0.0,0.0,0.0,0.0,0.0,0.0,0.0,0.0,0.0,0.0,0.0,0.0,0.0,0.0,0.0,0.0,0.0,0.0,0.0,0.0,0.0,0.0,0.0,0.0,0.0,0.0,0.0,0.0,0.0,0.0,0.0,-1.2779,-1.4147,-1.5305,0.0,0.0,0.0,0.0,0.0,0.0,0.0,0.0,0.0,0.0,0.0,0.0,0.0,0.0,0.0,0.0,0.0,0.0,0.0,0.0,0.0,0.0,0.0,0.0,0.0,0.0,0.0,0.0,0.0,0.0,0.0,0.0,0.0,0.0,0.0,0.0,0.0,0.0,0.0,0.0,0.0,0.0,0.0,0.0,0.0,0.0,0.0,0.0,0.0,0.0,0.0,0.0,0.0,0.0,0.0,0.0,0.0,0.0,0.0,0.0,0.0,0.0,0.0,0.0,0.0,0.0,0.0,0.0,0.0,0.0,0.0,0.0,0.0,0.0,0.0,0.0,0.0,0.0,0.0,0.0,0.0,0.0,0.0,0.0,0.0,0.0,0.0,0.0,0.0,0.0,0.0,0.0,0.0,0.0,0.0,0.0,0.0,0.0,0.0,0.0,0.0,0.0,0.0,0.0,0.0,0.0,0.0,0.0,0.0,0.0,-0.9729,-0.9707,-1.1787,0.0,-1.8036,0.0,0.0,0.0,0.0,0.0,0.0,0.0,0.0,0.0,0.0,0.0,0.0,0.0,0.0,0.0,0.0,0.0,0.0,0.0,0.0,0.0,0.0,0.0,0.0,0.0,0.0,0.0,0.0,0.0,0.0,0.0,0.0,0.0,0.0,0.0,0.0,0.0,0.0,0.0,0.0,0.0,0.0,0.0,0.0,0.0,0.0,0.0,0.0,0.0,0.0,0.0,0.0,0.0,0.0,0.0,0.0,0.0,0.0,0.0,0.0,0.0,0.0,0.0,0.0,0.0,0.0,0.0,0.0,0.0,0.0,0.0,0.0,0.0,0.0,0.0,0.0,0.0,0.0,0.0,0.0,0.0,0.0,0.0,0.0,0.0,0.0,0.0,0.0,0.0,0.0,0.0,0.0,0.0,0.0,0.0,0.0,0.0,0.0,0.0,0.0,0.0,0.0,0.0,0.0,0.0,0.0,0.0,0.0,0.0,0.0,-0.7015,-0.792,-1.0398,-1.3689,0.0,0.0,0.0,0.0,0.0,0.0,0.0,0.0,0.0,0.0,0.0,0.0,0.0,0.0,0.0,0.0,0.0,0.0,0.0,0.0,0.0,0.0,0.0,0.0,0.0,0.0,0.0,0.0,0.0,0.0,0.0,0.0,0.0,0.0,0.0,0.0,0.0,0.0,0.0,0.0,0.0,0.0,0.0,0.0,0.0,0.0,0.0,0.0,0.0,0.0,0.0,0.0,0.0,0.0,0.0,0.0,0.0,0.0,0.0,0.0,0.0,0.0,0.0,0.0,0.0,0.0,0.0,0.0,0.0,0.0,0.0,0.0,0.0,0.0,0.0,0.0,0.0,0.0,0.0,0.0,0.0,0.0,0.0,0.0,0.0,0.0,0.0,0.0,0.0,0.0,0.0,0.0,0.0,0.0,0.0,0.0,0.0,0.0,0.0,0.0,0.0,0.0,0.0,0.0,0.0,0.0,0.0,0.0,0.0,0.0,-0.5311,-0.593,-0.8236,-1.0364,-1.3353,-1.7194,0.0,0.0,0.0,0.0,0.0,0.0,0.0,0.0,0.0,0.0,0.0,0.0,0.0,0.0,0.0,0.0,0.0,0.0,0.0,0.0,0.0,0.0,0.0,0.0,0.0,0.0,0.0,0.0,0.0,0.0,0.0,0.0,0.0,0.0,0.0,0.0,0.0,0.0,0.0,0.0,0.0,0.0,0.0,0.0,0.0,0.0,0.0,0.0,0.0,0.0,0.0,0.0,0.0,0.0,0.0,0.0,0.0,0.0,0.0,0.0,0.0,0.0,0.0,0.0,0.0,0.0,0.0,0.0,0.0,0.0,0.0,0.0,0.0,0.0,0.0,0.0,0.0,0.0,0.0,0.0,0.0,0.0,0.0,0.0,0.0,0.0,0.0,0.0,0.0,0.0,0.0,0.0,0.0,0.0,0.0,0.0,0.0,0.0,0.0,0.0,0.0,0.0,0.0,0.0,0.0,0.0,0.0,0.0,-0.4271,-0.4921,-0.7389,-1.1495,-1.2414,-1.4248,0.0,0.0,0.0,0.0,0.0,0.0,0.0,0.0,0.0,0.0,0.0,0.0,0.0,0.0,0.0,0.0,0.0,0.0,0.0,0.0,0.0,0.0,0.0,0.0,0.0,0.0,0.0,0.0,0.0,0.0,0.0,0.0,0.0,0.0,0.0,0.0,0.0,0.0,0.0,0.0,0.0,0.0,0.0,0.0,0.0,0.0,0.0,0.0,0.0,0.0,0.0,0.0,0.0,0.0,0.0,0.0,0.0,0.0,0.0,0.0,0.0,0.0,0.0,0.0,0.0,0.0,0.0,0.0,0.0,0.0,0.0,0.0,0.0,0.0,0.0,0.0,0.0,0.0,0.0,0.0,0.0,0.0,0.0,0.0,0.0,0.0,0.0,0.0,0.0,0.0,0.0,0.0,0.0,0.0,0.0,0.0,0.0,0.0,0.0,0.0,0.0,0.0,0.0,0.0,0.0,0.0,0.0,0.0,0.0,-0.3421,-0.4872,-0.7802,-1.1966,-1.1647,-1.3324,0.0,0.0,0.0,0.0,0.0,0.0,0.0,0.0,0.0,0.0,0.0,0.0,0.0,0.0,0.0,0.0,0.0,0.0,0.0,0.0,0.0,0.0,0.0,0.0,0.0,0.0,0.0,0.0,0.0,0.0,0.0,0.0,0.0,0.0,0.0,0.0,0.0,0.0,0.0,0.0,0.0,0.0,0.0,0.0,0.0,0.0,0.0,0.0,0.0,0.0,0.0,0.0,0.0,0.0,0.0,0.0,0.0,0.0,0.0,0.0,0.0,0.0,0.0,0.0,0.0,0.0,0.0,0.0,0.0,0.0,0.0,0.0,0.0,0.0,0.0,0.0,0.0,0.0,0.0,0.0,0.0,0.0,0.0,0.0,0.0,0.0,0.0,0.0,0.0,0.0,0.0,0.0,0.0,0.0,0.0,0.0,0.0,0.0,0.0,0.0,0.0,0.0,0.0,0.0,0.0,0.0,0.0,0.0,0.0,-0.3594,0.0,-0.7416,-1.18,-1.112,-1.2686,0.0,0.0,0.0,0.0,0.0,0.0,0.0,0.0,0.0,0.0,0.0,0.0,0.0,0.0,0.0,0.0,0.0,0.0,0.0,0.0,0.0,0.0,0.0,0.0,0.0,0.0,0.0,0.0,0.0,0.0,0.0,0.0,0.0,0.0,0.0,0.0,0.0,0.0,0.0,0.0,0.0,0.0,0.0,0.0,0.0,0.0,0.0,0.0,0.0,0.0,0.0,0.0,0.0,0.0,0.0,0.0,0.0,0.0,0.0,0.0,0.0,0.0,0.0,0.0,0.0,0.0,0.0,0.0,0.0,0.0,0.0,0.0,0.0,0.0,0.0,0.0,0.0,0.0,0.0,0.0,0.0,0.0,0.0,0.0,0.0,0.0,0.0,0.0,0.0,0.0,0.0,0.0,0.0,0.0,0.0,0.0,0.0,0.0,0.0,0.0,0.0,0.0,0.0,0.0,0.0,0.0,0.0,0.0,-0.3346,-0.4761,-0.4276,-0.6455,-1.1281,-1.1233,-1.2555,0.0,0.0,0.0,0.0,0.0,0.0,0.0,0.0,0.0,0.0,0.0,0.0,0.0,0.0,0.0,0.0,0.0,0.0,0.0,0.0,0.0,0.0,0.0,0.0,0.0,0.0,0.0,0.0,0.0,0.0,0.0,0.0,0.0,0.0,0.0,0.0,0.0,0.0,0.0,0.0,0.0,0.0,0.0,0.0,0.0,0.0,0.0,0.0,0.0,0.0,0.0,0.0,0.0,0.0,0.0,0.0,0.0,0.0,0.0,0.0,0.0,0.0,0.0,0.0,0.0,0.0,0.0,0.0,0.0,0.0,0.0,0.0,0.0,0.0,0.0,0.0,0.0,0.0,0.0,0.0,0.0,0.0,0.0,0.0,0.0,0.0,0.0,0.0,0.0,0.0,0.0,0.0,0.0,0.0,0.0,0.0,0.0,0.0,0.0,0.0,0.0,0.0,0.0,0.0,0.0,0.0,0.0,0.0,0.0,-0.2619,-0.3632,-0.6572,-1.1376,-1.0948,-1.2944,0.0,0.0,0.0,0.0,0.0,0.0,0.0,0.0,0.0,0.0,0.0,0.0,0.0,0.0,0.0,0.0,0.0,0.0,0.0,0.0,0.0,0.0,0.0,0.0,0.0,0.0,0.0,0.0,0.0,0.0,0.0,0.0,0.0,0.0,0.0,0.0,0.0,0.0,0.0,0.0,0.0,0.0,0.0,0.0,0.0,0.0,0.0,0.0,0.0,0.0,0.0,0.0,0.0,0.0,0.0,0.0,0.0,0.0,0.0,0.0,0.0,0.0,0.0,0.0,0.0,0.0,0.0,0.0,0.0,0.0,0.0,0.0,0.0,0.0,0.0,0.0,0.0,0.0,0.0,0.0,0.0,0.0,0.0,0.0,0.0,0.0,0.0,0.0,0.0,0.0,0.0,0.0,0.0,0.0,0.0,0.0,0.0,0.0,0.0,0.0,0.0,0.0,0.0,0.0,0.0,0.0,0.0,0.0,0.0,-0.1982,-0.3652,-0.7006,-1.2037,-1.1279,-1.3234,-1.7971,0.0,0.0,0.0,0.0,0.0,0.0,0.0,0.0,0.0,0.0,0.0,0.0,0.0,0.0,0.0,0.0,0.0,0.0,0.0,0.0,0.0,0.0,0.0,0.0,0.0,0.0,0.0,0.0,0.0,0.0,0.0,0.0,0.0,0.0,0.0,0.0,0.0,0.0,0.0,0.0,0.0,0.0,0.0,0.0,0.0,0.0,0.0,0.0,0.0,0.0,0.0,0.0,0.0,0.0,0.0,0.0,0.0,0.0,0.0,0.0,0.0,0.0,0.0,0.0,0.0,0.0,0.0,0.0,0.0,0.0,0.0,0.0,0.0,0.0,0.0,0.0,0.0,0.0,0.0,0.0,0.0,0.0,0.0,0.0,0.0,0.0,0.0,0.0,0.0,0.0,0.0,0.0,0.0,0.0,0.0,0.0,0.0,0.0,0.0,0.0,0.0,0.0,0.0,0.0,0.0,0.0,0.0,0.0,-0.2804,-0.4468,-0.761,-1.2588,-1.2011,-1.3426,0.0,0.0,0.0,0.0,0.0,0.0,0.0,0.0,0.0,0.0,0.0,0.0,0.0,0.0,0.0,0.0,0.0,0.0,0.0,0.0,0.0,0.0,0.0,0.0,0.0,0.0,0.0,0.0,0.0,0.0,0.0,0.0,0.0,0.0,0.0,0.0,0.0,0.0,0.0,0.0,0.0,0.0,0.0,0.0,0.0,0.0,0.0,0.0,0.0,0.0,0.0,0.0,0.0,0.0,0.0,0.0,0.0,0.0,0.0,0.0,0.0,0.0,0.0,0.0,0.0,0.0,0.0,0.0,0.0,0.0,0.0,0.0,0.0,0.0,0.0,0.0,0.0,0.0,0.0,0.0,0.0,0.0,0.0,0.0,0.0,0.0,0.0,0.0,0.0,0.0,0.0,0.0,0.0,0.0,0.0,0.0,0.0,0.0,0.0,0.0,0.0,0.0,0.0,0.0,0.0,0.0,0.0,0.0,0.0,-0.4482,-0.6239,-0.8938,-1.2664,-1.2093,-1.3828,0.0,0.0,0.0,0.0,0.0,0.0,0.0,0.0,0.0,0.0,0.0,0.0,0.0,0.0,0.0,0.0,0.0,0.0,0.0,0.0,0.0,0.0,0.0,0.0,0.0,0.0,0.0,0.0,0.0,0.0,0.0,0.0,0.0,0.0,0.0,0.0,0.0,0.0,0.0,0.0,0.0,0.0,0.0,0.0,0.0,0.0,0.0,0.0,0.0,0.0,0.0,0.0,0.0,0.0,0.0,0.0,0.0,0.0,0.0,0.0,0.0,0.0,0.0,0.0,0.0,0.0,0.0,0.0,0.0,0.0,0.0,0.0,0.0,0.0,0.0,0.0,0.0,0.0,0.0,0.0,0.0,0.0,0.0,0.0,0.0,0.0,0.0,0.0,0.0,0.0,0.0,0.0,0.0,0.0,0.0,0.0,0.0,0.0,0.0,0.0,0.0,0.0,0.0,0.0,0.0,0.0,0.0,0.0,-0.4348,-0.6032,-0.7884,-1.05,-1.3864,-1.3184,-1.4721,0.0,0.0,0.0,0.0,0.0,0.0,0.0,0.0,0.0,0.0,0.0,0.0,0.0,0.0,0.0,0.0,0.0,0.0,0.0,0.0,0.0,0.0,0.0,0.0,0.0,0.0,0.0,0.0,0.0,0.0,0.0,0.0,0.0,0.0,0.0,0.0,0.0,0.0,0.0,0.0,0.0,0.0,0.0,0.0,0.0,0.0,0.0,0.0,0.0,0.0,0.0,0.0,0.0,0.0,0.0,0.0,0.0,0.0,0.0,0.0,0.0,0.0,0.0,0.0,0.0,0.0,0.0,0.0,0.0,0.0,0.0,0.0,0.0,0.0,0.0,0.0,0.0,0.0,0.0,0.0,0.0,0.0,0.0,0.0,0.0,0.0,0.0,0.0,0.0,0.0,0.0,0.0,0.0,0.0,0.0,0.0,0.0,0.0,0.0,0.0,0.0,0.0,0.0,0.0,0.0,0.0,0.0,0.0,-0.5817,-0.7359,-0.9458,-1.2107,-1.5301,-1.4679,-1.5835,0.0,0.0,0.0,0.0,0.0,0.0,0.0,0.0,0.0,0.0,0.0,0.0,0.0,0.0,0.0,0.0,0.0,0.0,0.0,0.0,0.0,0.0,0.0,0.0,0.0,0.0,0.0,0.0,0.0,0.0,0.0,0.0,0.0,0.0,0.0,0.0,0.0,0.0,0.0,0.0,0.0,0.0,0.0,0.0,0.0,0.0,0.0,0.0,0.0,0.0,0.0,0.0,0.0,0.0,0.0,0.0,0.0,0.0,0.0,0.0,0.0,0.0,0.0,0.0,0.0,0.0,0.0,0.0,0.0,0.0,0.0,0.0,0.0,0.0,0.0,0.0,0.0,0.0,0.0,0.0,0.0,0.0,0.0,0.0,0.0,0.0,0.0,0.0,0.0,0.0,0.0,0.0,0.0,0.0,0.0,0.0,0.0,0.0,0.0,0.0,0.0,0.0,0.0,0.0,0.0,0.0,0.0,0.0,-0.6531,-0.7236,-1.0609,-1.3365,-1.557,-1.441,-1.5626,0.0,0.0,0.0,0.0,0.0,0.0,0.0,0.0,0.0,0.0,0.0,0.0,0.0,0.0,0.0,0.0,0.0,0.0,0.0,0.0,0.0,0.0,0.0,0.0,0.0,0.0,0.0,0.0,0.0,0.0,0.0,0.0,0.0,0.0,0.0,0.0,0.0,0.0,0.0,0.0,0.0,0.0,0.0,0.0,0.0,0.0,0.0,0.0,-1.8738,0.0,0.0,0.0,0.0,0.0,0.0,0.0,0.0,0.0,0.0,0.0,0.0,0.0,0.0,0.0,0.0,0.0,0.0,0.0,0.0,0.0,0.0,0.0,0.0,0.0,0.0,0.0,0.0,0.0,0.0,0.0,0.0,0.0,0.0,0.0,0.0,0.0,0.0,0.0,0.0,0.0,0.0,0.0,0.0,0.0,0.0,0.0,0.0,0.0,0.0,0.0,0.0,0.0,0.0,0.0,0.0,0.0,0.0,0.0,-0.72,-0.8208,-1.1167,-1.364,-1.5534,-1.5534,-1.6855,0.0,0.0,0.0,0.0,0.0,0.0,0.0,0.0,0.0,0.0,0.0,0.0,0.0,0.0,0.0,0.0,0.0,0.0,0.0,0.0,0.0,0.0,0.0,0.0,0.0,0.0,0.0,0.0,0.0,0.0,0.0,0.0,0.0,0.0,0.0,0.0,0.0,0.0,0.0,0.0,0.0,0.0,0.0,0.0,0.0,0.0,0.0,0.0,0.0,0.0,0.0,0.0,0.0,0.0,0.0,0.0,0.0,0.0,0.0,0.0,0.0,0.0,0.0,0.0,0.0,0.0,0.0,0.0,0.0,0.0,0.0,0.0,0.0,0.0,0.0,0.0,0.0,0.0,0.0,0.0,0.0,0.0,0.0,0.0,0.0,0.0,0.0,0.0,0.0,0.0,0.0,0.0,0.0,0.0,0.0,0.0,0.0,0.0,0.0,0.0,0.0,0.0,0.0,0.0,0.0,0.0,0.0,-0.6791,-0.7984,-0.968,-1.1691,-1.3843,-1.5956,-1.7161,-1.8724,-2.0617,0.0,0.0,0.0,0.0,0.0,0.0,0.0,0.0,0.0,0.0,0.0,0.0,0.0,0.0,0.0,0.0,0.0,0.0,0.0,0.0,0.0,0.0,0.0,0.0,0.0,0.0,0.0,0.0,0.0,0.0,0.0,0.0,0.0,0.0,0.0,0.0,0.0,0.0,-1.1174,-0.8452,0.0,0.0,0.0,0.0,0.0,0.0,0.0,0.0,-2.1268,0.0,0.0,0.0,0.0,0.0,0.0,0.0,0.0,0.0,0.0,0.0,0.0,0.0,0.0,0.0,0.0,0.0,0.0,0.0,0.0,0.0,0.0,0.0,0.0,0.0,0.0,0.0,0.0,0.0,0.0,0.0,0.0,0.0,0.0,0.0,0.0,0.0,0.0,0.0,0.0,0.0,0.0,0.0,0.0,0.0,0.0,0.0,0.0,0.0,0.0,0.0,0.0,0.0,0.0,0.0,0.0,-0.7439,-0.7831,-0.9033,-1.1189,-1.3255,-1.5246,-1.7087,-1.9409,-2.0663,-2.0387,0.0,0.0,0.0,0.0,0.0,0.0,0.0,0.0,0.0,0.0,0.0,0.0,0.0,0.0,0.0,0.0,0.0,0.0,0.0,0.0,0.0,0.0,0.0,0.0,0.0,0.0,0.0,0.0,0.0,0.0,0.0,0.0,0.0,0.0,0.0,0.0,0.0,0.0,0.0,-0.8028,-0.801,0.0,0.0,0.0,0.0,0.0,0.0,0.0,0.0,-2.1544,0.0,0.0,0.0,0.0,0.0,0.0,0.0,0.0,0.0,0.0,0.0,0.0,0.0,0.0,0.0,0.0,0.0,0.0,0.0,0.0,0.0,0.0,0.0,0.0,0.0,0.0,0.0,0.0,0.0,0.0,0.0,0.0,0.0,0.0,0.0,0.0,0.0,0.0,0.0,0.0,0.0,0.0,0.0,0.0,0.0,0.0,0.0,0.0,0.0,0.0,0.0,0.0,0.0,0.0,0.0,-0.7664,-0.8903,-1.0067,-1.1338,-1.4076,-1.5991,-1.6921,-1.9138,-2.0249,0.0,0.0,0.0,0.0,0.0,0.0,0.0,0.0,0.0,0.0,0.0,0.0,0.0,0.0,0.0,0.0,0.0,0.0,0.0,0.0,0.0,0.0,0.0,0.0,0.0,0.0,0.0,0.0,0.0,0.0,0.0,0.0,0.0,0.0,0.0,0.0,0.0,0.0,0.0,0.0,-0.9499,-0.9434,-1.1271,0.0,0.0,0.0,0.0,0.0,0.0,-2.2147,-2.283,0.0,0.0,0.0,0.0,0.0,0.0,0.0,0.0,0.0,0.0,0.0,0.0,0.0,0.0,0.0,0.0,0.0,0.0,0.0,0.0,0.0,0.0,0.0,0.0,0.0,0.0,0.0,0.0,0.0,0.0,0.0,0.0,0.0,0.0,0.0,0.0,0.0,0.0,0.0,0.0,0.0,0.0,0.0,0.0,0.0,0.0,0.0,0.0,0.0,0.0,0.0,0.0,0.0,0.0,0.0,-0.7468,-0.9517,-1.0971,-1.1633,-1.4498,-1.6281,-1.6863,-1.8624,-1.966,0.0,0.0,0.0,0.0,0.0,0.0,0.0,0.0,0.0,0.0,0.0,0.0,0.0,0.0,0.0,0.0,0.0,0.0,0.0,0.0,0.0,0.0,0.0,0.0,0.0,0.0,0.0,0.0,0.0,0.0,0.0,0.0,0.0,0.0,0.0,0.0,0.0,0.0,0.0,0.0,0.0,-1.1456,-1.3339,-1.4511,0.0,0.0,0.0,0.0,-2.3305,-2.4147,0.0,0.0,0.0,0.0,0.0,0.0,0.0,0.0,0.0,0.0,0.0,0.0,0.0,0.0,0.0,0.0,0.0,0.0,0.0,0.0,0.0,0.0,0.0,0.0,0.0,0.0,0.0,0.0,0.0,0.0,0.0,0.0,0.0,0.0,0.0,0.0,0.0,0.0,0.0,0.0,0.0,0.0,0.0,0.0,0.0,0.0,0.0,0.0,0.0,0.0,0.0,0.0,0.0,0.0,0.0,0.0,-0.7549,-0.9276,-1.1203,-1.3209,-1.4719,-1.6186,-1.779,-1.9751,-2.0047,0.0,0.0,0.0,0.0,0.0,0.0,0.0,0.0,0.0,0.0,0.0,0.0,0.0,0.0,0.0,0.0,0.0,0.0,0.0,0.0,0.0,0.0,0.0,0.0,0.0,0.0,0.0,0.0,0.0,0.0,0.0,0.0,0.0,0.0,0.0,0.0,0.0,0.0,0.0,0.0,0.0,-1.3836,-1.4794,-1.6571,-1.8522,0.0,0.0,-2.3518,-2.6748,-2.74,0.0,0.0,0.0,0.0,0.0,0.0,0.0,0.0,0.0,0.0,0.0,0.0,0.0,0.0,0.0,0.0,0.0,0.0,0.0,0.0,0.0,0.0,0.0,0.0,0.0,0.0,0.0,0.0,0.0,0.0,0.0,0.0,0.0,0.0,0.0,0.0,0.0,0.0,0.0,0.0,0.0,0.0,0.0,0.0,0.0,0.0,0.0,0.0,0.0,0.0,0.0,0.0,0.0,0.0,0.0,-1.0211,-0.9354,-1.1228,-1.2742,-1.3907,-1.5421,-1.6813,-1.8292,-1.9416,-1.9795,0.0,0.0,0.0,0.0,0.0,0.0,0.0,0.0,0.0,0.0,0.0,0.0,0.0,0.0,0.0,0.0,0.0,0.0,0.0,0.0,0.0,0.0,0.0,0.0,0.0,0.0,0.0,0.0,0.0,0.0,0.0,0.0,0.0,0.0,0.0,0.0,0.0,0.0,0.0,0.0,0.0,0.0,-1.716,-1.867,0.0,0.0,0.0,-2.5761,-2.7096,0.0,0.0,0.0,0.0,0.0,0.0,0.0,0.0,0.0,0.0,0.0,0.0,0.0,0.0,0.0,0.0,0.0,0.0,0.0,0.0,0.0,0.0,0.0,0.0,0.0,0.0,0.0,0.0,0.0,0.0,0.0,0.0,0.0,0.0,0.0,0.0,0.0,0.0,0.0,0.0,0.0,0.0,0.0,0.0,0.0,0.0,0.0,0.0,0.0,0.0,0.0,0.0,0.0,0.0,0.0,0.0,0.0,-1.0692,-1.2655,-1.3844,-1.4335,-1.6157,-1.7471,-1.8424,-1.926,0.0,0.0,0.0,0.0,0.0,0.0,0.0,0.0,0.0,0.0,0.0,0.0,0.0,0.0,0.0,0.0,0.0,0.0,0.0,0.0,0.0,0.0,0.0,0.0,0.0,0.0,0.0,-2.294,0.0,0.0,0.0,0.0,0.0,0.0,0.0,0.0,0.0,0.0,0.0,0.0,0.0,0.0,-1.706,-1.9335,-2.0965,-2.2658,0.0,0.0,-2.7897,-2.7863,-2.8993,-2.9121,0.0,0.0,0.0,0.0,0.0,0.0,0.0,0.0,0.0,0.0,0.0,0.0,0.0,0.0,0.0,0.0,0.0,0.0,0.0,0.0,0.0,0.0,0.0,0.0,0.0,0.0,0.0,0.0,0.0,0.0,0.0,0.0,0.0,0.0,0.0,0.0,0.0,0.0,0.0,0.0,0.0,0.0,0.0,0.0,0.0,0.0,0.0,0.0,0.0,0.0,0.0,0.0,0.0,0.0,-1.1237,-1.0697,-1.2655,-1.3939,-1.4329,-1.6725,-1.8015,-1.82,-2.0054,-2.0408,0.0,0.0,0.0,0.0,0.0,0.0,0.0,0.0,0.0,0.0,0.0,0.0,0.0,0.0,0.0,0.0,0.0,0.0,0.0,0.0,0.0,0.0,0.0,0.0,0.0,0.0,0.0,0.0,0.0,0.0,0.0,0.0,0.0,0.0,0.0,0.0,0.0,0.0,0.0,0.0,0.0,-1.8834,-2.0895,-2.3226,-2.5743,0.0,-2.9166,-2.9508,-3.0451,-3.1738,-3.1279,-2.7578,0.0,0.0,0.0,0.0,0.0,0.0,0.0,0.0,0.0,0.0,0.0,0.0,0.0,0.0,0.0,0.0,0.0,0.0,0.0,0.0,0.0,0.0,0.0,0.0,0.0,0.0,0.0,0.0,0.0,0.0,0.0,0.0,0.0,0.0,0.0,0.0,0.0,0.0,0.0,0.0,0.0,0.0,0.0,0.0,0.0,0.0,0.0,0.0,0.0,0.0,0.0,0.0,0.0,-1.2657,-1.2778,-1.3862,-1.5107,-1.6402,-1.7385,-1.8606,-2.0062,-2.0835,-2.082,0.0,0.0,0.0,0.0,0.0,0.0,0.0,0.0,0.0,0.0,0.0,0.0,0.0,0.0,0.0,0.0,0.0,0.0,0.0,0.0,0.0,0.0,0.0,0.0,0.0,0.0,0.0,0.0,-1.8922,-1.861,-1.8156,0.0,0.0,0.0,0.0,0.0,0.0,0.0,0.0,0.0,0.0,-2.2082,-2.394,-2.6161,0.0,0.0,-2.9777,-3.0552,-3.1141,-3.0781,-2.9726,-2.7734,-2.8268,0.0,0.0,0.0,0.0,0.0,0.0,0.0,0.0,0.0,0.0,0.0,0.0,0.0,0.0,0.0,0.0,0.0,0.0,0.0,0.0,0.0,0.0,0.0,0.0,0.0,0.0,0.0,0.0,0.0,0.0,0.0,0.0,0.0,0.0,0.0,0.0,0.0,0.0,0.0,0.0,0.0,0.0,0.0,0.0,0.0,0.0,0.0,0.0,0.0,0.0,0.0,0.0,-1.35,-1.4082,-1.4663,-1.5868,-1.7669,-1.8048,-1.9222,-2.1203,-2.1658,-2.1494,0.0,0.0,0.0,0.0,0.0,0.0,0.0,0.0,0.0,0.0,0.0,0.0,0.0,0.0,0.0,0.0,0.0,0.0,0.0,0.0,0.0,0.0,0.0,0.0,0.0,0.0,0.0,0.0,-1.896,-1.9036,-1.941,0.0,0.0,0.0,0.0,0.0,0.0,0.0,0.0,0.0,0.0,-2.4674,-2.6508,-2.8014,-2.9066,-2.9278,-2.9811,-3.0295,-3.0693,-2.9824,-2.88,-2.7978,0.0,0.0,0.0,0.0,0.0,0.0,0.0,0.0,0.0,0.0,0.0,0.0,0.0,0.0,0.0,0.0,0.0,0.0,0.0,0.0,0.0,0.0,0.0,0.0,0.0,0.0,0.0,0.0,0.0,0.0,-2.0625,0.0,0.0,0.0,0.0,0.0,0.0,0.0,0.0,0.0,0.0,0.0,0.0,0.0,0.0,0.0,0.0,0.0,0.0,0.0,0.0,0.0,0.0,-1.3581,-1.4088,-1.4757,-1.5959,-1.7755,-1.8864,-2.0034,-2.1293,-2.2403,-2.2454,-2.125,0.0,0.0,0.0,0.0,0.0,0.0,0.0,0.0,0.0,0.0,0.0,0.0,0.0,0.0,0.0,0.0,0.0,0.0,0.0,0.0,0.0,0.0,0.0,0.0,0.0,0.0,-1.9492,-1.8839,-1.9102,0.0,0.0,0.0,0.0,0.0,0.0,0.0,0.0,0.0,0.0,-2.3842,-2.6241,-2.8003,-2.8173,-2.8602,-2.9996,-2.9205,-2.8574,-2.8933,-2.9297,-2.9253,0.0,0.0,0.0,0.0,0.0,0.0,0.0,0.0,0.0,0.0,0.0,0.0,0.0,0.0,0.0,0.0,0.0,0.0,0.0,0.0,0.0,0.0,0.0,0.0,0.0,0.0,0.0,-1.8988,-2.0553,0.0,0.0,0.0,0.0,0.0,0.0,0.0,0.0,0.0,0.0,0.0,-1.9154,-2.0277,0.0,0.0,0.0,0.0,0.0,0.0,0.0,0.0,0.0,0.0,0.0,0.0,-1.5302,-1.558,-1.6718,-1.8145,-2.0008,-2.0486,-2.1302,-2.2492,-2.2872,-2.2539,-2.1269,0.0,0.0,0.0,0.0,0.0,0.0,0.0,0.0,0.0,0.0,0.0,0.0,0.0,0.0,0.0,0.0,0.0,0.0,0.0,0.0,0.0,0.0,0.0,0.0,0.0,-2.2408,0.0,0.0,0.0,0.0,0.0,0.0,0.0,0.0,0.0,0.0,0.0,-2.2325,-2.4075,-2.5964,-2.7676,-2.9012,-2.9371,-2.9587,0.0,0.0,0.0,0.0,0.0,0.0,0.0,0.0,0.0,0.0,0.0,0.0,0.0,0.0,-3.5156,-3.0148,-2.8391,-2.8061,-2.9427,0.0,0.0,0.0,0.0,0.0,0.0,0.0,0.0,0.0,0.0,0.0,0.0,0.0,0.0,-2.0326,0.0,-2.1974,0.0,0.0,0.0,0.0,0.0,0.0,0.0,0.0,-2.0198,-2.0624,-2.0695,-2.1988,-2.232,0.0,-2.2515,-2.251,0.0,0.0,0.0,0.0,0.0,0.0,0.0,0.0,-1.658,-1.6914,-1.7892,-1.9374,-2.1159,-2.1157,-2.1706,-2.3047,-2.2998,-2.2461,-2.1484,-2.1732,-2.191,0.0,0.0,0.0,0.0,0.0,0.0,0.0,0.0,0.0,0.0,0.0,0.0,0.0,0.0,0.0,0.0,0.0,0.0,0.0,0.0,0.0,0.0,0.0,-2.2907,0.0,0.0,0.0,0.0,0.0,0.0,0.0,0.0,0.0,-2.0003,-2.2223,-2.4494,-2.5928,-2.7373,-2.8511,-2.905,0.0,0.0,0.0,0.0,0.0,0.0,0.0,-2.8141,-3.0301,-3.0754,-3.143,-3.3351,-3.5443,-3.6711,-3.5932,0.0,0.0,-3.2527,-3.1039,-3.0715,-3.1697,-3.1552,-3.1577,-3.2632,-3.2641,-3.2503,0.0,0.0,0.0,0.0,0.0,0.0,0.0,0.0,-2.0039,-2.1413,0.0,-2.3448,0.0,0.0,0.0,0.0,0.0,-1.9684,0.0,0.0,-2.1924,-2.264,-2.3135,-2.3613,-2.3584,-2.3203,-2.3574,-2.333,-2.248,-2.126,0.0,0.0,0.0,0.0,0.0,0.0,-1.7384,-1.8029,-1.8404,-1.9453,-2.1318,-2.1002,-2.1544,-2.3018,-2.2754,-2.2344,-2.1914,-2.2459,-2.2499,-2.2007,-2.2846,0.0,0.0,0.0,0.0,0.0,0.0,0.0,0.0,0.0,0.0,0.0,0.0,0.0,0.0,0.0,0.0,0.0,0.0,0.0,0.0,-2.32,0.0,0.0,0.0,0.0,0.0,0.0,0.0,0.0,0.0,0.0,-2.2783,-2.4524,-2.6163,-2.6798,0.0,0.0,0.0,0.0,-2.7728,-2.7764,-2.7333,-2.7188,-2.7639,-2.8018,-2.8904,-3.0754,0.0,0.0,-3.4622,-3.5658,-3.6049,-3.4919,-3.5287,-3.6024,-3.74,-3.6056,-3.5236,-3.5261,-3.4397,-3.3922,-3.3872,-3.3458,-3.3093,-2.7224,0.0,0.0,0.0,0.0,-1.7973,-1.8665,-2.1664,-2.208,-2.3103,-2.4392,-2.4652,0.0,0.0,0.0,0.0,0.0,0.0,-2.1976,-2.2524,-2.3104,-2.3467,-2.3623,-2.4283,-2.4254,-2.3623,-2.3849,-2.3624,-2.2949,-2.2285,-2.1416,-2.0391,0.0,0.0,0.0,0.0,-1.9427,-1.9206,-2.0283,-2.1269,-2.2141,-2.2026,-2.2351,-2.3135,-2.3027,-2.2764,-2.2344,-2.3556,-2.3963,-2.3575,-2.4056,0.0,0.0,0.0,0.0,0.0,0.0,0.0,0.0,0.0,0.0,0.0,0.0,0.0,0.0,0.0,0.0,0.0,0.0,0.0,-2.2839,-2.2962,-2.3037,0.0,0.0,0.0,0.0,0.0,0.0,0.0,0.0,0.0,-2.6126,-2.7036,-2.7641,0.0,0.0,-2.8717,-2.8301,-2.8182,-2.8106,-2.8125,-2.8058,0.0,0.0,-2.7969,-2.8978,-3.1982,-3.4485,-3.6084,-3.6388,-3.6467,-3.6113,-3.5362,-3.542,-3.5567,-3.5584,-3.4977,-3.4537,-3.4788,-3.4387,-3.4048,-3.4361,-3.4048,-3.352,-2.8965,-2.7331,-2.3425,-2.1595,-2.0925,-1.8596,-1.9462,-2.2639,-2.2639,-2.3794,-2.5801,-2.5293,-2.4258,-2.2861,-2.2353,0.0,0.0,0.0,-2.29,-2.3076,-2.3584,-2.3701,-2.3574,-2.4195,-2.4085,-2.3545,-2.3644,-2.3506,-2.3135,-2.2715,-2.2119,-2.1357,0.0,0.0,-1.9254,-2.0284,-2.062,-2.0295,-2.1149,-2.1836,-2.2256,-2.2432,-2.2637,-2.2881,-2.3057,-2.3018,-2.2764,-2.3677,-2.4204,-2.4113,-2.44,-2.4406,0.0,0.0,0.0,0.0,0.0,0.0,0.0,0.0,0.0,0.0,0.0,-3.0637,-2.868,0.0,0.0,0.0,-2.3881,-2.3182,-2.2766,-2.3174,0.0,0.0,0.0,0.0,0.0,0.0,0.0,-2.4394,-2.5555,-2.6467,-2.6855,-2.7428,-2.7862,-2.8298,-2.8359,-2.8192,-2.7639,0.0,-2.7744,-2.7607,-2.7721,-2.781,-2.7766,-2.8014,-2.9301,-3.2485,-3.4786,-3.6137,-3.6169,-3.5772,-3.5313,-3.4961,-3.4515,-3.4081,-3.3796,-3.3282,-3.3244,-3.4173,-3.4135,-3.3972,-3.4073,-3.3621,-3.3119,-2.9893,-2.9153,-2.4849,-2.2135,-2.0446,-1.8833,-1.9769,-2.2295,-2.2382,-2.3962,-2.6768,-2.5596,-2.4785,-2.4248,-2.3086,0.0,-2.2578,-2.2959,-2.3135,-2.3144,-2.3555,-2.3525,-2.3076,-2.3555,-2.3535,-2.3144,-2.3144,-2.3125,-2.3066,-2.2705,-2.248,-2.2402,-2.206,-2.1484,-2.0732,-2.1045,-2.124,-2.124,-2.124,-2.1426,-2.1826,-2.2275,-2.251,-2.2519,-2.2881,-2.3086,-2.3066,-2.3206,-2.3456,-2.3874,-2.401,-2.4068,-2.3923,0.0,0.0,0.0,0.0,0.0,0.0,0.0,0.0,0.0,0.0,0.0,0.0,0.0,0.0,0.0,-2.2828,0.0,-2.3155,-2.3534,0.0,0.0,0.0,-2.416,-2.3398,-2.4398,-2.4938,-2.4463,0.0,0.0,-2.5703,-2.634,-2.7173,-2.7981,-2.786,-2.739,-2.6574,-2.6768,-2.6885,-2.6497,-2.6731,-2.6888,-2.6987,-2.7955,-2.9597,-3.1895,-3.3564,-3.4438,-3.4446,-3.4114,-3.3763,-3.3696,-3.2867,-3.2158,-3.2147,-3.18,-3.1863,-3.3307,-3.3608,-3.3495,-3.3043,-3.2541,-3.2177,-2.9463,-2.8813,-2.5473,-2.3661,-2.2742,-2.0813,-2.1063,-2.3005,-2.3799,-2.4693,-2.5508,-2.5195,-2.4463,-2.3428,-2.3125,-2.2988,-2.2998,-2.3008,-2.3144,-2.3144,-2.3242,-2.3232,-2.3144,-2.3252,-2.3242,-2.3144,-2.3144,-2.2978,-2.2666,-2.2559,-2.2178,-2.1582,-2.1768,-2.1777,-2.1572,-2.1348,-2.124,-2.124,-2.124,-2.1289,-2.1406,-2.2129,-2.251,-2.251,-2.2617,-2.2666,-2.2646,-2.2757,-2.2913,-2.3019,-2.3372,-2.3314,-2.2858,-2.3231,0.0,0.0,0.0,0.0,0.0,0.0,0.0,0.0,0.0,-3.0093,-2.7228,0.0,-2.836,0.0,-2.4037,-2.3477,-2.3192,-2.3534,0.0,0.0,-2.46,-2.4834,-2.4639,-2.4908,-2.489,-2.4502,-2.4957,-2.5366,-2.5225,-2.5662,-2.5937,-2.592,-2.6624,-2.7052,-2.6904,-2.6947,-2.6826,-2.6506,-2.6439,-2.6377,-2.634,-2.784,-2.9459,-3.0121,-3.1624,-3.2769,-3.2771,-3.2334,-3.2009,-3.1996,-3.1775,-3.1614,-3.158,-3.1442,-3.1336,-3.1436,-3.1712,-3.1951,-3.1813,-3.1675,-3.1474,-2.9199,-2.8426,-2.6149,-2.482,-2.4088,-2.1674,-2.1604,-2.3021,-2.4035,-2.4857,-2.5332,-2.4746,-2.3994,-2.3154,-2.3144,-2.3144,-2.3144,-2.3144,-2.3144,-2.3144,-2.3144,-2.3144,-2.3144,-2.3144,-2.3037,-2.2861,-2.2861,-2.2646,-2.2236,-2.2041,-2.1797,-2.1523,-2.1377,-2.1494,-2.1855,-2.1455,-2.124,-2.124,-2.1045,-2.1035,-2.124,-2.1699,-2.2041,-2.2217,-2.2236,-2.2139,-2.1943,-2.182,-2.2118,-2.3005,-2.3136,-2.3231,-2.349,-2.3725,-2.3466,0.0,0.0,0.0,0.0,0.0,0.0,0.0,0.0,0.0,0.0,0.0,-2.819,-2.6177,-2.5352,-2.4698,-2.4179,-2.4323,-2.4396,-2.4212,-2.4531,-2.4697,-2.4512,-2.4639,-2.4726,-2.439,-2.4604,-2.4815,-2.4775,-2.5015,-2.5015,-2.4811,-2.5381,-2.5953,-2.6104,-2.6104,-2.6084,-2.5887,-2.5624,-2.5899,-2.6537,-2.7854,-2.9138,-3.0163,-3.1174,-3.1825,-3.1795,-3.1379,-3.1022,-3.1021,-3.0813,-3.0678,-3.0678,-3.0675,-3.0557,-3.0394,-3.047,-3.0658,-3.067,-3.0683,-3.057,-2.8768,-2.8096,-2.6578,-2.5468,-2.4593,-2.2201,-2.1821,-2.2892,-2.3724,-2.465,-2.541,-2.4228,-2.3496,-2.3144,-2.3144,-2.3144,-2.3144,-2.3144,-2.3144,-2.3144,-2.3144,-2.3144,-2.3144,-2.3144,-2.292,-2.2529,-2.251,-2.2266,-2.1797,-2.1416,-2.1406,-2.167,-2.0947,-2.0977,-2.1748,-2.1367,-2.1152,-2.1143,-2.081,-2.084,-2.123,-2.1289,-2.1504,-2.1855,-2.1777,-2.1543,-2.1162,-2.0723,-2.1293,-2.2911,-2.2746,-2.3178,-2.4337,-2.4441,-2.429,0.0,-2.3992,0.0,0.0,0.0,0.0,0.0,0.0,0.0,0.0,-2.7806,-2.7498,-2.741,-2.6561,-2.5942,-2.5571,-2.5612,-2.5249,-2.4316,-2.4595,-2.4705,-2.4376,-2.4598,-2.4678,-2.4559,-2.4524,-2.4374,-2.4219,-2.4248,-2.4281,-2.4205,-2.4296,-2.4446,-2.4898,-2.498,-2.5005,-2.4909,-2.4568,-2.4997,-2.6702,-2.7478,-2.8448,-3.0379,-3.0935,-3.1082,-3.1137,-3.0633,-3.0284,-3.0276,-2.9921,-2.9578,-2.9578,-2.9578,-2.9566,-2.9541,-2.9553,-2.9641,-2.9804,-2.9792,-2.9691,-2.6802,-2.7649,-2.5761,-2.481,-2.4359,-2.3405,-2.3164,-2.3362,-2.4029,-2.4262,-2.4121,-2.3525,-2.3213,-2.3144,-2.3144,-2.3144,-2.3144,-2.3144,-2.3144,-2.3144,-2.3144,-2.3144,-2.3144,-2.3144,-2.292,-2.2529,-2.251,-2.2109,-2.1357,-2.1199,-2.1094,-2.081,-2.0644,-2.084,-2.1309,0.0,0.0,0.0,-2.0977,-2.1152,-2.124,-2.1582,-2.1797,-2.1865,-2.1191,0.0,-2.0684,-2.0273,-2.018,-2.0537,-2.0853,0.0,0.0,0.0,0.0,0.0,0.0,0.0,0.0,0.0,0.0,0.0,-2.8306,-2.8037,-2.8151,-2.8401,-2.8386,-2.798,-2.7813,-2.7284,-2.6374,-2.659,-2.6689,-2.6529,-2.6835,-2.6997,-2.6932,-2.6721,-2.6237,-2.53,-2.4897,-2.4391,-2.3614,-2.329,-2.3379,-2.3448,-2.334,-2.3516,-2.4006,-2.4351,-2.4446,-2.4057,-2.3796,-2.3907,-2.5135,-2.625,-2.7269,-2.8445,-2.9113,-2.9578,-2.9973,-2.9303,-2.875,-2.9098,-2.8787,-2.8448,-2.8436,-2.8423,-2.8499,-2.8436,-2.8448,-2.8699,-2.9566,-2.9415,-2.9101,-2.6559,0.0,-2.6047,-2.528,0.0,-2.416,-2.3869,-2.3682,-2.4224,-2.418,-2.376,-2.333,-2.3144,-2.3144,-2.3144,-2.3144,-2.3144,-2.3144,-2.3144,-2.3144,-2.3144,-2.3144,-2.3144,-2.3144,-2.2775,-2.2194,-2.2162,-2.1758,-2.0937,-2.0908,-2.0781,-2.0576,-2.0576,-2.0684,-2.0889,-2.0684,-2.0576,-2.0576,-2.0791,-2.0898,-2.0918,-2.1113,-2.123,-2.1221,0.0,0.0,0.0,0.0,0.0,0.0,0.0,0.0,0.0,0.0,0.0,-2.4728,-2.5084,-2.5652,-2.6445,-2.6521,-2.6942,-2.8034,-2.836,-2.8511,-2.8499,-2.9025,-2.9202,-2.8954,-2.8978,-2.8504,-2.7431,-2.7499,-2.7412,-2.6936,-2.6981,-2.7115,-2.7075,-2.6976,-2.6617,-2.6044,-2.554,-2.5031,-2.4808,-2.3967,-2.3727,-2.3897,-2.3464,-2.3125,-2.3193,-2.3534,-2.3777,-2.4206,-2.3877,-2.419,-2.5617,-2.62,-2.6827,-2.787,-2.8341,-2.8635,-2.8915,-2.852,-2.8163,-2.8396,-2.829,-2.81,-2.8125,-2.8088,-2.8109,-2.8109,-2.8109,-2.8247,-2.8863,-2.8725,-2.8511,-2.6487,-2.6377,-2.6221,-2.5742,-2.5029,-2.4531,-2.4062,-2.3701,0.0,0.0,0.0,-2.3301,-2.3144,-2.3144,-2.3144,-2.3144,-2.3144,-2.3144,-2.3144,-2.3144,-2.3144,-2.3144,-2.3144,-2.3057,-2.2629,-2.1887,-2.1812,-2.1357,-2.0596,-2.0576,-2.0576,-2.0566,-2.0498,-2.042,-2.0342,-2.0342,-2.0381,-2.0459,-2.0605,-2.0684,-2.0693,-2.0684,-2.0684,-2.0693,-2.0459,-2.0166,-1.9814,-1.9805,-2.0128,-2.0845,-2.1843,-2.2726,-2.3421,-2.4776,-2.5487,-2.5299,-2.5745,-2.6219,-2.6427,-2.6521,-2.6741,-2.7381,-2.826,-2.8825,-2.8913,-2.9453,-2.9779,-2.9779,-2.9779,-2.9347,-2.8338,-2.8258,-2.7838,-2.6875,-2.6794,-2.6783,-2.6817,-2.6869,-2.6888,-2.6526,-2.6186,-2.5945,-2.5984,-2.4955,-2.431,-2.4503,-2.3795,-2.2908,-2.2595,-2.2725,-2.3142,-2.3859,-2.3794,-2.4512,-2.6184,-2.6665,-2.6964,-2.7907,-2.7965,-2.7873,-2.8004,-2.7842,-2.7776,-2.7914,-2.7921,-2.7768,-2.7816,-2.7748,-2.7795,-2.7821,-2.772,-2.7708,-2.7783,-2.7733,-2.7695,-2.5264,-2.6318,-2.5576,-2.5176,-2.501,-2.4219,-2.3633,-2.3242,-2.3301,-2.3281,-2.3232,-2.3164,-2.3144,-2.3144,-2.3144,-2.3144,-2.3144,-2.3144,-2.3144,0.0,-2.3144,-2.3144,-2.3115,-2.2773,-2.2363,-2.1924,-2.1514,-2.1064,-2.0615,-2.0557,-2.0576,-2.0518,-2.0195,-1.9834,-1.9492,-1.9463,-1.9648,-2.0,-2.0752,-2.1143,-2.1143,-2.1143,-2.1143,-2.1094,-2.0049,-1.9443,-1.9375,-1.9385,-1.9272,-1.899,-1.9816,-2.0368,-2.0509,-2.1475,-2.2463,-2.3694,-2.4159,-2.4971,-2.6408,-2.6521,-2.6904,-2.7871,-2.8147,-2.8423,-2.89,-2.9453,-2.9779,-2.9779,-2.9741,-2.9528,-2.885,-2.8724,-2.8473,-2.7965,-2.7879,-2.7879,-2.7866,-2.8163,-2.7957,-2.6736,-2.6847,-2.6445,-2.5498,-2.4935,-2.4708,-2.4697,-2.3956,-2.2948,-2.2277,-2.2051,-2.2133,-2.2383,-2.2938,-2.3856,-2.5392,-2.6077,-2.6829,-2.7946,-2.7339,-2.7037,-2.7812,-2.6952,-2.6476,-2.7212,-2.6993,-2.681,-2.6734,-2.6741,-2.676,-2.6666,-2.6389,-2.6201,-2.659,-2.6389,-2.6339,-2.4918,-2.5283,-2.4883,-2.458,-2.4326,-2.3701,-2.332,-2.3047,-2.2394,-2.2501,-2.3047,-2.3144,-2.3144,-2.3047,-2.2403,-2.2501,-2.3047,-2.2403,-2.2492,-2.3047,-2.3144,-2.3018,-2.2793,-2.2598,-2.2031,-2.1201,-2.0977,-2.0546,-1.9934,-1.9889,-1.9873,-1.9863,-1.9668,-1.9473,-1.9297,-1.9277,-1.9385,-1.958,-1.9971,-2.0283,-2.0508,-2.0293,-2.0176,-2.0176,-1.957,-1.9277,-1.9277,-1.9277,-1.9199,-1.8994,-1.9845,-2.038,-2.039,-2.1235,-2.2285,-2.3411,-2.3627,-2.4279,-2.5511,-2.5573,-2.5787,-2.6289,-2.659,-2.6854,-2.7105,-2.8151,-2.8876,-2.8864,-2.8874,-2.8762,-2.8522,-2.8461,-2.8373,-2.8134,-2.8109,-2.8109,-2.8134,-2.831,-2.8164,-2.752,-2.7348,-2.7078,-2.6677,-2.5814,-2.539,-2.5455,-2.4244,-2.2849,-2.2346,-2.2078,-2.2392,-2.3318,-2.3434,-2.4198,-2.5757,-2.6058,-2.6374,-2.7132,-2.6533,-2.6249,-2.67,-2.5971,-2.5802,-2.5909,-2.5975,-2.5924,-2.5678,-2.5573,-2.5573,-2.5548,-2.5398,-2.5335,-2.5485,-2.5536,-2.5787,-2.4513,-2.4414,-2.4307,-2.4033,-2.3623,-2.3281,-2.295,-2.2668,-2.2031,-2.1943,-2.2227,-2.2315,-2.2315,-2.2217,-2.1212,-2.1353,-2.1989,-2.1438,-2.1567,-2.2399,-2.2669,-2.2685,-2.2383,-2.2275,-2.1641,-2.0644,-2.0469,-2.0017,-1.9367,-1.9281,-1.9238,-1.915,-1.9141,-1.9102,-1.9004,-1.8994,-1.9043,-1.9131,-1.9043,-1.9248,-1.9736,-1.9453,-1.9277,-1.9277,-1.918,-1.9141,-1.9141,-1.9131,-1.9092,-1.9023,-1.9951,-2.0388,-2.0191,-2.1149,-2.2094,-2.2913,-2.2885,-2.3281,-2.4208,-2.4503,-2.4695,-2.482,-2.5184,-2.5423,-2.5507,-2.6581,-2.747,-2.7716,-2.7717,-2.7704,-2.7498,-2.7515,-2.7494,-2.7394,-2.7482,-2.7444,-2.7507,-2.7624,-2.767,-2.754,-2.7139,-2.6974,-2.7059,-2.6247,-2.5505,-2.5283,-2.4071,-2.2885,-2.254,-2.2167,-2.2787,-2.3891,-2.396,-2.41,-2.6058,-2.5915,-2.5707,-2.6163,-2.5674,-2.5489,-2.5489,-2.5465,-2.5204,-2.4951,-2.5215,-2.5294,-2.495,-2.4847,-2.487,-2.4933,-2.4782,-2.4644,-2.4682,-2.5209,-2.5473,-2.372,-2.4293,-2.3994,-2.3594,-2.3223,-2.3164,-2.2492,-2.1756,-2.2492,-2.1676,-2.0042,-1.9861,-1.9844,-1.981,-1.9516,-1.947,-1.9692,-2.0048,-2.0416,-2.0688,-2.1556,-2.1973,-2.1894,-2.1553,-2.1084,-2.0518,-2.0146,-1.9707,-1.9262,-1.9219,-1.9082,-1.874,-1.8701,-1.8446,-1.8193,-1.8154,-1.832,-1.8611,-1.832,-1.8516,-1.9287,-1.9307,-1.9277,-1.9277,-1.8896,-1.8691,-1.8672,-1.8701,-1.8516,-1.8232,-1.898,-1.9049,-1.8468,-1.9404,-2.0568,-2.1485,-2.1167,-2.1433,-2.2791,-2.3614,-2.4255,-2.477,-2.4782,-2.4845,-2.4845,-2.5037,-2.558,-2.6352,-2.6628,-2.6405,-2.5897,-2.5876,-2.5774,-2.5485,-2.5711,-2.5824,-2.595,-2.6345,-2.6458,-2.5862,-2.5892,-2.5598,-2.5357,-2.5099,-2.4578,-2.4029,-2.3594,-2.2971,-2.2358,-2.2138,-2.2408,-2.3364,-2.3753,-2.3928,-2.4225,-2.4448,-2.5043,-2.5473,-2.4858,-2.472,-2.5086,-2.4823,-2.4217,-2.4521,-2.4825,-2.4784,-2.4717,-2.4809,-2.4732,-2.4544,-2.4318,-2.4067,-2.418,-2.4795,-2.5222,-2.3486,-2.3652,-2.3477,-2.331,-2.3067,-2.3144,-2.2862,-2.2315,-2.1311,-2.0404,-1.9372,-1.7827,-1.8182,-2.0138,-1.9462,-1.9284,-1.9669,-1.9341,-1.9519,-2.0289,-2.1358,-2.1611,-2.1133,-2.1221,-2.0625,-1.9521,-1.9502,-1.9189,-1.8633,-1.8535,-1.8437,-1.8281,-1.8262,-1.8184,-1.8018,-1.8008,-1.8096,-1.8252,-1.8096,-1.8184,-1.8486,-1.8535,-1.8535,-1.8516,-1.835,-1.8135,-1.792,-1.79,-1.7695,-1.7314,-1.7598,-1.7617,-1.7285,-1.8165,-1.8892,-1.9412,-2.0432,-2.1233,-2.1967,-2.2621,-2.31,-2.3339,-2.3326,-2.3464,-2.3778,-2.3802,-2.4003,-2.4494,-2.51,-2.5396,-2.5154,-2.5127,-2.5034,-2.4883,-2.5021,-2.5134,-2.5146,-2.5347,-2.5372,-2.5172,-2.5134,-2.5071,-2.4883,-2.4833,-2.4341,-2.3556,-2.3266,-2.3085,-2.2728,-2.2707,-2.3039,-2.3555,-2.3974,-2.4109,-2.4091,-2.4174,-2.4568,-2.4895,-2.4808,-2.4745,-2.452,-2.4707,-2.441,-2.3938,-2.4142,-2.4137,-2.3806,-2.3821,-2.3754,-2.3816,-2.3766,-2.3489,-2.3477,-2.4104,-2.4343,-2.2881,-2.3076,-2.3144,-2.3144,-2.3144,-2.3144,-2.2687,-2.2022,-2.0471,-1.9529,-1.8672,-1.7274,-1.8041,-1.9876,-1.8575,-1.8159,-1.8523,-1.7989,-1.8287,-1.9445,-2.0473,-2.0678,-2.0449,-2.0566,-1.998,-1.8877,-1.8955,-1.874,-1.8076,-1.8008,-1.8008,-1.8008,-1.8008,-1.8008,-1.8008,-1.8008,-1.8008,-1.7998,-1.791,-1.7832,-1.7842,-1.7832,-1.7832,-1.7842,-1.7842,-1.7637,-1.7236,-1.7314,-1.7178,-1.6704,-1.6665,-1.6665,-1.6728,-1.7201,-1.7626,-1.8129,-2.0049,-2.1134,-2.0917,-2.1753,-2.2193,-2.2064,-2.218,-2.2535,-2.2927,-2.3,-2.2927,-2.3178,-2.3864,-2.4305,-2.4317,-2.4331,-2.4356,-2.4368,-2.4469,-2.4582,-2.4607,-2.4594,-2.4619,-2.4594,-2.4418,-2.4356,-2.4343,-2.4242,-2.3938,-2.3389,-2.3207,-2.3256,-2.328,-2.3203,-2.334,-2.3729,-2.3735,-2.3874,-2.4205,-2.3967,-2.4042,-2.433,-2.4431,-2.4142,-2.3966,-2.4285,-2.4236,-2.3529,-2.3634,-2.3666,-2.3457,-2.3201,-2.3188,-2.315,-2.315,-2.3163,-2.3201,-2.3653,-2.3703,-2.1207,-2.2979,-2.3144,-2.3144,-2.3135,-2.3047,-2.1854,-2.0163,-2.0386,-1.9411,-1.7679,-1.8841,-1.9689,-1.9129,-1.6178,-1.4804,-1.5002,-1.5661,-1.6515,-1.7538,-1.8258,-1.9068,-1.9847,-1.9561,-1.9121,-1.8623,-1.8682,-1.8477,-1.8027,-1.8008,-1.8008,-1.8008,-1.8008,-1.8008,-1.8008,-1.8008,-1.8008,-1.793,-1.7637,-1.7422,-1.7402,-1.7402,-1.7383,-1.7363,-1.7422,-1.7227,-1.6855,-1.7158,-1.7148,-1.6665,-1.6607,-1.6626,-1.6709,-1.6752,-1.7026,-1.7933,-2.0064,-2.0734,-1.9703,-2.1146,-2.1956,-2.1498,-2.1922,-2.2548,-2.3025,-2.2761,-2.2698,-2.304,-2.3238,-2.3288,-2.3288,-2.3389,-2.3303,-2.3364,-2.374,-2.3991,-2.4042,-2.4029,-2.4029,-2.3966,-2.364,-2.3439,-2.324,-2.3153,-2.3265,-2.3144,-2.3142,-2.3119,-2.3132,-2.3156,-2.3205,-2.318,-2.3201,-2.3175,-2.3165,-2.329,-2.3552,-2.3816,-2.3853,-2.3489,-2.359,-2.3602,-2.3351,-2.315,-2.3248,-2.3248,-2.315,-2.3138,-2.315,-2.3198,-2.3245,-2.3245,-2.3125,-2.3615,-2.3653,-2.2358,-2.3144,-2.3144,-2.3144,-2.3047,-2.2306,-2.1706,-2.1204,-1.9356,-1.837,-1.7779,-1.7023,-1.6473,-1.6174,-1.4614,-1.4796,-1.6171,-1.5703,-1.5947,-1.6938,-1.7696,-1.8388,-1.9039,-1.9199,-1.8896,-1.835,-1.8436,-1.8418,-1.8047,-1.8008,-1.8008,-1.8008,-1.8008,-1.8008,-1.8008,-1.8008,-1.7891,-1.7617,-1.7451,-1.7246,-1.6953,-1.6689,-1.6543,-1.6635,-1.71,-1.7051,-1.6318,-1.6465,-1.6338,-1.5908,-1.5889,-1.5889,-1.5889,-1.5889,-1.6396,-1.7633,-1.8874,-1.9147,-1.8601,-2.0459,-2.1485,-2.0851,-2.1703,-2.2477,-2.2915,-2.2902,-2.2865,-2.3027,-2.3125,-2.3125,-2.3125,-2.3125,-2.3125,-2.3163,-2.3314,-2.3477,-2.3452,-2.3378,-2.3391,-2.3414,-2.3238,-2.3138,-2.3125,-2.3125,-2.3125,-2.3125,-2.3125,-2.3125,-2.3125,-2.3125,-2.3125,-2.3125,-2.3125,-2.3125,-2.3138,-2.315,-2.3251,-2.3391,-2.3453,-2.3428,-2.3478,-2.3691,-2.3566,-2.3311,-2.3236,-2.3185,-2.3245,-2.3767,-2.3649,-2.3424,-2.3471,-2.3484,-2.3185,-2.3669,-2.3523,-2.3144,-2.3144,-2.3144,-2.3144,-2.3028,-2.2077,-2.1599,-2.1148,-1.8608,-1.7501,-1.7251,-1.5676,-1.5042,-1.5212,-1.4503,-1.5013,-1.6387,-1.5218,-1.514,-1.61,-1.685,-1.7506,-1.8124,-1.8647,-1.8574,-1.8125,-1.8291,-1.8281,-1.8037,-1.8008,-1.793,-1.7812,-1.7803,-1.7734,-1.7627,-1.7598,-1.7441,-1.7197,-1.7041,-1.6797,-1.6504,-1.623,-1.5986,-1.5977,-1.6572,-1.6621,-1.5889,-1.5986,-1.5869,-1.5478,-1.542,-1.5526,-1.569,-1.5748,-1.6301,-1.7501,-1.8237,-1.8282,-1.7999,-1.9903,-2.094,-2.031,-2.1309,-2.2284,-2.2786,-2.2815,-2.289,-2.3002,-2.3125,-2.3088,-2.2912,-2.3,-2.3125,-2.3125,-2.3125,-2.3125,-2.3125,-2.3138,-2.315,-2.3163,-2.315,-2.3125,-2.3125,-2.3125,-2.3125,-2.3125,-2.3125,-2.3125,-2.3125,-2.3125,-2.3037,-2.2865,-2.3025,-2.2987,-2.2949,-2.2924,-2.3015,-2.3215,-2.3315,-2.3341,-2.3403,-2.3592,-2.3766,-2.3523,-2.3394,-2.333,-2.359,-2.4163,-2.4163,-2.3872,-2.3884,-2.4002,-2.3826,-2.3708,-2.3638,-2.3144,-2.3144,-2.3144,-2.3115,-2.295,-2.2351,-2.1099,-1.9391,-1.8217,-1.7101,-1.6314,-1.5693,-1.5824,-1.653,-1.5315,-1.5195,-1.4954,-1.3901,-1.3931,-1.5065,-1.5567,-1.6349,-1.7403,-1.7777,-1.7978,-1.7862,-1.7949,-1.7949,-1.7959,-1.793,-1.7764,-1.7441,-1.7383,-1.7207,-1.6777,-1.6855,-1.6724,-1.667,-1.6377,-1.6194,-1.6125,-1.6076,-1.583,-1.5547,-1.5889,-1.5918,-1.5459,-1.5811,-1.582,-1.5478,-1.542,-1.5758,-1.6208,-1.6322,-1.6754,-1.7357,-1.8201,-1.8244,-1.7865,-1.9522,-2.0469,-1.9968,-2.0816,-2.1794,-2.2189,-2.2322,-2.2451,-2.283,-2.2915,-2.2811,-2.243,-2.2694,-2.2949,-2.31,-2.3025,-2.3065,-2.3075,-2.31,-2.304,-2.2965,-2.2987,-2.304,-2.3053,-2.3065,-2.3125,-2.3125,-2.3125,-2.3125,-2.3088,-2.3012,-2.2824,-2.2585,-2.2535,-2.2581,-2.2611,-2.2711,-2.2865,-2.304,-2.3103,-2.314,-2.3165,-2.3341,-2.37,-2.3641,-2.3916,-2.391,-2.4266,-2.4838,-2.5119,-2.4881,-2.4794,-2.449,-2.4326,-2.415,-2.4035,-2.3144,-2.3144,-2.3144,-2.2969,-2.2447,-2.0875,-1.9834,-1.9149,-1.6777,-1.566,-1.5609,-1.4936,-1.4698,-1.4614,-1.4097,-1.3766,-1.3536,-1.2954,-1.3572,-1.5024,-1.5348,-1.6121,-1.7316,-1.7204,-1.706,-1.707,-1.706,-1.7203,-1.7494,-1.7578,-1.7353,-1.7012,-1.6934,-1.6875,-1.6709,-1.6655,-1.6611,-1.6289,-1.6143,-1.5928,-1.5654,-1.5625,-1.5547,-1.5449,-1.5547,-1.5547,-1.5439,-1.5547,-1.5547,-1.541,-1.542,-1.5526,-1.57,-1.5748,-1.5864,-1.6197,-1.7291,-1.7633,-1.7312,-1.9136,-2.0358,-2.0019,-2.0754,-2.1494,-2.1736,-2.1788,-2.1861,-2.1979,-2.2005,-2.1882,-2.1851,-2.1914,-2.2033,-2.2008,-2.2661,-2.2865,-2.2623,-2.2573,-2.2385,-2.2121,-2.2322,-2.2523,-2.2648,-2.2824,-2.3027,-2.3125,-2.3125,-2.3125,-2.305,-2.2799,-2.2533,-2.2355,-2.2286,-2.2072,-2.2015,-2.2013,-2.2205,-2.2471,-2.2611,-2.2765,-2.2827,-2.304,-2.3444,-2.3975,-2.4218,-2.456,-2.4996,-2.5301,-2.553,-2.5556,-2.5187,-2.49,-2.4681,-2.4474,-2.4226,-2.2361,-2.258,-2.2208,-2.1893,-2.1448,-1.9497,-1.8556,-1.8096,-1.5851,-1.4908,-1.4724,-1.4118,-1.3667,-1.3447,-1.3173,-1.2939,-1.2802,-1.2438,-1.3134,-1.4584,-1.4681,-1.5309,-1.6222,-1.5984,-1.5806,-1.5945,-1.612,-1.6434,-1.6817,-1.6992,-1.6914,-1.6553,-1.6484,-1.6387,-1.626,-1.624,-1.6074,-1.585,-1.5811,-1.5693,-1.5478,-1.542,-1.542,-1.542,-1.542,-1.542,-1.54,-1.5273,-1.5254,-1.5371,-1.542,-1.5507,-1.5766,-1.5843,-1.5958,-1.6409,-1.7203,-1.7797,-1.7611,-1.9239,-2.0179,-1.9932,-2.0623,-2.1162,-2.1225,-2.1325,-2.1492,-2.1473,-2.153,-2.1411,-2.1268,-2.1398,-2.1292,-2.0891,-2.1832,-2.2297,-2.2046,-2.1995,-2.1895,-2.1694,-2.182,-2.2058,-2.2347,-2.2535,-2.2865,-2.299,-2.3125,-2.2962,-2.282,-2.2522,-2.2249,-2.1964,-2.1724,-2.1491,-2.131,-2.1362,-2.1512,-2.1807,-2.2098,-2.2176,-2.2255,-2.2583,-2.3012,-2.3838,-2.4323,-2.4679,-2.5034,-2.548,-2.577,-2.5618,-2.5363,-2.5112,-2.4759,-2.4427,-2.4174,-2.1211,-2.1553,-2.0736,-2.0316,-1.9964,-1.8742,-1.7636,-1.6377,-1.5606,-1.4727,-1.3852,-1.3407,-1.3233,-1.3126,-1.2906,-1.2829,-1.2741,-1.2378,-1.2587,-1.3214,-1.3435,-1.3603,-1.3777,-1.4136,-1.443,-1.4647,-1.5028,-1.5397,-1.5671,-1.6241,-1.6403,-1.5953,-1.5955,-1.585,-1.5615,-1.5439,-1.5508,-1.5488,-1.5459,-1.5439,-1.542,-1.542,-1.5381,-1.5352,-1.5332,-1.5332,-1.5273,-1.5019,-1.5,-1.5312,-1.5371,-1.5671,-1.6239,-1.644,-1.6588,-1.7191,-1.817,-1.8489,-1.8715,-1.9368,-1.9822,-1.9885,-2.026,-2.068,-2.0677,-2.0978,-2.1192,-2.1181,-2.1255,-2.11,-2.0845,-2.1018,-2.0832,-2.0175,-2.0916,-2.1443,-2.1468,-2.1455,-2.1343,-2.133,-2.1405,-2.1594,-2.2033,-2.2126,-2.2464,-2.2693,-2.2842,-2.263,-2.2356,-2.1987,-2.1631,-2.1361,-2.1142,-2.0885,-2.0639,-2.0727,-2.0857,-2.0951,-2.1287,-2.1506,-2.1919,-2.2394,-2.2827,-2.3699,-2.439,-2.4767,-2.5146,-2.5593,-2.5782,-2.5623,-2.5408,-2.514,-2.479,-2.439,-2.4062,-2.1022,-1.963,-2.0922,-2.0319,-1.8791,-1.8911,-1.7863,-1.5959,-1.5478,-1.4545,-1.3723,-1.334,-1.306,-1.2872,-1.2856,-1.2632,-1.2392,-1.2118,-1.2177,-1.2473,-1.2122,-1.2462,-1.2916,-1.3155,-1.3266,-1.3403,-1.3561,-1.3802,-1.4277,-1.5034,-1.5142,-1.4745,-1.525,-1.5488,-1.542,-1.5294,-1.542,-1.542,-1.541,-1.541,-1.542,-1.542,-1.5254,-1.4971,-1.4961,-1.4951,-1.4951,-1.4853,-1.4814,-1.4951,-1.5264,-1.5459,-1.5641,-1.5756,-1.6079,-1.6787,-1.7486,-1.8178,-1.8715,-1.9359,-1.9747,-1.9798,-1.9974,-2.0024,-2.0024,-2.0162,-2.025,-2.0238,-2.0238,-2.0253,-2.009,-2.019,-2.0062,-1.9974,-2.0464,-2.0916,-2.0911,-2.0874,-2.074,-2.0376,-2.0652,-2.0941,-2.1217,-2.1506,-2.1811,-2.2023,-2.2021,-2.1972,-2.1817,-2.146,-2.1051,-2.0787,-2.0529,-2.0278,-2.0075,-2.0137,-2.0188,-2.011,-2.0441,-2.083,-2.1577,-2.2497,-2.3005,-2.37,-2.4403,-2.4845,-2.5218,-2.5595,-2.56,-2.5315,-2.5029,-2.4652,-2.4505,-2.4176,-2.3865,-1.9143,-1.8112,-1.8806,-1.8283,-1.702,-1.7009,-1.6102,-1.4931,-1.4381,-1.3887,-1.3279,-1.2959,-1.2732,-1.2559,-1.2432,-1.2291,-1.2098,-1.1817,-1.171,-1.163,-1.1323,-1.1469,-1.1976,-1.2006,-1.1977,-1.2152,-1.2357,-1.2641,-1.3068,-1.3772,-1.3935,-1.3847,-1.4154,-1.4392,-1.4332,-1.4392,-1.4628,-1.4815,-1.4932,-1.4991,-1.5352,-1.542,-1.5186,-1.4883,-1.4775,-1.4668,-1.4355,-1.458,-1.4717,-1.4619,-1.4756,-1.4953,-1.51,-1.5282,-1.5684,-1.646,-1.7048,-1.7721,-1.8573,-1.9097,-1.9475,-1.9747,-1.9798,-1.9798,-1.9811,-1.9798,-1.9798,-1.9836,-1.9798,-1.9798,-1.9798,-1.9798,-1.9798,-1.9836,-2.0112,-2.0338,-2.0307,-2.0338,-2.0175,-1.9999,-2.0087,-2.0426,-2.0655,-2.1019,-2.1411,-2.1698,-2.1763,-2.1652,-2.1549,-2.1043,-2.0669,-2.0475,-2.0307,-2.0142,-2.0105,-2.0143,-2.0399,-2.0322,-2.0536,-2.0777,-2.1255,-2.2355,-2.2756,-2.3326,-2.422,-2.4792,-2.4912,-2.4926,-2.4642,-2.4403,-2.4283,-2.4223,-2.4073,-2.4059,-2.3744,-1.6575,-1.6903,-1.5909,-1.5463,-1.5293,-1.417,-1.4034,-1.3541,-1.3423,-1.3105,-1.2808,-1.2452,-1.2345,-1.2245,-1.2064,-1.187,-1.1804,-1.1516,-1.1236,-1.1049,-1.0815,-1.0938,-1.1104,-1.1012,-1.0968,-1.1149,-1.1466,-1.1792,-1.2112,-1.2585,-1.285,-1.294,-1.3,-1.307,-1.3304,-1.3243,-1.3606,-1.4213,-1.4569,-1.4874,-1.5294,-1.54,-1.5195,-1.4844,-1.4658,-1.4228,-1.3896,-1.4111,-1.4414,-1.3951,-1.4087,-1.4443,-1.4744,-1.4945,-1.5562,-1.6328,-1.6927,-1.7661,-1.8513,-1.8874,-1.915,-1.9683,-1.9798,-1.9798,-1.9798,-1.9798,-1.9798,-1.9798,-1.9798,-1.9798,-1.9798,-1.9798,-1.9798,-1.9811,-1.9836,-1.9811,-1.9798,-1.9798,-1.9798,-1.9798,-1.9811,-2.0075,-2.0413,-2.0756,-2.1072,-2.1459,-2.1535,-2.1639,-2.1536,-2.1299,-2.0914,-2.0537,-2.036,-2.0182,-2.0144,-2.0156,-2.057,-2.0828,-2.1164,-2.1376,-2.1202,-2.1882,-2.2219,-2.2844,-2.3703,-2.4044,-2.3998,-2.3864,-2.3789,-2.3804,-2.3909,-2.3789,-2.364,-2.3744,-2.3595,-1.6507,-1.4873,-1.6061,-1.5561,-1.4381,-1.5202,-1.4754,-1.3339,-1.3808,-1.3381,-1.2817,-1.2425,-1.2171,-1.2029,-1.1921,-1.175,-1.1572,-1.1283,-1.0929,-1.0708,-1.0862,-1.0762,-1.0766,-1.0638,-1.0665,-1.0705,-1.0785,-1.0905,-1.1115,-1.1722,-1.2081,-1.2081,-1.252,-1.2948,-1.2948,-1.3304,-1.3974,-1.4273,-1.4737,-1.5002,-1.5206,-1.5312,-1.5127,-1.4727,-1.4414,-1.3838,-1.3291,-1.3506,-1.3564,-1.3503,-1.4003,-1.4446,-1.4365,-1.4629,-1.523,-1.604,-1.6961,-1.7759,-1.8573,-1.915,-1.9579,-1.9747,-1.9798,-1.9798,-1.9798,-1.9798,-1.9798,-1.9798,-1.9798,-1.9798,-1.9798,-1.9798,-1.9798,-1.9798,-1.9798,-1.9798,-1.9798,-1.9798,-1.9798,-1.9798,-1.9811,-1.9861,-2.0051,-2.0603,-2.0901,-2.1173,-2.1437,-2.1633,-2.16,-2.1527,-2.1151,-2.0722,-2.0731,-2.0594,-2.0642,-2.0678,-2.0954,-2.1274,-2.162,-2.2038,-2.1921,-2.1924,-2.2505,-2.2843,-2.3246,-2.3421,-2.3595,-2.361,-2.3684,-2.3625,-2.3595,-2.3595,-2.3595,-2.3595,-2.3595,-1.4938,-1.3804,-1.4661,-1.4381,-1.3586,-1.4172,-1.3896,-1.3138,-1.3264,-1.304,-1.2466,-1.2158,-1.2152,-1.2207,-1.1723,-1.1546,-1.1577,-1.1118,-1.0779,-1.0672,-1.0786,-1.0759,-1.0665,-1.0618,-1.0618,-1.0618,-1.0618,-1.0618,-1.0744,-1.0989,-1.1233,-1.1226,-1.1717,-1.1725,-1.1849,-1.2366,-1.2712,-1.3296,-1.3758,-1.4218,-1.4675,-1.4749,-1.4609,-1.4189,-1.3779,-1.3291,-1.3018,-1.3301,-1.3252,-1.3231,-1.371,-1.4122,-1.3887,-1.4111,-1.4735,-1.5837,-1.6386,-1.7474,-1.8448,-1.9032,-1.9411,-1.9798,-1.9798,-1.9798,-1.9798,-1.9798,-1.9798,-1.9798,-1.9798,-1.9798,-1.9798,-1.9798,-1.9798,-1.9798,-1.9798,-1.9798,-1.9798,-1.9798,-1.9798,-1.9798,-1.9798,-2.0003,-2.0297,-2.0732,-2.1286,-2.1794,-2.1592,-2.1792,-2.2062,-2.1921,-2.1393,-2.109,-2.1096,-2.1115,-2.1148,-2.1273,-2.1415,-2.1719,-2.1972,-2.2512,-2.2757,-2.286,-2.3024,-2.3187,-2.3275,-2.3465,-2.3595,-2.3595,-2.3595,-2.3595,-2.3595,-2.3595,-2.358,-2.3535,-2.355,-1.3206,-1.3186,-1.2872,-1.295,-1.2973,-1.2607,-1.2459,-1.254,-1.2338,-1.2157,-1.1844,-1.1797,-1.2054,-1.2304,-1.1661,-1.1623,-1.1682,-1.1099,-1.0631,-1.0638,-1.0645,-1.0541,-1.0474,-1.0448,-1.0448,-1.0557,-1.0604,-1.0618,-1.0618,-1.0618,-1.0744,-1.0611,-1.0551,-1.0753,-1.0593,-1.0719,-1.1458,-1.2348,-1.2785,-1.3316,-1.4071,-1.4165,-1.397,-1.3633,-1.3359,-1.3076,-1.2978,-1.3164,-1.3232,-1.2939,-1.3221,-1.3407,-1.3423,-1.3545,-1.4158,-1.569,-1.6074,-1.7131,-1.8395,-1.8927,-1.9254,-1.9798,-1.9798,-1.9798,-1.9798,-1.9685,-1.9597,-1.9608,-1.962,-1.962,-1.9697,-1.9608,-1.9684,-1.9722,-1.9773,-1.9709,-1.9786,-1.985,-2.0042,-2.0067,-2.032,-2.0607,-2.0861,-2.1269,-2.1877,-2.2334,-2.2101,-2.2062,-2.2323,-2.2394,-2.1996,-2.169,-2.1768,-2.1497,-2.1483,-2.1383,-2.1614,-2.1744,-2.2058,-2.2423,-2.2949,-2.2993,-2.2921,-2.3143,-2.3275,-2.3435,-2.3565,-2.3595,-2.3595,-2.3595,-2.3565,-2.352,-2.349,-2.3475,-2.3355,-1.3206,-1.3186,-1.295,-1.2639,-1.2452,-1.2331,-1.2044,-1.1724,-1.1877,-1.177,-1.1523,-1.149,-1.1796,-1.2058,-1.2173,-1.1988,-1.1759,-1.1073,-1.0627,-1.0613,-1.0537,-1.0401,-1.0214,-1.0187,-1.0187,-1.0261,-1.0374,-1.0544,-1.0591,-1.0618,-1.0517,-1.0474,-1.0301,-1.0194,-1.0295,-1.0607,-1.1118,-1.1906,-1.2458,-1.3159,-1.3767,-1.3931,-1.3838,-1.3477,-1.3301,-1.3154,-1.2939,-1.2949,-1.2949,-1.29,-1.2949,-1.3047,-1.3175,-1.3372,-1.4154,-1.5245,-1.6271,-1.7333,-1.8453,-1.9206,-1.9554,-1.9798,-1.9798,-1.9773,-1.9685,-1.9434,-1.9246,-1.9131,-1.9129,-1.9154,-1.9101,-1.9253,-1.9405,-1.9519,-1.9585,-1.942,-1.975,-2.0256,-2.0565,-2.0647,-2.0979,-2.1328,-2.1595,-2.1801,-2.232,-2.2775,-2.2849,-2.2818,-2.3024,-2.3052,-2.2789,-2.2625,-2.2503,-2.2102,-2.1747,-2.1591,-2.1617,-2.1554,-2.1724,-2.1764,-2.2241,-2.2602,-2.2723,-2.2829,-2.3066,-2.3357,-2.3445,-2.3445,-2.337,-2.3191,-2.3281,-2.3385,-2.3086,-2.2787,-2.2562,-1.2285,-1.2271,-1.2124,-1.1984,-1.1857,-1.1844,-1.1697,-1.1476,-1.1577,-1.1476,-1.1269,-1.1182,-1.1483,-1.1887,-1.2004,-1.2011,-1.1897,-1.1343,-1.0898,-1.0678,-1.0328,-1.0047,-0.99,-0.9893,-0.9886,-0.992,-1.004,-1.02,-1.0294,-1.0154,-1.0147,-1.0074,-0.9947,-0.99,-0.9932,-1.011,-1.0793,-1.1469,-1.2001,-1.2617,-1.3413,-1.3506,-1.3359,-1.3262,-1.3193,-1.3066,-1.2959,-1.2891,-1.2891,-1.2891,-1.2891,-1.3076,-1.3339,-1.3638,-1.4169,-1.5312,-1.6389,-1.7431,-1.8333,-1.9033,-1.9334,-1.9422,-1.9597,-1.9636,-1.9434,-1.9133,-1.8834,-1.861,-1.8611,-1.8601,-1.8598,-1.9107,-1.9321,-1.9157,-1.9397,-1.9651,-1.9764,-2.0583,-2.098,-2.1189,-2.1429,-2.1722,-2.2203,-2.2455,-2.2787,-2.3109,-2.3422,-2.3478,-2.3535,-2.331,-2.3026,-2.2383,-2.1979,-2.1464,-2.118,-2.1201,-2.1147,-2.1198,-2.1208,-2.1311,-2.1539,-2.1951,-2.2152,-2.2312,-2.2652,-2.2906,-2.2832,-2.2652,-2.2712,-2.2802,-2.2847,-2.2802,-2.2398,-2.2084,-2.1874,-1.139,-1.1336,-1.1396,-1.139,-1.1343,-1.1343,-1.1263,-1.1182,-1.1136,-1.0995,-1.0795,-1.0786,-1.1101,-1.1751,-1.1988,-1.2198,-1.2423,-1.1702,-1.1221,-1.0905,-1.0357,-0.9969,-0.9829,-0.965,-0.9593,-0.9586,-0.9506,-0.9699,-0.9947,-0.986,-0.9726,-0.9719,-0.9673,-0.9599,-0.9637,-0.9579,-1.0214,-1.0885,-1.1242,-1.1764,-1.2605,-1.2891,-1.2891,-1.2891,-1.2891,-1.29,-1.2891,-1.2891,-1.3017,-1.3104,-1.321,-1.3395,-1.3882,-1.4071,-1.4571,-1.5464,-1.6409,-1.7267,-1.8113,-1.8532,-1.8857,-1.8869,-1.9233,-1.9157,-1.8943,-1.862,-1.8362,-1.8009,-1.8022,-1.814,-1.8329,-1.905,-1.9287,-1.9378,-1.9755,-2.0279,-2.017,-2.0588,-2.1219,-2.1506,-2.1741,-2.215,-2.261,-2.2918,-2.32,-2.3245,-2.3508,-2.3278,-2.3288,-2.3038,-2.2577,-2.1695,-2.1036,-2.0482,-2.0287,-2.0423,-2.0468,-2.0505,-2.0527,-2.0584,-2.0907,-2.1346,-2.1441,-2.15,-2.1814,-2.1994,-2.1919,-2.1994,-2.2158,-2.2293,-2.2353,-2.2158,-2.171,-2.1455,-2.1291,-1.1276,-1.1062,-1.1303,-1.1283,-1.1035,-1.1009,-1.0728,-1.0327,-1.0321,-1.0133,-0.9945,-0.9953,-1.0642,-1.1741,-1.2484,-1.2741,-1.2607,-1.2072,-1.1615,-1.1376,-1.0778,-1.0346,-1.0137,-0.9508,-0.9348,-0.9265,-0.9072,-0.9252,-0.9552,-0.9626,-0.9639,-0.9579,-0.9385,-0.9236,-0.9272,-0.9138,-0.9611,-1.064,-1.0904,-1.1595,-1.2627,-1.2891,-1.2891,-1.2891,-1.2891,-1.2891,-1.2891,-1.2929,-1.3104,-1.3589,-1.3643,-1.3988,-1.4543,-1.5138,-1.5362,-1.5708,-1.6221,-1.6965,-1.785,-1.8216,-1.8292,-1.8317,-1.8468,-1.8367,-1.8254,-1.7875,-1.7446,-1.6767,-1.7188,-1.7692,-1.8036,-1.8405,-1.9106,-1.9476,-1.9653,-2.006,-2.0235,-2.0543,-2.1177,-2.1447,-2.1567,-2.2394,-2.3065,-2.3331,-2.3538,-2.3566,-2.3548,-2.3242,-2.2892,-2.2529,-2.1979,-2.1051,-2.0572,-2.0062,-1.9882,-1.9944,-1.9989,-1.9967,-1.9997,-2.0027,-2.0333,-2.0623,-2.0452,-2.0572,-2.0902,-2.1216,-2.1291,-2.144,-2.1665,-2.1695,-2.1635,-2.1335,-2.0961,-2.0797,-2.0812,-0.9343,-0.9631,-0.975,-0.9987,-1.0261,-1.0254,-1.0114,-0.9907,-0.9866,-0.9781,-0.9734,-0.9726,-1.0538,-1.1809,-1.2628,-1.3023,-1.3019,-1.2476,-1.2007,-1.165,-1.1096,-1.0546,-1.006,-0.9667,-0.9407,-0.9032,-0.8891,-0.8918,-0.9165,-0.9205,-0.9185,-0.9192,-0.9078,-0.8998,-0.9025,-0.8884,-0.9636,-1.0635,-1.1543,-1.2255,-1.2725,-1.2891,-1.2891,-1.2891,-1.2891,-1.2929,-1.2929,-1.2939,-1.319,-1.3674,-1.3784,-1.4247,-1.4971,-1.5499,-1.57,-1.6139,-1.6286,-1.6695,-1.7155,-1.7551,-1.7689,-1.784,-1.7953,-1.8103,-1.7731,-1.7227,-1.6871,-1.6554,-1.705,-1.7464,-1.7946,-1.8641,-1.8934,-1.9265,-1.9686,-1.9703,-2.0055,-2.0651,-2.1057,-2.1255,-2.1449,-2.2089,-2.2705,-2.2993,-2.3001,-2.2847,-2.2914,-2.2825,-2.2289,-2.1639,-2.1024,-2.0288,-2.0004,-1.9801,-1.9771,-1.9794,-1.9861,-1.9839,-1.9824,-1.9854,-1.9809,-1.9884,-1.9899,-1.9899,-2.0154,-2.0423,-2.0647,-2.0842,-2.1021,-2.0961,-2.0857,-2.0632,-2.0453,-2.0707,-2.0797,-0.7191,-0.7838,-0.8375,-0.8909,-0.944,-0.9548,-0.9579,-0.9566,-0.9486,-0.9452,-0.9572,-0.9862,-1.0715,-1.1785,-1.2574,-1.2997,-1.3249,-1.2833,-1.2434,-1.1913,-1.1375,-1.0854,-1.0462,-1.0087,-0.9532,-0.9008,-0.8877,-0.8844,-0.8831,-0.8844,-0.8871,-0.8804,-0.8871,-0.8831,-0.8871,-0.912,-0.9814,-1.1074,-1.2206,-1.2774,-1.2891,-1.2891,-1.2891,-1.2891,-1.2929,-1.2968,-1.3104,-1.3152,-1.3457,-1.4179,-1.4398,-1.4891,-1.5683,-1.5901,-1.6071,-1.6355,-1.651,-1.651,-1.6704,-1.6948,-1.7124,-1.73,-1.7426,-1.7476,-1.7212,-1.6722,-1.6534,-1.6522,-1.6978,-1.7316,-1.7747,-1.8841,-1.928,-1.9517,-1.9788,-1.9656,-1.9678,-2.0341,-2.064,-2.0587,-2.082,-2.1228,-2.1831,-2.234,-2.242,-2.2175,-2.2157,-2.2308,-2.1919,-2.1263,-2.0805,-2.0294,-2.0266,-2.0158,-2.012,-2.0065,-1.996,-1.9756,-1.9756,-1.9705,-1.972,-1.972,-1.9765,-1.9735,-1.9756,-1.9839,-2.0183,-2.0273,-2.0348,-2.0318,-2.0273,-2.0139,-2.0109,-2.0438,-2.1075,-0.5093,-0.5881,-0.7758,-0.858,-0.8737,-0.9097,-0.9265,-0.9245,-0.9005,-0.8978,-0.9205,-1.0118,-1.1039,-1.1858,-1.2538,-1.2918,-1.2949,-1.2871,-1.2803,-1.2578,-1.2129,-1.1765,-1.1308,-1.0661,-0.9902,-0.9555,-0.9204,-0.8956,-0.8804,-0.8804,-0.8804,-0.8804,-0.8804,-0.8804,-0.9008,-0.9465,-1.0312,-1.1475,-1.2501,-1.2881,-1.2891,-1.2891,-1.2891,-1.2891,-1.2929,-1.3152,-1.3695,-1.3637,-1.4133,-1.5141,-1.521,-1.5525,-1.61,-1.6262,-1.638,-1.6479,-1.6534,-1.6534,-1.6597,-1.6609,-1.6597,-1.6609,-1.6697,-1.6835,-1.6735,-1.6635,-1.6534,-1.6675,-1.7221,-1.7653,-1.8083,-1.8627,-1.9418,-1.9752,-1.9908,-1.9879,-1.9916,-2.0167,-2.0367,-2.0053,-2.0252,-2.0767,-2.1149,-2.1668,-2.2169,-2.204,-2.1967,-2.2125,-2.1983,-2.1459,-2.112,-2.0821,-2.0845,-2.0814,-2.0797,-2.0614,-2.0185,-1.9929,-1.9852,-1.9771,-1.9705,-1.9705,-1.9705,-1.9837,-1.9867,-1.9786,-1.9756,-1.9951,-2.004,-1.9824,-1.9765,-1.9929,-2.0273,-2.0722,-2.1579,-0.4897,-0.5609,-0.688,-0.7628,-0.8066,-0.8687,-0.8978,-0.8965,-0.8851,-0.9054,-0.9465,-1.0383,-1.1182,-1.1864,-1.251,-1.2891,-1.2891,-1.2891,-1.3104,-1.3314,-1.314,-1.2783,-1.2337,-1.1787,-1.1082,-1.0084,-0.9547,-0.9106,-0.8804,-0.8804,-0.8804,-0.8804,-0.8804,-0.8804,-0.9061,-0.9865,-1.0922,-1.1724,-1.2501,-1.2891,-1.2891,-1.2891,-1.2891,-1.2891,-1.2891,-1.32,-1.3684,-1.3779,-1.4549,-1.5242,-1.5593,-1.5981,-1.6392,-1.6491,-1.6534,-1.6522,-1.6522,-1.6522,-1.6534,-1.6534,-1.6534,-1.6534,-1.6534,-1.6522,-1.6577,-1.6764,-1.6969,-1.7242,-1.776,-1.8299,-1.8585,-1.906,-1.9597,-1.9893,-1.9989,-1.9959,-2.0047,-2.0201,-2.0279,-2.001,-2.0139,-2.046,-2.0744,-2.1055,-2.1553,-2.1922,-2.1877,-2.1894,-2.1869,-2.1761,-2.1424,-2.1215,-2.1241,-2.1116,-2.1086,-2.0714,-2.032,-2.0157,-1.9969,-1.9837,-1.9705,-1.9705,-1.9756,-1.9882,-2.0029,-1.9993,-1.9912,-1.9852,-1.9771,-1.9741,-1.9869,-2.0094,-2.0498,-2.0976,-2.1949,-0.4791,-0.5332,-0.6204,-0.702,-0.7777,-0.848,-0.8804,-0.8804,-0.8811,-0.9309,-1.0115,-1.061,-1.1325,-1.2089,-1.2608,-1.2891,-1.2891,-1.2978,-1.3286,-1.3542,-1.3627,-1.3606,-1.3406,-1.2946,-1.2201,-1.0856,-1.0084,-0.9747,-0.9162,-0.8923,-0.8811,-0.8804,-0.8804,-0.8857,-0.9406,-1.0364,-1.1425,-1.2138,-1.2559,-1.2891,-1.2891,-1.2891,-1.2891,-1.2978,-1.3113,-1.3563,-1.405,-1.4411,-1.496,-1.5611,-1.5969,-1.6125,-1.6374,-1.6534,-1.6534,-1.6565,-1.6637,-1.6667,-1.6565,-1.6534,-1.6607,-1.6765,-1.6565,-1.6595,-1.6774,-1.7085,-1.7273,-1.7593,-1.8351,-1.8907,-1.8971,-1.9316,-1.9603,-1.9824,-1.9824,-1.9794,-1.9794,-1.9918,-1.998,-1.996,-2.0184,-2.0487,-2.1248,-2.1612,-2.1743,-2.2126,-2.2185,-2.2197,-2.2203,-2.2019,-2.1718,-2.1612,-2.1582,-2.139,-2.1194,-2.0878,-2.053,-2.0208,-2.001,-1.9807,-1.9705,-1.9765,-1.9816,-1.9882,-2.0008,-2.0135,-2.0023,-1.9837,-1.9756,-1.9705,-1.9854,-2.0019,-2.0662,-2.1171,-2.2239,-0.4574,-0.468,-0.6046,-0.702,-0.783,-0.848,-0.8804,-0.8804,-0.8857,-0.9562,-1.0618,-1.0864,-1.1592,-1.2569,-1.2881,-1.2881,-1.2891,-1.2929,-1.3286,-1.3779,-1.4003,-1.4143,-1.4261,-1.3996,-1.3324,-1.2541,-1.1571,-1.0584,-0.9881,-0.9246,-0.9015,-0.8956,-0.9106,-0.9309,-0.9865,-1.1065,-1.2089,-1.2774,-1.2881,-1.2929,-1.3027,-1.3065,-1.3065,-1.3296,-1.36,-1.405,-1.4595,-1.5039,-1.5543,-1.6151,-1.6306,-1.6448,-1.6595,-1.6625,-1.6625,-1.6667,-1.7063,-1.7034,-1.668,-1.6607,-1.6765,-1.7005,-1.6723,-1.6795,-1.7115,-1.7384,-1.7642,-1.8072,-1.8684,-1.8958,-1.9095,-1.9337,-1.9594,-1.9705,-1.9705,-1.9705,-1.9705,-1.9859,-2.0004,-2.0181,-2.0366,-2.0693,-2.1671,-2.2302,-2.226,-2.2375,-2.2455,-2.2475,-2.2492,-2.2276,-2.1961,-2.184,-2.1799,-2.1592,-2.1368,-2.107,-2.0748,-2.0385,-2.0131,-2.0044,-2.0064,-2.0228,-2.019,-2.0032,-2.0252,-2.0624,-2.0243,-1.9762,-2.0051,-2.0303,-1.9827,-1.9944,-2.0632,-2.1497,-2.262,-0.5062,-0.5937,-0.6421,-0.7295,-0.8374,-0.8699,-0.8804,-0.8857,-0.9316,-0.9969,-1.0771,-1.1216,-1.1931,-1.2666,-1.2891,-1.2891,-1.2891,-1.2929,-1.3334,-1.4283,-1.4376,-1.4778,-1.4994,-1.4914,-1.4359,-1.3434,-1.2416,-1.1715,-1.1047,-1.0018,-0.9562,-0.951,-0.9762,-1.0218,-1.0618,-1.1416,-1.2138,-1.2774,-1.2929,-1.3065,-1.342,-1.3505,-1.3647,-1.4025,-1.4283,-1.4687,-1.5186,-1.5543,-1.5952,-1.6423,-1.6534,-1.6637,-1.6896,-1.7008,-1.7177,-1.7409,-1.7827,-1.7947,-1.7747,-1.7598,-1.6921,-1.6964,-1.7005,-1.7076,-1.7297,-1.8031,-1.8369,-1.8644,-1.9066,-1.9294,-1.9513,-1.9579,-1.9705,-1.9705,-1.9705,-1.9705,-1.9747,-2.0008,-2.0221,-2.0473,-2.067,-2.1241,-2.2059,-2.2343,-2.2353,-2.2321,-2.2362,-2.2681,-2.2765,-2.2468,-2.2168,-2.2028,-2.1936,-2.1757,-2.1544,-2.1215,-2.0994,-2.074,-2.0573,-2.0475,-2.055,-2.0669,-2.0662,-2.058,-2.0898,-2.1137,-2.093,-2.0783,-2.0955,-2.0973,-2.0547,-2.0624,-2.1423,-2.2248,-2.3126,-0.5167,-0.6199,-0.6475,-0.7289,-0.8368,-0.8699,-0.8804,-0.8857,-0.9309,-0.9969,-1.0762,-1.1258,-1.199,-1.2627,-1.2891,-1.2891,-1.2929,-1.32,-1.3382,-1.4422,-1.488,-1.5186,-1.5499,-1.5752,-1.5257,-1.4384,-1.3676,-1.301,-1.1972,-1.0705,-1.0049,-0.9961,-1.0466,-1.0821,-1.1275,-1.1882,-1.2403,-1.292,-1.3104,-1.342,-1.3732,-1.3967,-1.4283,-1.4606,-1.488,-1.5186,-1.5543,-1.582,-1.6051,-1.6392,-1.6607,-1.6795,-1.7162,-1.7382,-1.7599,-1.792,-1.7947,-1.8224,-1.838,-1.7558,-1.7034,-1.7229,-1.7271,-1.7381,-1.7625,-1.8354,-1.8871,-1.9199,-1.9546,-1.9632,-1.9696,-1.9747,-1.9797,-1.9797,-1.996,-1.9945,-2.0208,-2.0454,-2.0653,-2.0879,-2.1131,-2.1728,-2.2186,-2.2242,-2.2315,-2.2302,-2.2269,-2.2568,-2.2841,-2.2584,-2.2291,-2.2169,-2.219,-2.2183,-2.181,-2.1254,-2.1132,-2.1105,-2.0993,-2.0932,-2.1057,-2.1201,-2.1156,-2.1227,-2.1565,-2.1842,-2.1895,-2.1904,-2.1936,-2.177,-2.1418,-2.1682,-2.231,-2.2952,-2.3658,-0.4893,-0.5597,-0.6312,-0.702,-0.7777,-0.848,-0.8804,-0.8804,-0.891,-0.9658,-1.0805,-1.0965,-1.1841,-1.2725,-1.2891,-1.2891,-1.3017,-1.3457,-1.3826,-1.4272,-1.5005,-1.541,-1.582,-1.6126,-1.5886,-1.5497,-1.4834,-1.3907,-1.284,-1.1431,-1.0501,-1.0254,-1.0712,-1.1275,-1.1882,-1.2403,-1.2774,-1.2968,-1.3372,-1.3684,-1.4003,-1.4457,-1.4789,-1.5152,-1.541,-1.5644,-1.592,-1.6139,-1.6411,-1.6552,-1.6595,-1.6951,-1.7188,-1.734,-1.7706,-1.7894,-1.7787,-1.8327,-1.8612,-1.7666,-1.7476,-1.7827,-1.7666,-1.7787,-1.8108,-1.868,-1.917,-1.9442,-1.9669,-1.9711,-1.9773,-1.9859,-1.998,-2.0139,-2.033,-2.0532,-2.0812,-2.1007,-2.118,-2.1336,-2.1535,-2.1911,-2.2163,-2.2282,-2.2152,-2.2144,-2.201,-2.1756,-2.2075,-2.2485,-2.2261,-2.2194,-2.2297,-2.2641,-2.2204,-2.1448,-2.1532,-2.1591,-2.1439,-2.1365,-2.153,-2.1783,-2.1857,-2.2026,-2.2325,-2.2615,-2.3125,-2.3063,-2.2751,-2.2585,-2.2696,-2.2751,-2.3315,-2.3491,-2.4031,-0.4893,-0.5538,-0.6312,-0.702,-0.7723,-0.8487,-0.8804,-0.891,-0.9769,-1.0517,-1.0821,-1.1891,-1.2363,-1.2881,-1.2891,-1.2891,-1.3152,-1.3505,-1.4061,-1.4595,-1.5276,-1.5764,-1.6139,-1.638,-1.6343,-1.6089,-1.5528,-1.4869,-1.3914,-1.2415,-1.1507,-1.1366,-1.1408,-1.1922,-1.2393,-1.2774,-1.2881,-1.3113,-1.3552,-1.3967,-1.4411,-1.4949,-1.5377,-1.5832,-1.602,-1.6151,-1.6293,-1.6411,-1.6667,-1.6993,-1.7034,-1.7422,-1.838,-1.8458,-1.8688,-1.9169,-1.9132,-1.9207,-1.9281,-1.8688,-1.8302,-1.8496,-1.8458,-1.8496,-1.8755,-1.9101,-1.9494,-1.9713,-1.9909,-1.9974,-2.0081,-2.02,-2.0366,-2.0632,-2.0781,-2.0959,-2.1197,-2.1415,-2.1568,-2.1658,-2.184,-2.2003,-2.2254,-2.1974,-2.1869,-2.1945,-2.1801,-2.1374,-2.1424,-2.1906,-2.2116,-2.2005,-2.2293,-2.2608,-2.2222,-2.1489,-2.1857,-2.2074,-2.1929,-2.1919,-2.2274,-2.2521,-2.2609,-2.2922,-2.3359,-2.4009,-2.4763,-2.4431,-2.3819,-2.4282,-2.443,-2.4326,-2.4232,-2.4398,-2.4657,-0.4897,-0.5542,-0.5982,-0.6745,-0.7723,-0.848,-0.8804,-0.8956,-0.9666,-1.0218,-1.0872,-1.1633,-1.2363,-1.2881,-1.2929,-1.3065,-1.3372,-1.392,-1.4376,-1.4744,-1.5555,-1.5864,-1.6194,-1.6392,-1.6479,-1.6337,-1.6107,-1.5588,-1.4721,-1.3585,-1.258,-1.2522,-1.2385,-1.2667,-1.3035,-1.3055,-1.3055,-1.3334,-1.3695,-1.4154,-1.4698,-1.5309,-1.5864,-1.638,-1.6491,-1.6534,-1.6565,-1.6637,-1.6993,-1.7353,-1.7381,-1.7973,-1.8841,-1.9043,-1.9244,-1.9566,-1.9317,-1.9406,-1.9442,-1.8907,-1.8893,-1.9043,-1.9043,-1.9006,-1.9273,-1.9615,-1.9843,-2.001,-2.0193,-2.034,-2.0457,-2.0621,-2.0879,-2.1181,-2.1244,-2.1323,-2.1554,-2.1751,-2.184,-2.1945,-2.2049,-2.2225,-2.2152,-2.1794,-2.1573,-2.1627,-2.1359,-2.0873,-2.1027,-2.1598,-2.1709,-2.1652,-2.2066,-2.2432,-2.201,-2.1805,-2.2209,-2.248,-2.2439,-2.2544,-2.296,-2.3214,-2.3336,-2.3839,-2.4478,-2.5146,-2.5781,-2.5358,-2.4974,-2.5395,-2.5631,-2.5363,-2.5209,-2.5332,-2.5667,-0.4893,-0.5542,-0.5647,-0.6632,-0.7777,-0.8533,-0.8804,-0.8804,-0.8903,-0.9562,-1.0669,-1.0922,-1.1792,-1.2725,-1.2939,-1.3238,-1.3695,-1.4294,-1.4652,-1.4835,-1.5876,-1.6238,-1.6151,-1.6194,-1.6479,-1.6534,-1.6349,-1.6008,-1.5398,-1.4367,-1.3632,-1.3752,-1.329,-1.3369,-1.3732,-1.3515,-1.3563,-1.3873,-1.4003,-1.4329,-1.4869,-1.541,-1.592,-1.6392,-1.6534,-1.6522,-1.6637,-1.6909,-1.7312,-1.7504,-1.7894,-1.8419,-1.8968,-1.9369,-1.9603,-1.9603,-1.9369,-1.9442,-1.9442,-1.9058,-1.9095,-1.9207,-1.9317,-1.9413,-1.9758,-1.9974,-2.0115,-2.0239,-2.0423,-2.0751,-2.0925,-2.1037,-2.1243,-2.1538,-2.1705,-2.1836,-2.2051,-2.2198,-2.2169,-2.2203,-2.218,-2.2299,-2.218,-2.1869,-2.1509,-2.1392,-2.0913,-2.0362,-2.0605,-2.1177,-2.1217,-2.1206,-2.1556,-2.1925,-2.2206,-2.2152,-2.2632,-2.281,-2.2911,-2.331,-2.3815,-2.3965,-2.4053,-2.4745,-2.5514,-2.6017,-2.642,-2.5998,-2.5812,-2.6083,-2.6219,-2.6134,-2.6152,-2.6097,-2.618,-0.4897,-0.5592,-0.6681,-0.7717,-0.848,-0.8699,-0.8804,-0.8804,-0.8804,-0.9562,-1.0712,-1.1366,-1.199,-1.2783,-1.2929,-1.3238,-1.3826,-1.4422,-1.4915,-1.5377,-1.6194,-1.6436,-1.6293,-1.6392,-1.6534,-1.6534,-1.6436,-1.6238,-1.5664,-1.4949,-1.4503,-1.4446,-1.425,-1.4481,-1.4468,-1.4212,-1.4329,-1.4503,-1.4503,-1.4778,-1.5365,-1.5876,-1.6436,-1.6534,-1.6534,-1.6522,-1.671,-1.7034,-1.7504,-1.7894,-1.8419,-1.8968,-1.9479,-1.9639,-1.969,-1.969,-1.953,-1.9566,-1.953,-1.9369,-1.9442,-1.966,-1.9823,-1.9984,-2.0177,-2.0249,-2.0353,-2.0506,-2.0751,-2.1111,-2.1371,-2.1486,-2.1582,-2.1882,-2.2101,-2.2337,-2.2563,-2.251,-2.2473,-2.2398,-2.231,-2.2254,-2.2152,-2.1857,-2.1495,-2.0974,-2.032,-1.9935,-2.0203,-2.0593,-2.0528,-2.0558,-2.0788,-2.1181,-2.1756,-2.2534,-2.298,-2.3555,-2.383,-2.4244,-2.4681,-2.4846,-2.5024,-2.5801,-2.6539,-2.6691,-2.6708,-2.6607,-2.6539,-2.664,-2.6607,-2.6437,-2.6454,-2.6437,-2.6505,-0.5164,-0.5701,-0.7069,-0.7943,-0.8315,-0.8646,-0.8804,-0.8857,-0.9113,-0.9814,-1.0762,-1.1266,-1.1931,-1.2774,-1.2929,-1.3238,-1.3815,-1.4422,-1.5005,-1.5599,-1.6095,-1.6436,-1.6534,-1.6534,-1.6534,-1.6534,-1.6479,-1.6281,-1.5952,-1.6058,-1.5872,-1.5588,-1.5576,-1.5508,-1.5276,-1.5084,-1.5084,-1.5096,-1.5107,-1.5421,-1.5864,-1.6139,-1.6337,-1.6337,-1.6522,-1.6595,-1.6993,-1.7381,-1.7894,-1.8458,-1.8983,-1.9281,-1.9603,-1.969,-1.969,-1.9705,-1.969,-1.9705,-1.9705,-1.9726,-1.9803,-1.9965,-2.0139,-2.0261,-2.0649,-2.0781,-2.1006,-2.115,-2.1475,-2.1845,-2.1874,-2.194,-2.2079,-2.232,-2.2412,-2.2556,-2.2556,-2.2493,-2.2419,-2.2349,-2.2327,-2.2299,-2.2077,-2.1584,-2.1325,-2.1552,-2.0715,-2.0451,-2.0524,-2.0476,-2.0279,-2.0272,-2.07,-2.1068,-2.1654,-2.2565,-2.3345,-2.3962,-2.4617,-2.4981,-2.5307,-2.5691,-2.6109,-2.6452,-2.6674,-2.6691,-2.6708,-2.6708,-2.6708,-2.6674,-2.6674,-2.6657,-2.6708,-2.6708,-2.6657,-0.5597,-0.5977,-0.7283,-0.783,-0.7937,-0.8533,-0.8804,-0.8903,-0.951,-1.0167,-1.0762,-1.0965,-1.1742,-1.252,-1.2929,-1.3324,-1.3779,-1.419,-1.4824,-1.5555,-1.6095,-1.6337,-1.6479,-1.6534,-1.6534,-1.6534,-1.6479,-1.6522,-1.638,-1.6642,-1.6799,-1.674,-1.6744,-1.6747,-1.6077,-1.5684,-1.564,-1.5676,-1.5776,-1.602,-1.6051,-1.5996,-1.6182,-1.6367,-1.6595,-1.6866,-1.7312,-1.7907,-1.8419,-1.8855,-1.9295,-1.9566,-1.9654,-1.9705,-1.9705,-1.9705,-1.9705,-1.9705,-1.9726,-1.9818,-2.0,-2.0177,-2.0348,-2.0649,-2.1086,-2.1324,-2.1546,-2.1777,-2.2082,-2.222,-2.2248,-2.2315,-2.2473,-2.2686,-2.2721,-2.2712,-2.2625,-2.2573,-2.2527,-2.246,-2.2349,-2.2349,-2.202,-2.1477,-2.1455,-2.1682,-2.17,-2.1547,-2.137,-2.1174,-2.094,-2.1001,-2.1294,-2.1591,-2.1862,-2.2593,-2.3569,-2.4578,-2.5221,-2.5605,-2.5914,-2.6148,-2.6345,-2.6521,-2.6708,-2.6708,-2.6708,-2.6708,-2.6708,-2.6708,-2.6708,-2.6708,-2.6708,-2.6708,-2.6708,-0.6195,-0.7343,-0.8209,-0.8586,-0.8586,-0.8752,-0.8804,-0.891,-0.951,-1.0167,-1.0813,-1.1408,-1.2129,-1.2891,-1.2891,-1.32,-1.3589,-1.4014,-1.4732,-1.5543,-1.5776,-1.6095,-1.638,-1.6534,-1.6534,-1.6534,-1.6522,-1.6522,-1.671,-1.7118,-1.7271,-1.7201,-1.7271,-1.7203,-1.7037,-1.6701,-1.6459,-1.6441,-1.6355,-1.6497,-1.6454,-1.6454,-1.6423,-1.6637,-1.6909,-1.7105,-1.7504,-1.8263,-1.865,-1.9006,-1.9369,-1.9617,-1.9705,-1.9705,-1.9705,-1.9762,-1.9726,-1.9782,-1.9854,-2.007,-2.033,-2.0516,-2.0748,-2.1229,-2.1601,-2.1827,-2.1982,-2.207,-2.2282,-2.2287,-2.2343,-2.2371,-2.2517,-2.2865,-2.3045,-2.2927,-2.2859,-2.296,-2.3056,-2.2798,-2.2554,-2.248,-2.2293,-2.1947,-2.1843,-2.1969,-2.1911,-2.1788,-2.1949,-2.1774,-2.1635,-2.1835,-2.2,-2.2084,-2.2315,-2.2896,-2.3802,-2.4903,-2.5762,-2.603,-2.626,-2.6487,-2.6691,-2.6708,-2.6708,-2.6708,-2.6708,-2.6708,-2.6708,-2.6708,-2.6708,-2.6708,-2.6708,-2.6708,-2.6708]}]]